[[{"header":{"parameterUnit":"m.s-1","parameterCategory":1,"la1":30.6,"la2":29.2853,"lo1":-89.7004,"lo2":-87.6739,"dy":0.0162,"dx":0.0183,"nx":112,"ny":82,"refTime":"2026-04-08T00:00:00:Z","depth":0,"parameterNumber":2,"parameterNumberName":"U-component_of_WINDS"},"data":[0.0,0.0,0.0,0.0,0.0,0.0,0.0,0.0,0.0,0.0,0.0,0.0,0.0,0.0,0.0,0.0,0.0,0.0,0.0,0.0,0.0,0.0,0.0,0.0,0.0,0.0,0.0,0.0,0.0,0.0,0.0,0.0,0.0,0.0,0.0,0.0,0.0,0.0,0.0,0.0,0.0,0.0,0.0,0.0,0.0,0.0,0.0,0.0,0.0,0.0,0.0,0.0,0.0,0.0,0.0,0.0,0.0,0.0,0.0,0.0,0.0,0.0,0.0,0.0,0.0,0.0,0.0,0.0,0.0,0.0,0.0,0.0,0.0,0.0,0.0,0.0,0.0,0.0,0.0,0.0,0.0,0.0,0.0,0.0,0.0,0.0,0.0,0.0,0.0,0.0,0.4963,0.5663,0.65,0.7002,0.7006,0.684,0.6343,0.5353,0.0,0.0,0.0,0.0,0.0,0.0,0.0,0.0,0.0,0.0,0.0,0.0,0.0,0.0,0.0,0.0,0.0,0.0,0.0,0.0,0.0,0.0,0.0,0.0,0.0,0.0,0.0,0.0,0.0,0.0,0.0,0.0,0.0,0.0,0.0,0.0,0.0,0.0,0.0,0.0,0.0,0.0,0.0,0.0,0.0,0.0,0.0,0.0,0.0,0.0,0.0,0.0,0.0,0.0,0.0,0.0,0.0,0.0,0.0,0.0,0.0,0.0,0.0,0.0,0.0,0.0,0.0,0.0,0.0,0.0,0.0,0.0,0.0,0.0,0.0,0.0,0.0,0.0,0.0,0.0,0.0,0.0,0.0,0.0,0.0,0.0,0.0,0.0,0.0,0.0,0.0,0.0,0.0,0.0,0.0,0.0,0.0,0.0,0.0,0.0,0.0,0.0,0.0,0.0,0.5228,0.6617,0.6917,0.7005,0.7004,0.6963,0.6481,0.5361,0.0,0.0,0.0,0.0,0.0,0.0,0.0,0.0,0.0,0.0,0.0,0.0,0.0,0.0,0.0,0.0,0.0,0.0,0.0,0.0,0.0,0.0,0.0,0.0,0.0,0.0,0.0,0.0,0.0,0.0,0.0,0.0,0.0,0.0,0.0,0.0,0.0,0.0,0.0,0.0,0.0,0.0,0.0,0.0,0.0,0.0,0.0,0.0,0.0,0.0,0.0,0.0,0.0,0.0,0.0,0.0,0.0,0.0,0.0,0.0,0.0,0.0,0.0,0.0,0.0,0.0,0.0,0.0,0.0,0.0,0.0,0.0,0.0,0.0,0.0,0.0,0.0,0.0,0.0,0.0,0.0,0.0,0.0,0.0,0.0,0.0,0.0,0.0,0.0,0.0,0.0,0.0,0.0,0.0,0.0,0.0,0.0,0.0,0.0,0.0,0.0,0.0,0.0,0.4866,0.5738,0.6731,0.7103,0.7197,0.7012,0.7006,0.6514,0.5369,0.4977,0.0,0.0,0.0,0.0,0.0,0.0,0.0,0.0,0.0,0.0,0.0,0.0,0.0,0.0,0.0,0.0,0.0,0.0,0.0,0.0,0.0,0.0,0.0,0.0,0.0,0.0,0.0,0.0,0.0,0.0,0.0,0.0,0.0,0.0,0.0,0.0,0.0,0.0,0.0,0.0,0.0,0.0,0.0,0.0,0.0,0.0,0.0,0.0,0.0,0.0,0.0,0.0,0.0,0.0,0.0,0.0,0.0,0.0,0.0,0.0,0.0,0.0,0.0,0.0,0.0,0.0,0.0,0.0,0.0,0.0,0.0,0.0,0.0,0.0,0.0,0.0,0.0,0.0,0.0,0.0,0.0,0.0,0.0,0.0,0.0,0.0,0.0,0.0,0.0,0.0,0.0,0.0,0.0,0.0,0.0,0.0,0.0,0.0,0.0,0.0,0.0,0.0,0.5669,0.624,0.6754,0.7226,0.7361,0.7038,0.6914,0.6424,0.5361,0.4917,0.0,0.0,0.0,0.0,0.0,0.0,0.0,0.0,0.0,0.0,0.0,0.0,0.0,0.0,0.0,0.0,0.0,0.0,0.0,0.0,0.0,0.0,0.0,0.0,0.0,0.0,0.0,0.0,0.0,0.0,0.0,0.0,0.0,0.0,0.0,0.0,0.0,0.0,0.0,0.0,0.0,0.0,0.0,0.0,0.0,0.0,0.0,0.0,0.0,0.0,0.0,0.0,0.0,0.0,0.0,0.0,0.0,0.0,0.0,0.0,0.0,0.0,0.0,0.0,0.0,0.0,0.0,0.0,0.0,0.0,0.0,0.0,0.0,0.0,0.0,0.0,0.0,0.0,0.0,0.0,0.0,0.0,0.0,0.0,0.0,0.0,0.0,0.0,0.0,0.0,0.0,0.0,0.0,0.0,0.0,0.0,0.0,0.0,0.0,0.0,0.0,0.0,0.5935,0.6633,0.7108,0.7374,0.7361,0.7038,0.666,0.6108,0.5345,0.4694,0.0,0.0,0.0,0.0,0.0,0.0,0.0,0.0,0.0,0.0,0.0,0.0,0.0,0.0,0.0,0.0,0.0,0.0,0.0,0.0,0.0,0.0,0.0,0.0,0.0,0.0,0.0,0.0,0.0,0.0,0.0,0.0,0.0,0.0,0.0,0.0,0.0,0.0,0.0,0.0,0.0,0.0,0.0,0.0,0.0,0.0,0.0,0.0,0.0,0.0,0.0,0.0,0.0,0.0,0.0,0.0,0.0,0.0,0.0,0.0,0.0,0.0,0.0,0.0,0.0,0.0,0.0,0.0,0.0,0.0,0.0,0.0,0.0,0.0,0.0,0.0,0.0,0.0,0.0,0.0,0.0,0.0,0.0,0.0,0.0,0.0,0.0,0.0,0.0,0.0,0.0,0.0,0.0,0.0,0.0,0.0,0.0,0.0,0.0,0.0,0.0,0.0,0.5879,0.6545,0.0,0.7382,0.7361,0.7038,0.6742,0.6213,0.5353,0.0,0.0,0.0,0.0,0.0,0.0,0.0,0.0,0.0,0.0,0.0,0.0,0.0,0.0,0.0,0.0,0.0,0.0,0.0,0.0,0.0,0.0,0.0,0.0,0.0,0.0,0.0,0.0,0.0,0.0,0.0,0.0,0.0,0.0,0.0,0.0,0.0,0.0,0.0,0.0,0.0,0.0,0.0,0.0,0.0,0.0,0.0,0.0,0.0,0.0,0.0,0.0,0.0,0.0,0.0,0.0,0.0,0.0,0.0,0.0,0.0,0.0,0.0,0.0,0.0,0.0,0.0,0.0,0.0,0.0,0.0,0.0,0.0,0.0,0.0,0.0,0.0,0.0,0.0,0.0,0.0,0.0,0.0,0.0,0.0,0.0,0.0,0.0,0.0,0.0,0.0,0.0,0.0,0.0,0.0,0.0,0.0,0.0,0.0,0.0,0.0,0.0,0.5146,0.5903,0.6558,0.0,0.7288,0.7236,0.6831,0.6579,0.6067,0.519,0.0,0.0,0.0,0.0,0.0,0.0,0.0,0.0,0.0,0.0,0.0,0.0,0.0,0.0,0.0,0.0,0.0,0.0,0.0,0.0,0.0,0.0,0.0,0.0,0.0,0.0,0.0,0.0,0.0,0.0,0.0,0.0,0.0,0.0,0.0,0.0,0.0,0.0,0.0,0.0,0.0,0.0,0.0,0.0,0.0,0.0,0.0,0.0,0.0,0.0,0.0,0.0,0.0,0.0,0.0,0.0,0.0,0.0,0.0,0.0,0.0,0.0,0.0,0.0,0.0,0.0,0.0,0.0,0.0,0.0,0.0,0.0,0.0,0.0,0.0,0.0,0.0,0.0,0.0,0.0,0.0,0.0,0.0,0.0,0.0,0.0,0.0,0.0,0.0,0.0,0.0,0.0,0.0,0.0,0.0,0.0,0.0,0.0,0.0,0.0,0.0,0.0,0.5128,0.6071,0.6747,0.6881,0.7072,0.6983,0.6448,0.6091,0.5594,0.0,0.0,0.0,0.0,0.0,0.0,0.0,0.0,0.0,0.0,0.0,0.0,0.0,0.0,0.0,0.0,0.0,0.0,0.0,0.0,0.0,0.0,0.0,0.0,0.0,0.0,0.0,0.0,0.0,0.0,0.0,0.0,0.0,0.0,0.0,0.0,0.0,0.0,0.0,0.0,0.0,0.0,0.0,0.0,0.0,0.0,0.0,0.0,0.0,0.0,0.0,0.0,0.0,0.0,0.0,0.0,0.0,0.0,0.0,0.0,0.0,0.0,0.0,0.0,0.0,0.0,0.0,0.0,0.0,0.0,0.0,0.0,0.0,0.0,0.0,0.0,0.0,0.0,0.0,0.0,0.0,0.0,0.0,0.0,0.0,0.0,0.0,0.0,0.0,0.0,0.0,0.0,0.0,0.0,0.0,0.0,0.0,0.0,0.0,0.0,0.0,0.0,0.0,0.5215,0.5814,0.6348,0.6911,0.7033,0.688,0.6432,0.6221,0.5796,0.5056,0.0,0.0,0.0,0.0,0.0,0.0,0.0,0.0,0.0,0.0,0.0,0.0,0.0,0.0,0.0,0.0,0.0,0.0,0.0,0.0,0.0,0.0,0.0,0.0,0.0,0.0,0.0,0.0,0.0,0.0,0.0,0.0,0.0,0.0,0.0,0.0,0.0,0.0,0.0,0.0,0.0,0.0,0.0,0.0,0.0,0.0,0.0,0.0,0.0,0.0,0.0,0.0,0.0,0.0,0.0,0.0,0.0,0.0,0.0,0.0,0.0,0.0,0.0,0.0,0.0,0.0,0.0,0.0,0.0,0.0,0.0,0.0,0.0,0.0,0.0,0.0,0.0,0.0,0.0,0.0,0.0,0.0,0.0,0.0,0.0,0.0,0.0,0.0,0.0,0.0,0.0,0.0,0.0,0.0,0.0,0.0,0.0,0.0,0.0,0.0,0.0,0.0,0.5019,0.5567,0.6093,0.6586,0.6706,0.6649,0.6343,0.6237,0.5852,0.5032,0.0,0.0,0.0,0.0,0.0,0.0,0.0,0.0,0.0,0.0,0.0,0.0,0.0,0.0,0.0,0.0,0.0,0.0,0.0,0.0,0.0,0.0,0.0,0.0,0.0,0.0,0.0,0.0,0.0,0.0,0.0,0.0,0.0,0.0,0.0,0.0,0.0,0.0,0.0,0.0,0.0,0.0,0.0,0.0,0.0,0.0,0.0,0.0,0.0,0.0,0.0,0.0,0.0,0.0,0.0,0.0,0.0,0.0,0.0,0.0,0.0,0.0,0.0,0.0,0.0,0.0,0.0,0.0,0.0,0.0,0.0,0.0,0.0,0.0,0.0,0.0,0.0,0.0,0.0,0.0,0.0,0.0,0.0,0.0,0.0,0.0,0.0,0.0,0.0,0.0,0.0,0.0,0.0,0.0,0.0,0.0,0.0,0.0,0.0,0.0,0.0,0.0,0.4635,0.5374,0.5918,0.6097,0.6283,0.6354,0.6204,0.6179,0.5788,0.4905,0.0,0.0,0.0,0.0,0.0,0.0,0.0,0.0,0.0,0.0,0.0,0.0,0.0,0.0,0.0,0.0,0.0,0.0,0.0,0.0,0.0,0.0,0.0,0.0,0.0,0.0,0.0,0.0,0.0,0.0,0.0,0.0,0.0,0.0,0.0,0.0,0.0,0.0,0.0,0.0,0.0,0.0,0.0,0.0,0.0,0.0,0.0,0.0,0.0,0.0,0.0,0.0,0.0,0.0,0.0,0.0,0.0,0.0,0.0,0.0,-0.2463,0.0,0.0,0.0,0.0,0.0,0.0,0.0,0.0,0.0,0.0,0.0,0.0,0.0,0.0,0.0,0.0,0.0,0.0,0.0,0.0,0.0,0.0,0.0,0.0,0.0,0.0,0.0,0.0,0.0,0.0,0.0,0.0,0.0,0.0,0.0,0.0,0.0,0.0,0.0,0.0,0.0,0.4614,0.5181,0.5683,0.6135,0.6307,0.6351,0.6212,0.6049,0.5742,0.523,0.4658,0.0,0.0,0.0,0.0,0.0,0.0,0.0,0.0,0.0,0.0,0.0,0.0,0.0,0.0,0.0,0.0,0.0,0.0,0.0,0.0,0.0,0.0,0.0,0.0,0.0,0.0,0.0,0.0,0.0,0.0,0.0,0.0,0.0,0.0,0.0,0.0,0.0,0.0,0.0,0.0,0.0,0.0,0.0,0.0,0.0,0.0,0.0,0.0,0.0,0.0,0.0,0.0,0.0,0.0,0.0,0.0,0.0,0.0,0.0,0.0,-0.2632,0.0,0.0,0.0,0.0,0.0,0.0,0.0,0.0,0.0,0.0,0.0,0.0,0.0,0.0,0.0,0.0,0.0,0.0,0.0,0.0,0.0,0.0,0.0,0.0,0.0,0.0,0.0,0.0,0.0,0.0,0.0,0.0,0.0,0.0,0.0,0.0,0.0,0.0,0.0,0.0,0.4691,0.5296,0.5764,0.6112,0.6311,0.6373,0.631,0.6197,0.5938,0.5478,0.5018,0.0,0.0,0.0,0.0,0.0,0.0,0.0,0.0,0.0,0.0,0.0,0.0,0.0,0.0,0.0,0.0,0.0,0.0,0.0,0.0,0.0,0.0,0.0,0.0,0.0,0.0,0.0,0.0,0.0,0.0,0.0,0.0,0.0,0.0,0.0,0.0,0.0,0.0,0.0,0.0,0.0,0.0,0.0,0.0,0.0,0.0,0.0,0.0,0.0,0.0,0.0,0.0,0.0,-0.4137,-0.4052,-0.4204,-0.3808,-0.3679,-0.3704,-0.3366,-0.3222,-0.3164,-0.2926,0.0,0.0,0.0,0.0,0.0,0.0,0.0,0.0,0.0,0.0,0.0,0.0,0.0,0.0,0.0,0.0,0.0,0.0,0.0,0.0,0.0,0.0,0.0,0.0,0.0992,0.0983,0.0,0.0,0.0,0.0,0.0,0.0,0.0,0.0,0.0,0.0,0.0,0.0,0.4817,0.5462,0.5913,0.6078,0.6266,0.6386,0.6398,0.6374,0.6165,0.5734,0.5486,0.5106,0.0,0.0,0.0,0.0,0.0,0.0,0.0,0.0,0.0,0.0,0.0,0.0,0.0,0.0,0.0,0.0,0.0,0.0,0.0,0.0,0.0,0.0,0.0,0.0,0.0,0.0,0.0,0.0,0.0,0.0,0.0,0.0,-0.6083,-0.6829,0.0,0.0,0.0,0.0,0.0,0.0,0.0,0.0,0.0,0.0,0.0,0.0,0.0,-0.6383,-0.5783,-0.56,-0.5329,-0.5001,-0.4718,-0.4476,-0.428,-0.4215,-0.4202,-0.4206,-0.4148,0.0,-0.3522,-0.337,0.0,0.0,0.0,0.0,0.0,0.0,0.0,0.0,0.0,0.0,0.0,0.0,0.0,0.0,0.0,0.0,0.0,0.0,0.0,0.0,0.0,0.0,0.1167,0.1153,0.1163,0.1149,0.0,0.0957,0.0901,0.0927,0.1116,0.0,0.0,0.0,0.0,0.0,0.0,0.0,0.4933,0.5412,0.5764,0.6072,0.6218,0.6329,0.6386,0.6246,0.6132,0.6122,0.5766,0.5517,0.5427,0.4962,0.0,0.0,0.0,0.0,0.0,0.0,0.0,0.0,0.0,0.0,0.0,0.0,0.0,0.0,0.0,0.0,0.0,0.0,0.0,0.0,0.0,0.0,0.0,0.0,0.0,0.0,0.0,0.0,0.0,-0.62,-0.6961,-0.7429,-0.753,-0.7483,0.0,0.0,0.0,0.0,0.0,0.0,0.0,0.0,0.0,-0.7843,-0.7707,-0.7126,-0.609,-0.5791,-0.5552,-0.537,-0.512,-0.4931,-0.4864,-0.4673,-0.4578,-0.4574,-0.4549,-0.4418,-0.4184,-0.3822,-0.3636,-0.3524,0.0,0.0,0.0,0.0,-0.332,-0.3294,-0.3567,-0.3606,0.0,-0.3489,0.0,0.0,0.0,0.0,0.0,0.0,0.0,0.0,0.0,0.0,0.0,0.1259,0.1247,0.1256,0.1213,0.1171,0.1091,0.0,0.1049,0.1074,0.0889,0.0,0.0,0.0,0.0,0.3722,0.4648,0.5479,0.6047,0.6189,0.6368,0.6483,0.652,0.6367,0.6272,0.631,0.6066,0.5879,0.5774,0.5441,0.5092,0.0,0.0,0.0,0.0,0.0,0.0,0.0,0.0,0.0,0.0,0.0,0.0,0.0,0.0,0.0,0.0,0.0,0.0,0.0,0.0,0.0,0.0,0.0,0.0,0.0,0.0,0.0,0.0,-0.7165,-0.7798,-0.8118,-0.8398,-0.8452,0.0,0.0,0.0,0.0,0.0,0.0,-0.9809,-1.0102,-0.9888,-0.9073,-0.8683,-0.7916,-0.6655,-0.6154,-0.5882,-0.5807,-0.5603,-0.5495,-0.5468,-0.5158,-0.5006,-0.5001,-0.4864,-0.481,-0.4769,-0.4251,-0.4034,-0.4014,-0.3789,-0.3703,-0.3724,-0.3899,-0.3891,-0.3851,-0.414,-0.4148,-0.4026,-0.3977,0.0,-0.372,-0.3475,0.0,0.0,0.0,0.0,0.0096,0.0377,0.0912,0.1343,0.1352,0.135,0.1351,0.1322,0.1331,0.1279,0.0,0.1061,0.1039,0.0992,0.0,0.0,0.0,0.0,0.3368,0.4142,0.5024,0.5675,0.5939,0.6096,0.6284,0.6509,0.647,0.6431,0.6397,0.6359,0.6237,0.6034,0.5848,0.5618,0.5309,0.0,0.0,0.0,0.0,0.0,0.0,0.0,0.0,0.0,0.0,0.0,0.0,0.0,0.0,0.0,0.0,0.0,0.0,0.0,0.0,0.0,0.0,0.0,0.0,0.0,0.0,0.0,0.0,0.0,-0.9077,-0.9374,0.0,0.0,0.0,0.0,-0.9758,-0.9822,-1.0338,-1.151,-1.137,-1.1091,-1.079,-0.9836,-0.8855,-0.7833,-0.7099,-0.6616,-0.6348,-0.6348,-0.6221,-0.5968,-0.5673,-0.5563,-0.5541,-0.522,-0.5088,-0.5051,-0.4574,-0.4383,-0.4375,-0.43,-0.4259,-0.4271,-0.4342,-0.4375,-0.4375,-0.4391,-0.4391,-0.4383,-0.4379,-0.4283,-0.4178,-0.4218,-0.3553,0.0,0.0,-0.0774,0.0065,0.1157,0.1468,0.1501,0.1484,0.1494,0.1466,0.1413,0.1406,0.1379,0.0,0.1237,0.1194,0.1188,0.0,0.1344,0.2064,0.2221,0.2574,0.344,0.3599,0.3996,0.496,0.5074,0.5427,0.6247,0.6493,0.6535,0.6417,0.6574,0.6587,0.6383,0.6245,0.6065,0.5871,0.5341,0.0,0.0,0.0,0.0,0.0,0.0,0.0,0.0,0.0,0.0,0.0,0.0,0.0,0.0,0.0,0.0,0.0,0.0,0.0,0.0,0.0,0.0,0.0,0.0,0.0,0.0,0.0,0.0,-1.0293,-1.0852,0.0,-1.0832,-1.0971,-1.1143,-1.1295,-1.1435,-1.1908,-1.2802,-1.277,-1.2486,-1.2016,-1.1522,-1.0762,-0.9717,-0.93,-0.9077,-0.8958,-0.8152,-0.7708,-0.7567,-0.6666,-0.6168,-0.6041,-0.5932,-0.5809,-0.5677,-0.55,-0.5186,-0.4765,-0.4618,-0.4561,-0.4565,-0.4574,-0.4586,-0.4594,-0.4651,-0.4635,-0.4586,-0.4586,-0.4528,-0.4457,-0.449,-0.4093,-0.3522,-0.2995,-0.226,-0.1365,-0.0258,0.0377,0.0851,0.138,0.1494,0.1483,0.1472,0.1461,0.1463,0.1433,0.1342,0.1267,0.1267,0.1209,0.1251,0.151,0.2031,0.2508,0.2816,0.3337,0.4021,0.491,0.5002,0.541,0.6402,0.6367,0.6309,0.6404,0.626,0.6148,0.6078,0.6155,0.6109,0.5903,0.5714,0.5293,0.0,0.0,0.0,0.0,0.0,0.0,0.0,0.0,0.0,0.0,0.0,0.0,0.0,0.0,0.0,0.0,0.0,0.0,0.0,0.0,0.0,0.0,0.0,0.0,0.0,-1.0076,-1.0949,-1.1413,-1.205,-1.2363,-1.2188,-1.2416,-1.2613,-1.2665,-1.2802,-1.3143,-1.3803,-1.3836,-1.3661,-1.3259,-1.2795,-1.2195,-1.1368,-1.095,-1.0747,-1.0718,-0.9425,-0.8816,-0.8758,-0.7397,-0.6705,-0.6568,-0.6454,-0.6321,-0.6192,-0.6154,-0.5881,-0.5456,-0.5163,-0.4984,-0.4937,-0.4937,-0.4937,-0.4941,-0.4939,-0.487,-0.4798,-0.4798,-0.4782,-0.4732,-0.4732,-0.4586,-0.432,-0.3791,-0.3212,-0.2497,-0.1277,-0.0393,0.0319,0.0974,0.1331,0.1542,0.1542,0.151,0.1496,0.15,0.1415,0.1337,0.1328,0.1277,0.1232,0.1231,0.1734,0.2097,0.2105,0.2598,0.3272,0.4106,0.4432,0.4986,0.5983,0.6184,0.628,0.6298,0.6196,0.6067,0.5912,0.614,0.6185,0.6005,0.6005,0.5724,0.5165,0.0,0.0,0.0,0.0,0.0,0.0,0.0,0.0,0.0,0.0,0.0,0.0,0.0,0.0,0.0,0.0,0.0,0.0,0.0,0.0,0.0,0.0,0.0,-1.0387,-1.1165,-1.193,-1.2391,-1.2877,-1.3157,-1.3157,-1.3383,-1.362,-1.3809,-1.3831,-1.4035,-1.4508,-1.4529,-1.4525,-1.4533,-1.365,-1.305,-1.2793,-1.196,-1.1528,-1.1491,-1.0106,-0.9468,-0.941,-0.7839,-0.711,-0.711,-0.6759,-0.6642,-0.6633,-0.6498,-0.6427,-0.6374,-0.5891,-0.5598,-0.5433,-0.5401,-0.5401,-0.5361,-0.5244,-0.5124,-0.5007,-0.5007,-0.5007,-0.5007,-0.5007,-0.5039,-0.4896,-0.3831,-0.3539,-0.3207,-0.1745,-0.0778,-0.0077,0.0304,0.0997,0.1573,0.1598,0.155,0.1504,0.1504,0.1457,0.1408,0.1399,0.1347,0.1307,0.1307,0.1307,0.0,0.1306,0.1306,0.1628,0.2503,0.3325,0.4134,0.494,0.5977,0.6454,0.6122,0.6401,0.6367,0.5909,0.6197,0.6324,0.6193,0.6189,0.6082,0.5889,0.0,0.0,0.0,0.0,0.0,0.0,0.0,0.0,0.0,0.0,0.0,0.0,0.0,0.0,0.0,0.0,0.0,0.0,0.0,0.0,0.0,-1.1608,-1.2193,-1.1684,-1.2406,-1.3168,-1.3653,-1.4116,-1.4423,-1.4423,-1.4488,-1.4552,-1.4589,-1.4589,-1.4729,-1.4974,-1.4995,-1.5177,-1.5585,-1.5089,-1.4871,-1.4963,-1.4507,-1.4186,-1.3981,-1.1974,-1.0906,-1.0696,-0.8636,-0.7635,-0.753,-0.7441,-0.7335,-0.7251,-0.7219,-0.7087,-0.6854,-0.6222,-0.5968,-0.5877,-0.5638,-0.5397,-0.5181,-0.5126,-0.513,-0.5142,-0.5142,-0.5142,-0.5142,-0.5142,-0.5114,-0.5002,-0.4521,-0.4362,-0.409,-0.2909,-0.2271,-0.1577,-0.0284,0.0359,0.0839,0.1458,0.1598,0.1561,0.1564,0.157,0.1541,0.1487,0.1412,0.1378,0.1378,0.1378,0.0,0.1309,0.1345,0.1686,0.2519,0.3406,0.424,0.4943,0.5846,0.6275,0.6038,0.5932,0.5863,0.5818,0.5831,0.5918,0.6118,0.5881,0.5783,0.0,0.0,0.0,0.0,0.0,0.0,0.0,0.0,0.0,0.0,0.0,0.0,0.0,0.0,0.0,0.0,0.0,0.0,0.0,0.0,0.0,0.0,-1.2997,-1.3651,-1.3608,-1.38,-1.4137,-1.4719,-1.502,-1.5257,-1.5461,-1.5483,-1.5483,-1.5483,-1.5483,-1.5548,-1.5658,-1.5669,-1.5787,-1.6127,-1.5954,-1.5895,-1.5991,-1.5846,-1.5711,-1.5525,-1.3522,-1.2277,-1.1648,-0.9562,-0.834,0.0,-0.7796,-0.7731,-0.766,-0.7616,-0.7506,0.0,0.0,0.0,0.0,0.0,-0.557,-0.5381,-0.5277,-0.5203,-0.5188,-0.5188,-0.5188,-0.5188,-0.5188,-0.5207,-0.5195,-0.5033,-0.5002,-0.4804,-0.4014,-0.3415,-0.2701,-0.1446,-0.0497,0.0313,0.0923,0.1354,0.1626,0.1596,0.1605,0.0,0.1548,0.1491,0.145,0.145,0.1416,0.1381,0.1343,0.1377,0.1572,0.2048,0.2892,0.3728,0.451,0.5314,0.0,0.0,0.0,0.5936,0.6004,0.5881,0.0,0.0,0.0,0.0,0.0,0.0,0.0,0.0,0.5996,0.6016,0.0,0.0,0.0,0.0,0.0,0.0,0.0,0.0,0.0,0.0,0.0,0.0,0.0,0.0,0.0,0.0,-1.4228,-1.4931,-1.5765,-1.5262,-1.5023,-1.5601,-1.5677,-1.5849,-1.628,-1.6312,-1.6312,-1.6312,-1.6312,-1.6312,-1.6312,0.0,0.0,0.0,0.0,-1.6366,-1.6387,-1.6387,-1.6283,-1.6106,-1.4514,-1.3178,-1.2012,-1.0246,-0.8943,-0.8099,-0.7979,-0.7924,-0.7913,-0.7769,-0.7714,-0.7646,-0.7159,-0.6761,-0.6427,-0.6069,-0.5893,-0.5781,-0.5521,0.0,0.0,-0.5232,-0.5232,-0.5232,-0.5232,-0.5316,-0.5409,-0.5409,-0.5409,-0.5306,-0.4951,-0.4296,-0.3567,-0.2864,-0.144,-0.0159,0.0183,0.1014,0.1684,0.1628,0.16,0.1605,0.1602,0.1549,0.1509,0.1509,0.144,0.1421,0.1418,0.1418,0.1406,0.1399,0.0,0.0,0.3941,0.4648,0.5416,0.6302,0.6347,0.633,0.6301,0.6199,0.628,0.6585,0.6712,0.6874,0.707,0.7196,0.7329,0.7432,0.6437,0.6187,0.0,0.0,0.0,0.0,0.0,0.0,0.0,0.0,0.0,0.0,0.0,0.0,0.0,0.0,0.0,-1.4965,-1.5707,-1.6366,-1.6983,-1.6899,-1.66,-1.6223,-1.6141,-1.6215,-1.627,-1.6312,-1.6312,-1.6312,-1.6312,-1.6312,-1.6312,-1.6312,-1.6398,-1.6624,-1.6624,-1.6689,-1.6872,-1.6872,-1.62,-1.4903,0.0,0.0,-1.0573,-0.9126,-0.8357,-0.8161,-0.8104,-0.805,-0.8039,-0.7919,-0.7785,-0.7687,-0.7453,-0.7219,-0.6942,-0.6751,-0.637,-0.593,-0.5766,-0.556,-0.5357,-0.5357,-0.5357,-0.5357,-0.5357,-0.5369,0.0,-0.5409,-0.5409,-0.5377,-0.5301,-0.4964,-0.4439,-0.3597,-0.2252,-0.0945,-0.0186,0.0874,0.1688,0.1685,0.1674,0.1663,0.1613,0.1533,0.1494,0.1494,0.1488,0.1476,0.1475,0.1472,0.146,0.1408,0.2272,0.3178,0.4015,0.4884,0.5756,0.6566,0.6614,0.6538,0.6304,0.6373,0.6454,0.6521,0.6556,0.6688,0.695,0.6956,0.7046,0.7176,0.7,0.7062,0.0,0.0,0.0,0.0,0.0,0.0,0.0,0.0,0.0,0.0,0.0,-1.3157,-1.3954,0.0,-1.5559,-1.6356,-1.693,-1.7363,-1.7744,-1.7777,-1.7516,-1.6829,-1.6766,-1.6716,-1.6646,-1.6657,-1.6657,-1.6657,-1.6657,-1.6657,-1.6657,-1.6657,-1.671,-1.6861,-1.6861,-1.6883,-1.7001,-1.7001,-1.6227,-1.4729,-1.3911,-1.2434,-1.0415,-0.9509,-0.8807,-0.8285,-0.8198,-0.8144,-0.8133,-0.8044,-0.7924,-0.778,-0.772,-0.7533,-0.7275,-0.7072,-0.682,-0.6522,-0.6269,-0.5998,-0.5737,-0.5718,-0.5588,-0.5439,-0.5422,-0.5409,-0.5409,-0.5409,-0.5409,-0.5409,-0.5409,-0.527,-0.4836,-0.3628,-0.246,-0.1265,-0.0108,0.0998,0.1745,0.1715,0.171,0.17,0.1644,0.1614,0.1584,0.1553,0.1512,0.1496,0.1505,0.1504,0.1491,0.1461,0.189,0.2751,0.408,0.5421,0.6348,0.6688,0.6702,0.6634,0.6505,0.6573,0.6607,0.6607,0.6661,0.6789,0.6991,0.7093,0.7265,0.7452,0.7492,0.7491,0.0,0.0,0.0,0.0,0.0,0.0,0.0,-1.1174,-1.211,-1.2129,-1.3363,-1.4727,-1.5644,-1.6247,-1.6839,-1.7527,-1.7895,-1.8142,-1.8329,-1.8368,-1.8147,-1.7546,-1.7356,-1.7212,-1.712,-1.7034,-1.7001,-1.7001,-1.7001,-1.7001,-1.7001,-1.7001,-1.7001,-1.7001,-1.7001,-1.7001,-1.7001,-1.7001,-1.6246,-1.4814,-1.4315,-1.2873,-1.0565,-0.9998,-0.9267,-0.8443,-0.8291,-0.8226,-0.8193,-0.8137,-0.8028,-0.7935,-0.7913,-0.7752,-0.7554,-0.7293,-0.7194,-0.7106,-0.6793,-0.6467,-0.619,-0.6138,-0.5939,-0.5688,-0.5547,-0.5518,-0.5486,-0.5414,-0.5409,-0.5409,-0.5409,-0.5409,-0.5015,-0.3558,-0.2492,-0.1422,0.0028,0.1098,0.1776,0.1719,0.1712,0.1704,0.1702,0.1696,0.1675,0.1614,0.156,0.1518,0.1511,0.1511,0.1523,0.1493,0.149,0.2285,0.4191,0.5808,0.6762,0.6864,0.6878,0.6878,0.6878,0.6878,0.6878,0.6878,0.6972,0.7107,0.7227,0.7394,0.7577,0.7814,0.7817,0.7726,-1.0962,-1.0867,-1.0773,-1.0677,-1.1532,-1.2329,0.0,-1.327,-1.4334,-1.4332,-1.5429,-1.6501,-1.6851,-1.7375,-1.7835,-1.8143,-1.842,-1.8698,-1.8956,-1.9004,-1.8876,-1.8492,-1.7882,-1.7475,-1.7464,-1.7174,-1.7001,-1.7001,-1.7001,-1.7001,-1.7001,-1.7001,-1.7001,-1.7001,-1.7001,-1.7001,-1.7001,-1.7001,-1.6148,-1.4446,-1.3456,-1.201,-1.0207,-0.9205,-0.8701,-0.8562,-0.8448,-0.8302,-0.8193,-0.8137,-0.8077,-0.8055,-0.7946,-0.7886,-0.7848,-0.769,-0.7468,-0.7244,-0.7111,-0.6813,-0.655,-0.654,-0.6506,-0.64,-0.604,-0.5928,-0.5853,-0.5486,-0.5409,-0.5409,-0.5409,-0.5409,-0.5098,-0.3835,-0.2658,-0.1456,-0.0224,0.0978,0.1808,0.1778,0.1799,0.1763,0.1704,0.17,0.168,0.1621,0.1584,0.1596,0.1594,0.1591,0.1554,0.15,0.1498,0.2323,0.4391,0.5504,0.6502,0.7432,0.7502,0.7502,0.7502,0.7502,0.7502,0.7502,0.7516,0.7597,0.7716,0.7753,0.778,0.7814,0.7925,0.7973,-1.176,-1.2147,-1.2556,-1.2788,-1.359,-1.4178,-1.363,-1.4725,-1.5781,-1.5472,-1.6455,-1.7544,-1.7937,-1.8191,-1.8463,-1.8741,-1.8874,-1.8983,-1.9092,-1.9104,-1.8992,-1.8677,-1.8349,-1.796,-1.7529,-1.7368,-1.7206,-1.7001,-1.7141,-1.7227,-1.7227,-1.7346,-1.7421,-1.7421,-1.6548,-1.6072,-1.6072,-1.5148,-1.3892,-1.2363,-1.1832,-1.0763,-0.925,-0.8817,-0.859,-0.8584,-0.8535,-0.8448,-0.8307,-0.8285,-0.8225,-0.8149,-0.8055,-0.8006,-0.7995,-0.7875,-0.7741,-0.7639,-0.7586,-0.7335,-0.7055,-0.702,-0.6882,-0.6626,-0.6201,-0.6058,-0.5991,-0.5631,-0.5496,-0.5455,-0.5455,-0.5418,-0.4931,-0.2994,-0.2155,-0.1288,0.0645,0.143,0.1791,0.1807,0.1804,0.1794,0.1763,0.1758,0.1743,0.1674,0.1654,0.1632,0.1602,0.1598,0.1585,0.1555,0.204,0.2975,0.4466,0.5459,0.6449,0.7527,0.7597,0.7597,0.7597,0.7597,0.7597,0.7597,0.7597,0.7672,0.7814,0.7878,0.7966,0.8104,0.8228,0.8296,-1.2613,-1.3275,-1.4087,-1.4606,-1.5342,-1.583,-1.5381,-1.6196,-1.6963,-1.6731,-1.739,-1.8161,-1.8601,-1.8686,-1.8746,-1.8971,-1.9116,-1.9189,-1.9116,-1.9104,-1.9007,-1.8722,-1.8605,-1.8288,-1.7739,-1.7592,-1.7433,-1.7261,-1.7336,-1.741,-1.7464,-1.7626,-1.7689,-1.7689,-1.6519,-1.574,-1.5391,-1.4162,-1.2811,-1.1362,-1.0974,-1.0203,-0.9068,-0.8767,-0.859,-0.859,-0.859,-0.8541,-0.8459,-0.8432,-0.8334,-0.8242,-0.8149,-0.8137,-0.8121,-0.7995,-0.793,-0.7903,-0.7903,-0.775,-0.7525,-0.7472,-0.7291,-0.7035,-0.6571,-0.6362,-0.621,-0.5827,-0.5627,-0.5516,-0.5516,-0.548,-0.482,-0.2395,-0.1825,-0.1148,0.129,0.1795,0.1795,0.1795,0.1795,0.1789,0.1793,0.179,0.1779,0.1749,0.1725,0.1699,0.1635,0.1622,0.1609,0.1612,0.2198,0.305,0.4129,0.5111,0.6122,0.7193,0.7552,0.7719,0.7719,0.7719,0.7719,0.7719,0.7767,0.7834,0.7936,0.806,0.8221,0.8355,0.8457,0.8532,-1.3523,-1.4232,-1.5185,-1.5716,-1.6453,-1.7177,-1.7696,-1.7829,-1.8028,-1.8498,-1.8456,-1.836,-1.8638,-1.8686,-1.8686,-1.8729,-1.9152,-1.9394,-1.914,-1.9104,-1.9007,-1.8722,-1.8469,-1.8254,-1.8191,-1.7769,-1.7596,-1.7862,-1.7565,-1.7475,-1.7701,-1.7712,-1.7689,-1.7689,-1.7328,-1.6563,-1.5425,-1.5016,-1.4062,-1.254,-1.1578,-1.0817,-1.0312,-0.9141,-0.859,-0.859,-0.859,-0.8584,-0.8573,-0.8465,-0.8383,-0.8367,-0.8248,-0.8199,-0.8183,-0.8126,-0.8006,-0.7903,-0.7903,-0.7903,-0.7872,-0.7897,-0.7867,-0.7784,-0.7395,-0.7035,-0.6687,-0.6201,-0.5848,-0.561,-0.561,-0.5545,-0.49,-0.2465,-0.1841,-0.1148,0.129,0.1795,0.1795,0.1795,0.1795,0.1794,0.1794,0.1794,0.1811,0.1808,0.1802,0.178,0.1695,0.1635,0.1592,0.159,0.1614,0.2066,0.3143,0.4218,0.5293,0.6376,0.7403,0.7975,0.7975,0.7975,0.7975,0.7975,0.8174,0.8281,0.8281,0.8423,0.8498,0.8498,0.8505,0.856,-1.4691,-1.5342,-1.6081,-1.6767,-1.7418,-1.7986,-1.8367,-1.8572,-1.8705,-1.8717,-1.8481,-1.8263,-1.8197,-1.8173,-1.8234,-1.8396,-1.8899,-1.9273,-1.9358,-1.9527,-1.9418,-1.8758,-1.8947,-1.8871,-1.8302,-1.8085,-1.7864,-1.764,-1.7829,-1.7849,-1.7712,-1.799,-1.8162,-1.8162,-1.7111,-1.6196,-1.5558,-1.3579,-1.2166,-1.1399,-1.0193,-0.9538,-0.9307,-0.8929,-0.8699,-0.859,-0.859,-0.859,-0.8584,-0.8546,-0.853,-0.8519,-0.8372,-0.8323,-0.8307,-0.822,-0.8149,-0.8089,-0.7957,-0.7903,-0.7903,-0.7903,-0.7903,-0.7836,-0.7459,-0.7119,-0.678,-0.6405,-0.6022,-0.5733,-0.5733,-0.5638,-0.4955,-0.2478,-0.1873,-0.1195,0.1283,0.1809,0.1795,0.1795,0.1795,0.1795,0.1795,0.1795,0.1791,0.181,0.1772,0.1739,0.1693,0.1691,0.1673,0.1673,0.1629,0.2044,0.3098,0.3525,0.4501,0.6287,0.6736,0.7328,0.8162,0.8194,0.8235,0.833,0.841,0.8437,0.8437,0.856,0.8635,0.8635,0.871,0.8784,-1.5892,-1.6573,-1.7204,-1.7762,-1.8251,-1.8613,-1.8782,-1.8911,-1.8886,-1.8601,-1.8179,-1.7781,-1.7532,-1.7078,-1.7032,-1.7865,-1.8206,-1.8632,-1.9378,-1.966,-1.9343,-1.8212,-1.878,-1.8628,-1.7148,-1.747,-1.7566,-1.7109,-1.6819,-1.656,-1.6289,-1.6599,-1.6795,-1.6795,-1.5726,-1.484,-1.4192,-1.2243,-1.0925,-1.025,-0.9385,-0.8941,-0.8899,-0.8856,-0.8769,-0.8683,-0.8683,-0.8628,-0.859,-0.859,-0.859,-0.8579,-0.8508,-0.8481,-0.8465,-0.8313,-0.8269,-0.8237,-0.805,-0.7968,-0.7957,-0.7913,-0.7903,-0.7872,-0.7658,-0.7357,-0.7021,-0.6683,-0.6298,-0.5978,-0.5861,-0.5761,-0.5038,-0.252,-0.1904,-0.1216,0.1305,0.1804,0.181,0.181,0.1802,0.1795,0.1795,0.1795,0.1795,0.1795,0.1761,0.1733,0.1749,0.1721,0.1703,0.1703,0.166,0.1904,0.2596,0.3007,0.4003,0.5822,0.6307,0.7061,0.8317,0.8369,0.8417,0.8505,0.8533,0.856,0.8567,0.8716,0.8764,0.877,0.8947,0.9015,-1.7107,-1.7828,-1.8452,-1.8671,-1.8923,-1.9104,-1.9092,-1.8886,-1.862,-1.8287,-1.7587,-1.6948,-1.667,-1.5604,-1.5361,-1.7164,-1.7246,-1.7628,-1.9182,-1.9376,-1.8757,-1.7206,-1.8001,-1.7657,-1.5089,-1.6094,-1.6707,-1.6168,0.0,-1.3872,-1.3735,-1.3818,-1.3915,-1.3915,-1.3523,-1.2802,-1.1693,-1.124,-1.0419,-0.9302,-0.9157,-0.9103,-0.9092,-0.8979,-0.8859,-0.8814,-0.8808,-0.8738,-0.8595,-0.859,-0.859,-0.859,-0.859,-0.859,-0.8573,-0.8465,-0.8394,-0.8394,-0.8186,-0.8099,-0.8072,-0.7952,-0.7913,-0.7908,-0.7903,-0.7658,-0.7327,-0.699,-0.6653,-0.6311,-0.5978,-0.5855,-0.5151,-0.2618,-0.1964,-0.1207,0.1356,0.1864,0.1814,0.1814,0.179,0.1797,0.1797,0.1795,0.1795,0.1795,0.1795,0.1812,0.1811,0.1753,0.1707,0.1707,0.1705,0.1704,0.1704,0.2635,0.3748,0.5016,0.6047,0.7185,0.8466,0.8519,0.8526,0.8532,0.8648,0.8723,0.8723,0.8845,0.8919,0.8926,0.9124,0.9221,-1.7811,-1.8354,-1.869,-1.8923,-1.9056,-1.9056,-1.8862,-1.8577,-1.8203,-1.7539,-1.6754,-1.6054,-1.5596,-1.5553,-1.5888,-1.6775,-1.6891,-1.7163,-1.7962,-1.7452,-1.7104,-1.7417,-1.7883,-1.7739,-1.6678,-1.6162,-1.5241,-1.3739,-1.4028,-1.4208,-1.4014,-1.3959,-1.3915,-1.3915,-1.3808,-1.3452,-1.2873,-1.1635,-1.0419,-0.9302,-0.9275,-0.9179,-0.9098,-0.9065,-0.8984,-0.8865,-0.8807,-0.8787,-0.8748,-0.8628,-0.859,-0.859,-0.859,-0.859,-0.8584,-0.8557,-0.8546,-0.8524,-0.8378,-0.8263,-0.8166,-0.8077,-0.8039,-0.8023,-0.793,-0.7658,-0.7327,-0.699,-0.6653,-0.6311,-0.5978,-0.59,-0.5208,-0.263,-0.1996,-0.1256,0.1349,0.1895,0.1874,0.1874,0.1821,0.18,0.18,0.181,0.1795,0.1795,0.1795,0.1793,0.1812,0.1785,0.1765,0.1765,0.1718,0.1704,0.1704,0.1944,0.2952,0.4964,0.536,0.6457,0.8568,0.8655,0.8703,0.8791,0.8831,0.8852,0.8852,0.9028,0.9124,0.9131,0.9281,0.9349,-1.8933,-1.9279,-1.941,-1.9306,-1.9189,-1.8947,-1.833,-1.7865,-1.7298,-1.626,-1.5499,-1.4859,-1.4304,-1.4285,-1.4573,-1.5304,-1.5536,-1.5858,-1.66,-1.624,-1.5914,-1.5883,-1.6545,-1.6387,-1.4828,-1.4695,-1.4009,-1.2322,-1.243,-1.243,-1.2176,-1.1974,-1.1879,-1.1879,-1.1879,-1.1772,-1.1556,-1.0701,-0.9951,-0.9302,-0.9302,-0.9269,-0.9174,-0.9174,-0.9109,-0.8995,0.0,-0.8899,-0.8845,-0.8774,-0.8715,-0.8699,-0.8699,-0.8667,-0.859,-0.859,-0.859,-0.8579,-0.8513,-0.8448,-0.8361,-0.8187,-0.8133,-0.8111,-0.8017,-0.7861,-0.7603,-0.7066,-0.6775,-0.6499,-0.6039,-0.5886,-0.5237,-0.2616,-0.1987,-0.1277,0.1371,0.1928,0.1902,0.1888,0.1872,0.1832,0.1832,0.1846,0.1835,0.1835,0.1824,0.1786,0.1786,0.1789,0.1797,0.1797,0.1755,0.1744,0.1744,0.1744,0.2749,0.5079,0.5241,0.6298,0.8696,0.8784,0.8852,0.9028,0.9035,0.9062,0.913,0.924,0.9281,0.9288,0.9437,0.9483,-2.0131,-2.0311,-2.0273,-1.9695,-1.9306,-1.8778,-1.7702,-1.6972,-1.6175,-1.4846,-1.4147,-1.3616,-1.3183,-1.2814,-1.2837,-1.3704,-1.3965,-1.4333,-1.5097,-1.5181,-1.4797,-1.3854,-1.4754,-1.4492,-1.2009,-1.2966,-1.3126,-1.1741,-1.0847,-1.0202,-0.983,-0.9534,-0.9338,-0.9302,-0.9302,-0.9302,-0.9302,-0.9302,-0.9302,-0.9302,-0.9302,-0.9302,-0.9302,-0.9302,-0.9253,-0.9119,-0.9109,0.0,-0.8941,-0.8924,-0.8854,-0.883,-0.883,-0.8731,-0.8638,-0.8638,-0.8628,-0.8611,-0.8611,-0.86,-0.8552,-0.8296,-0.8226,-0.8204,-0.8148,-0.811,-0.7963,-0.7212,-0.6962,-0.6794,-0.6148,-0.5802,-0.5022,-0.2585,-0.1878,-0.1047,0.1451,0.1956,0.1899,0.1903,0.1895,0.1892,0.1892,0.1888,0.1885,0.1885,0.1864,0.1817,0.1817,0.1816,0.1797,0.1801,0.1801,0.1802,0.1806,0.1808,0.2848,0.5286,0.5426,0.6489,0.8855,0.8967,0.9055,0.9206,0.9241,0.9274,0.941,0.943,0.9437,0.9444,0.9564,0.9639,-2.065,-2.0613,-2.0307,-1.9989,-1.932,-1.85,-1.7406,-1.6404,-1.539,-1.428,-1.3447,-1.2952,-1.3075,-1.3563,-1.3988,-1.412,-1.4025,-1.3866,-1.3713,-1.2812,-1.2587,-1.3744,-1.4079,-1.4066,-1.369,-1.3777,-1.3269,-1.1855,-1.1368,-1.0904,-1.0389,-1.0011,-0.9627,-0.9302,-0.9302,-0.9302,-0.9302,-0.9302,-0.9302,-0.9302,-0.9302,-0.9302,-0.9302,-0.9302,-0.9291,-0.9269,-0.9141,0.0,-0.906,-0.8957,-0.8903,-0.8887,-0.8887,-0.887,-0.8854,-0.8854,-0.8823,-0.877,-0.877,-0.8705,-0.8562,-0.8432,-0.835,-0.8329,-0.821,-0.8172,-0.8103,-0.7663,-0.7309,-0.6959,-0.6589,-0.5377,-0.3876,-0.237,-0.1139,0.0092,0.1667,0.2003,0.1998,0.1992,0.194,0.1894,0.1894,0.1903,0.1885,0.1885,0.1881,0.1877,0.1877,0.1829,0.1805,0.1801,0.1804,0.1814,0.1868,0.187,0.2947,0.5412,0.5557,0.6686,0.922,0.9306,0.9313,0.9369,0.9369,0.9383,0.941,0.951,0.9571,0.9571,0.972,0.9751,-1.9674,-2.0267,-2.0487,-1.9084,-1.8738,-1.8263,-1.6634,-1.5547,-1.4461,-1.2954,-1.234,-1.2075,-1.2063,-1.2843,-1.3345,-1.3017,-1.2869,-1.2785,-1.2677,-1.1672,-1.1393,-1.2661,-1.2769,-1.2814,-1.303,-1.2896,-1.2583,-1.2012,-1.1804,-1.1373,-1.054,-0.9915,-0.9482,-0.9302,-0.9302,-0.9302,-0.9302,-0.9302,-0.9302,-0.9302,-0.9302,-0.9302,-0.9302,-0.9302,-0.9302,-0.9302,-0.9247,0.0,-0.9184,-0.9125,-0.9065,-0.9011,-0.9011,-0.8973,-0.8919,-0.8919,-0.8881,-0.8867,-0.8867,-0.8785,-0.8705,-0.8622,-0.8557,-0.8486,-0.8334,-0.8296,-0.8221,-0.7831,-0.7424,-0.7068,-0.6755,-0.5736,-0.431,-0.2496,-0.0465,0.1203,0.1852,0.2008,0.2008,0.2008,0.1964,0.1955,0.1955,0.1943,0.1963,0.1963,0.1919,0.191,0.191,0.187,0.1847,0.1862,0.1864,0.187,0.1884,0.1885,0.2972,0.543,0.5605,0.6745,0.9294,0.941,0.9444,0.9496,0.9503,0.9537,0.9612,0.9686,0.9731,0.9812,0.9879,0.9954,-1.8406,-1.9539,-2.0336,-1.8249,-1.7737,-1.7378,-1.5863,-1.4613,-1.3285,-1.159,-1.119,-1.1081,-1.0804,-1.1627,-1.2187,-1.1707,-1.1712,-1.1822,-1.1925,-1.1153,-1.0839,-1.1604,-1.1667,-1.1721,-1.2023,-1.1904,-1.1898,-1.2084,-1.1996,-1.1506,-1.0583,-0.9824,-0.9374,-0.9302,-0.9302,-0.9302,-0.9302,-0.9302,-0.9302,-0.9302,-0.9302,-0.9302,-0.9302,-0.9302,-0.9302,-0.9302,-0.9302,0.0,0.0,-0.9302,-0.9253,-0.9136,-0.9136,-0.9076,-0.8995,-0.8995,-0.8979,-0.8957,-0.8957,-0.8876,-0.8807,-0.8807,-0.8709,-0.8568,-0.8481,-0.8454,-0.8366,-0.8011,-0.7577,-0.7176,-0.6924,-0.607,-0.4689,-0.2252,0.022,0.2024,0.2019,0.1986,0.2015,0.2009,0.2008,0.2008,0.2008,0.2008,0.2008,0.2008,0.1956,0.1911,0.1911,0.1919,0.1936,0.1936,0.1899,0.1898,0.1934,0.1936,0.3002,0.5511,0.5662,0.6813,0.9388,0.9476,0.9551,0.967,0.9677,0.9744,0.9917,0.9917,0.9947,1.0069,1.0069,1.0168,-1.7561,-1.8435,-1.9416,-1.8406,-1.6408,-1.4842,-1.5386,-1.3705,-1.1725,-1.0619,-1.0215,-0.9963,-0.9697,-1.0522,-1.1219,-1.1087,-1.1443,-1.1651,-1.1501,-1.1013,-1.088,-1.1375,-1.1545,-1.1644,-1.18,-1.18,-1.1898,-1.2084,-1.1636,-1.1183,-1.0718,-1.016,-0.9663,-0.9302,-0.9302,-0.9302,-0.9302,-0.9302,-0.9302,-0.9302,-0.9302,-0.9302,-0.9302,-0.9302,-0.9302,-0.9302,-0.9302,0.0,0.0,-0.9302,-0.9296,-0.9291,-0.9291,-0.928,-0.9269,-0.9269,-0.9168,-0.9082,-0.9082,-0.9,-0.8897,-0.8897,-0.8746,-0.8584,-0.8573,-0.8573,-0.8568,-0.8524,-0.7982,-0.7388,-0.7355,-0.585,-0.3635,-0.0932,0.0932,0.208,0.202,0.2015,0.2007,0.2012,0.2008,0.2008,0.2008,0.2008,0.2008,0.2008,0.2005,0.2003,0.2003,0.2001,0.1999,0.1999,0.1944,0.1939,0.1997,0.1999,0.3099,0.5719,0.5872,0.7033,0.966,0.9751,0.9819,0.9974,0.9981,1.0055,1.0236,1.0236,1.0243,1.0256,1.0256,1.0263,-1.5554,-1.6621,-1.7465,-1.5832,-1.4706,-1.3877,-1.3365,-1.2035,-1.0602,-0.9547,-0.9258,-0.9152,-0.9028,-0.9488,-0.9965,-1.0184,-0.9902,-0.9919,-1.0643,-1.0026,-0.9944,-1.1152,-1.1233,-1.1414,-1.2047,-1.1901,-1.1898,-1.2084,-1.177,-1.1354,-1.073,-1.0202,-0.9699,-0.9302,-0.9302,-0.9302,-0.9302,-0.9302,-0.9302,-0.9302,-0.9302,-0.9302,-0.9302,-0.9302,-0.9302,-0.9302,-0.9302,0.0,0.0,-0.9302,-0.9302,-0.9302,-0.9302,-0.9302,-0.9302,-0.9302,-0.9275,-0.9237,-0.9237,-0.9125,-0.9027,-0.9027,-0.8914,-0.8757,-0.872,-0.8677,-0.859,-0.859,-0.8059,-0.7464,-0.7464,-0.5241,-0.2674,-0.137,0.0551,0.2092,0.2081,0.2046,0.2074,0.2063,0.206,0.206,0.206,0.206,0.2055,0.2004,0.2001,0.1996,0.2009,0.2008,0.2008,0.2008,0.1966,0.1963,0.2006,0.2008,0.3156,0.5854,0.6009,0.7251,1.0,1.0093,1.0127,1.0188,1.0188,1.0215,1.0315,1.0315,1.0324,1.0405,1.0405,1.046,-1.3585,-1.4714,-1.5601,-1.3812,-1.2995,-1.246,-1.187,-1.0728,-0.9515,-0.8541,-0.8341,-0.8265,-0.8036,-0.8334,-0.8756,-0.9158,-0.8751,-0.8808,-0.9996,-0.9443,-0.9388,-1.0683,-1.0819,-1.1063,-1.1823,-1.182,-1.1877,-1.1986,-1.1891,-1.1444,-1.0675,-1.0293,-0.9843,-0.9302,-0.9302,-0.9302,-0.9302,-0.9302,-0.9302,-0.9302,-0.9302,-0.9302,-0.9302,-0.9302,-0.9302,-0.9302,-0.9302,0.0,0.0,-0.9302,-0.9302,-0.9302,-0.9302,-0.9302,-0.9302,-0.9302,-0.9302,-0.9302,-0.9302,-0.9253,-0.9147,-0.9147,-0.9071,-0.8957,-0.8905,-0.8769,-0.8644,-0.851,-0.7947,-0.7221,-0.6686,-0.44,-0.2019,-0.1357,0.0493,0.2121,0.2111,0.211,0.2107,0.2098,0.2096,0.2096,0.2096,0.2096,0.2089,0.2035,0.2031,0.2024,0.2037,0.2034,0.2034,0.2034,0.2034,0.203,0.199,0.1989,0.3184,0.5942,0.6135,0.737,1.0181,1.0315,1.0329,1.0376,1.0376,1.0365,1.0412,1.0412,1.046,1.0561,1.0609,1.0711,-1.1901,-1.2841,-1.3995,-1.3054,-1.1301,-1.0156,-1.1321,-1.0055,-0.8406,-0.7667,-0.7499,-0.7277,-0.6474,-0.6968,-0.7641,-0.8041,-0.8397,-0.891,-0.979,-0.9606,-0.9544,-0.9974,-1.0285,-1.0622,-1.0901,-1.1455,-1.1793,-1.1793,-1.1793,0.0,-1.0534,-1.0491,-1.0131,-0.9338,-0.9302,-0.9302,-0.9302,-0.9302,-0.9302,-0.9302,-0.9302,-0.9302,-0.9302,-0.9302,-0.9302,0.0,0.0,0.0,0.0,-0.9302,-0.9302,-0.9302,-0.9302,-0.9302,-0.9302,-0.9302,-0.9302,-0.9302,-0.9302,-0.9302,-0.9302,-0.9302,-0.9226,-0.9098,-0.9098,-0.8959,-0.8701,-0.8326,-0.7636,-0.6581,-0.4803,-0.3255,-0.1845,-0.0369,0.1109,0.2179,0.2116,0.2109,0.2099,0.2102,0.2096,0.2096,0.2096,0.2096,0.2096,0.2096,0.2096,0.2095,0.2095,0.2095,0.2095,0.2095,0.2095,0.2082,0.202,0.1986,0.32,0.6034,0.6202,0.7417,1.0181,1.0315,1.0344,1.0487,1.0487,1.0561,1.0717,1.0717,1.0684,1.0691,1.084,1.0988,-1.0795,-1.1062,-1.1284,-1.0854,-0.9743,-0.8807,-0.885,-0.8124,-0.7296,-0.6783,-0.6679,-0.6602,-0.6338,-0.6512,-0.6889,-0.7519,-0.7706,-0.8048,-0.8843,-0.9127,-0.9499,-1.0127,-1.0921,-1.1409,-1.1374,-1.1543,-1.1651,-1.1651,-1.1651,-1.1335,-1.0527,-1.0491,-1.0131,-0.9338,-0.9302,-0.9302,-0.9302,-0.9302,-0.9302,-0.9302,-0.9302,-0.9302,-0.9302,-0.9302,-0.9302,0.0,0.0,0.0,0.0,-0.9302,-0.9302,-0.9302,-0.9302,-0.9302,-0.9302,-0.9302,-0.9302,-0.9302,-0.9302,-0.9302,-0.9302,-0.9302,-0.928,-0.9253,-0.9253,-0.9049,-0.8509,-0.6841,-0.602,-0.5209,-0.3303,-0.1758,-0.0571,-0.0101,0.1144,0.2185,0.2177,0.2174,0.2171,0.2161,0.216,0.216,0.216,0.216,0.2152,0.2098,0.2095,0.2087,0.2099,0.2096,0.2096,0.2096,0.2096,0.2092,0.2082,0.2081,0.3282,0.6162,0.6329,0.7597,1.0444,1.0582,1.0602,1.0649,1.0649,1.0691,1.084,1.084,1.0928,1.1023,1.1104,1.1179,-0.9858,-0.9946,-0.9818,-0.9585,-0.8897,-0.8165,-0.7655,-0.721,-0.6782,-0.6375,-0.63,-0.63,-0.63,-0.63,-0.647,-0.6967,-0.7199,-0.7502,-0.814,-0.8716,-0.9403,-1.0213,-1.1002,-1.1448,-1.145,-1.1552,-1.1584,-1.1584,-1.1584,-1.1289,-1.0527,-1.0491,-1.0131,-0.9338,-0.9302,-0.9302,-0.9302,-0.9302,-0.9302,-0.9302,-0.9302,-0.9302,-0.9302,-0.9302,-0.9302,0.0,0.0,0.0,0.0,-0.9302,-0.9302,-0.9302,-0.9302,-0.9302,-0.9302,-0.9302,-0.9302,-0.9302,-0.9302,-0.9302,-0.9302,-0.9302,-0.9302,-0.9302,-0.9302,-0.8561,-0.7388,-0.5915,-0.4724,-0.3486,-0.1727,-0.0618,0.017,0.0712,0.1526,0.2203,0.219,0.2189,0.2189,0.2189,0.2189,0.2189,0.2189,0.2189,0.2182,0.2129,0.2127,0.2153,0.2134,0.2131,0.2131,0.2131,0.2131,0.2131,0.2131,0.212,0.3332,0.6217,0.6386,0.7705,1.0585,1.0684,1.0711,1.0772,1.0772,1.0846,1.0995,1.0995,1.1104,1.1281,1.1281,1.137,0.0,-0.9304,-0.9315,-0.9044,-0.8564,-0.8036,-0.7464,-0.7095,0.0,-0.6388,-0.63,-0.6306,-0.6327,-0.632,-0.6381,-0.6552,-0.6904,-0.7337,-0.779,-0.8527,-0.9345,-1.0256,-1.0758,-1.1043,-1.1234,-1.1463,-1.1597,-1.1597,-1.1626,-1.1289,-1.0527,-1.0491,-1.0131,-0.9338,-0.9302,-0.9302,-0.9302,-0.9302,-0.9302,-0.9302,-0.9302,-0.9302,-0.9302,-0.9302,-0.9302,0.0,0.0,0.0,0.0,-0.9302,-0.9302,-0.9302,-0.9302,-0.9302,-0.9302,-0.9302,-0.9302,-0.9302,-0.9302,-0.9302,-0.9302,-0.9302,-0.9302,-0.9302,-0.9266,-0.7639,-0.577,-0.5449,-0.3783,-0.1716,-0.014,0.0245,0.0594,0.1898,0.2203,0.2195,0.2201,0.2195,0.2195,0.2195,0.2195,0.2195,0.2192,0.2192,0.219,0.2189,0.2189,0.2189,0.2189,0.2189,0.2189,0.2189,0.2189,0.2189,0.2189,0.2129,0.3347,0.6227,0.6398,0.7707,1.0598,1.0704,1.0772,1.0928,1.0941,1.105,1.1213,1.1227,1.1302,1.1409,1.1416,1.1497,-0.7561,0.0,-0.8012,-0.7849,-0.743,-0.7,0.0,-0.6648,-0.6539,-0.634,-0.63,-0.6368,-0.658,-0.6525,-0.6682,-0.738,-0.7661,-0.7959,-0.8412,-0.9435,-1.0378,-1.105,-1.1525,-1.1769,-1.1681,-1.1705,-1.1746,-1.1746,-1.1644,-1.1289,-1.0527,-1.0491,-1.0131,-0.9338,-0.9302,-0.9302,-0.9302,-0.9302,-0.9302,-0.9302,-0.9302,-0.9302,-0.9302,-0.9302,-0.9302,0.0,0.0,0.0,-0.9302,-0.9302,-0.9302,-0.9302,-0.9302,-0.9302,-0.9302,-0.9302,-0.9302,-0.9302,-0.9302,-0.9302,-0.9302,-0.9302,-0.9302,-0.923,-0.8946,-0.8054,-0.6693,-0.4574,-0.2968,-0.1314,0.1138,0.1732,0.1787,0.2131,0.2199,0.2198,0.219,0.2189,0.2189,0.2189,0.2189,0.2217,0.2193,0.2189,0.2215,0.2192,0.2189,0.2189,0.2189,0.2189,0.2189,0.2189,0.2189,0.2189,0.2189,0.2182,0.3383,0.6231,0.6398,0.7742,1.0718,1.086,1.0928,1.1145,1.1226,1.1307,1.1341,1.1457,1.1531,1.1565,1.1681,1.1712,-0.6979,-0.7267,-0.7527,-0.7468,-0.7161,-0.6843,-0.6715,-0.6593,-0.647,-0.6327,-0.63,-0.6368,-0.6573,-0.6607,-0.6783,-0.7377,-0.7722,-0.8236,-0.9191,-1.0059,-1.0846,-1.1511,-1.1907,-1.2064,-1.1945,-1.1834,-1.1793,-1.1793,-1.1665,-1.1368,-1.075,-1.0563,-1.0203,-0.959,-0.941,-0.9302,-0.9302,-0.9302,-0.9302,-0.9302,-0.9302,-0.9302,-0.9302,-0.9302,-0.9302,0.0,0.0,0.0,-0.9302,-0.9302,-0.9302,-0.9302,-0.9302,-0.9302,-0.9302,-0.9302,-0.934,-0.9389,-0.9389,-0.9427,-0.9465,-0.9405,-0.9389,-0.9305,-0.8853,-0.767,-0.6032,-0.3851,-0.1628,0.0432,0.1913,0.2261,0.2246,0.2233,0.223,0.2228,0.2213,0.221,0.221,0.221,0.221,0.2205,0.2189,0.2186,0.2215,0.2199,0.2196,0.2196,0.2196,0.2196,0.2196,0.2196,0.2196,0.2196,0.2196,0.2196,0.311,0.5285,0.6125,0.7554,0.9833,1.0633,1.1118,1.1302,1.1416,1.1497,1.1497,1.1543,1.1617,1.1678,1.1759,1.187,-0.6844,-0.7174,-0.7473,-0.7403,-0.7235,-0.7024,-0.6904,-0.6695,-0.6491,-0.6388,-0.6368,-0.6422,-0.6593,-0.6736,-0.6926,-0.7263,-0.7736,-0.8587,-1.005,-1.0548,-1.1063,-1.1773,-1.202,-1.2145,-1.2166,-1.1972,-1.1864,-1.1864,-1.1678,-1.1404,-1.1008,-1.0678,-1.0311,-0.9915,-0.9518,-0.9302,-0.9302,-0.9302,-0.9302,-0.9302,-0.9302,-0.9302,-0.9302,-0.9302,-0.9302,-0.9302,0.0,0.0,-0.9302,-0.9302,-0.9302,-0.9302,-0.9302,-0.9313,-0.9334,-0.9334,-0.941,-0.9514,-0.9514,-0.9622,-0.9693,-0.9546,-0.9514,-0.9387,-0.855,-0.6727,-0.4606,-0.2926,-0.0292,0.2078,0.226,0.2296,0.2291,0.2303,0.2297,0.229,0.2229,0.2224,0.2224,0.2224,0.2224,0.2222,0.2218,0.2217,0.2216,0.2212,0.221,0.221,0.221,0.221,0.221,0.221,0.221,0.221,0.221,0.221,0.2828,0.4247,0.5814,0.7461,0.9133,1.0518,1.1329,1.1423,1.1552,1.1584,1.1584,1.1604,1.1678,1.1793,1.184,1.1972,-0.6805,-0.7162,-0.7329,-0.6999,-0.6923,-0.6897,-0.677,-0.6702,-0.6661,-0.6634,-0.6634,-0.6777,-0.7185,-0.7274,-0.7512,-0.8167,-0.8872,-0.972,-1.0873,-1.1084,-1.141,-1.2128,-1.2244,-1.2305,-1.242,-1.2227,-1.2064,-1.2064,-1.1775,-1.1404,-1.1008,-1.0678,-1.0311,-0.9915,-0.9518,-0.9302,-0.9302,-0.9302,-0.9302,-0.9302,-0.9302,-0.9302,-0.9302,-0.9302,-0.9302,-0.9302,0.0,-0.9302,-0.9302,-0.9302,-0.9302,-0.9302,-0.9302,-0.9367,-0.9459,-0.9459,-0.9536,-0.9682,-0.9682,-0.9693,-0.9703,-0.9687,-0.9682,-0.9259,-0.7057,-0.5213,-0.3377,-0.1014,0.0222,0.1093,0.2041,0.2296,0.2295,0.2291,0.2289,0.2288,0.2284,0.2283,0.2283,0.2283,0.2283,0.2276,0.2288,0.2283,0.2275,0.2214,0.221,0.221,0.221,0.221,0.221,0.221,0.221,0.221,0.221,0.221,0.2885,0.4466,0.589,0.798,1.0892,1.1335,1.1558,1.1586,1.1606,1.1584,1.1584,1.1705,1.1773,1.18,1.2094,1.223,-0.6532,-0.6844,-0.711,-0.6991,-0.7228,-0.7465,-0.7333,-0.7244,-0.719,-0.719,-0.719,-0.7272,-0.7556,-0.7832,-0.8294,-0.9178,-0.9754,-1.0365,-1.1206,-1.1322,-1.1538,-1.221,-1.2291,-1.2345,-1.2488,-1.2275,-1.2098,-1.2098,-1.1789,-1.1404,-1.1008,-1.0678,-1.0311,-0.9915,-0.9518,-0.9302,-0.9302,-0.9302,-0.9302,-0.9302,-0.9302,-0.9302,-0.9302,-0.9302,-0.9302,-0.9302,0.0,-0.9302,-0.9302,-0.9302,-0.9302,-0.9313,-0.9378,-0.9438,-0.9503,-0.9628,-0.9709,-0.9769,-0.9835,-0.9856,-0.9845,-0.978,-0.9758,-0.9288,-0.6766,-0.4866,-0.3093,-0.0604,0.0825,0.1711,0.2233,0.2369,0.2357,0.2357,0.2308,0.2296,0.2296,0.2296,0.2296,0.2296,0.2296,0.2292,0.2316,0.2313,0.2272,0.2259,0.2257,0.2257,0.2257,0.2257,0.2257,0.2257,0.2257,0.2257,0.2257,0.2257,0.329,0.5706,0.7274,0.9114,1.1404,1.1586,1.1584,1.1584,1.1658,1.1698,1.1698,1.1884,1.1999,1.2081,1.2223,1.2291,-0.6464,-0.6715,-0.6999,-0.7181,-0.7547,-0.7871,-0.7957,-0.7828,-0.774,-0.7882,-0.7882,-0.7902,-0.8027,-0.8499,-0.915,-1.0028,-1.0487,-1.09,-1.147,-1.1518,-1.1708,-1.2271,-1.2311,-1.2359,-1.2535,-1.2295,-1.2098,-1.2098,-1.1716,-1.1332,-1.1008,-1.0599,-1.0203,-0.9915,-0.9518,-0.9302,-0.9302,-0.9302,-0.9302,-0.9302,-0.9302,-0.9302,-0.9302,-0.9302,-0.9302,-0.9302,-0.9302,-0.9302,-0.9302,-0.9302,-0.9318,-0.9356,-0.9449,-0.9519,-0.9595,-0.9764,-0.984,-0.9856,-0.9948,-0.998,-0.9964,-0.9872,-0.9533,-0.8664,-0.6218,-0.4261,-0.2398,0.0,0.1527,0.2403,0.239,0.2406,0.2388,0.2388,0.2371,0.2318,0.2318,0.2318,0.2318,0.2318,0.2318,0.2318,0.2318,0.2318,0.2318,0.2318,0.2318,0.2318,0.2318,0.2311,0.2307,0.2307,0.23,0.2296,0.2296,0.266,0.3878,0.6237,0.8232,0.9837,1.1002,1.1404,1.1597,1.1631,1.1739,1.1813,1.1884,1.2077,1.2213,1.2291,1.2325,1.2338,-0.6979,-0.7058,-0.7152,-0.7489,-0.7495,-0.7621,-0.8308,-0.8214,-0.8142,-0.8703,-0.8703,-0.8649,-0.8804,-0.9449,-1.0131,-1.0588,-1.1043,-1.1484,-1.1989,-1.1891,-1.1935,-1.2433,-1.2372,-1.24,-1.2645,-1.2318,-1.2098,-1.2098,-1.1454,-1.1044,-1.1008,-1.0317,-0.9915,-0.9915,-0.9518,-0.9302,-0.9302,-0.9302,-0.9302,-0.9302,-0.9302,-0.9302,-0.9302,-0.9302,-0.9302,-0.9302,-0.9302,-0.9302,-0.9302,-0.9302,-0.9372,-0.9476,-0.9487,-0.9622,-0.9791,-0.9921,-0.997,-0.997,-0.998,-0.998,-0.998,-0.997,-0.8677,-0.6718,-0.4603,-0.2497,-0.0391,0.1723,0.239,0.2495,0.2399,0.2383,0.2382,0.2382,0.2381,0.2379,0.2379,0.2379,0.2379,0.2379,0.2379,0.2379,0.2379,0.2379,0.2379,0.2379,0.2379,0.2379,0.2379,0.2393,0.2375,0.2375,0.2349,0.2296,0.2296,0.3678,0.462,0.4833,0.7657,0.9363,0.9471,1.0851,1.1644,1.178,1.1786,1.1904,1.2084,1.2234,1.2277,1.2291,1.2427,1.2488,-0.6722,-0.6904,-0.7173,-0.7522,-0.7791,-0.8076,-0.852,-0.8825,-0.9102,-0.9544,-0.9659,-0.9707,-0.9761,-1.0073,-1.0507,-1.105,-1.1362,-1.166,-1.205,-1.1932,-1.1895,-1.2234,-1.2264,-1.2372,-1.2569,-1.2309,-1.2098,-1.2098,-1.1424,-1.09,-1.0714,-1.0203,-0.9771,-0.9518,-0.9374,-0.9302,-0.9302,-0.9302,-0.9302,-0.9302,-0.9302,-0.9302,-0.9302,-0.9302,-0.9302,-0.9302,-0.9302,-0.9302,-0.9307,-0.9383,-0.9443,-0.9503,-0.965,-0.9769,-0.9915,-0.9964,-0.998,-0.998,-0.998,-0.998,-0.9825,-0.8769,-0.7907,-0.6651,-0.3208,-0.1605,-0.047,0.1845,0.2514,0.2508,0.2487,0.2466,0.2451,0.2451,0.2438,0.2386,0.2386,0.2386,0.2386,0.2386,0.2386,0.2386,0.2386,0.2386,0.2386,0.2386,0.2386,0.2386,0.2386,0.2413,0.2406,0.2406,0.2358,0.2352,0.2352,0.2911,0.3729,0.4766,0.7713,0.9442,0.9442,1.103,1.1918,1.1972,1.2067,1.2149,1.2203,1.2352,1.242,1.2427,1.2576,1.2589,-0.6681,-0.685,-0.7179,-0.7577,-0.8004,-0.8492,-0.8947,-0.9381,-0.9829,-1.0397,-1.0512,-1.048,-1.0426,-1.0575,-1.0853,-1.1314,-1.1599,-1.185,-1.2139,-1.204,-1.2013,-1.2159,-1.2264,-1.2393,-1.2494,-1.2315,-1.2152,-1.2104,-1.1464,-1.0902,-1.0527,-1.0131,-0.9699,-0.9302,-0.9302,-0.9302,-0.9302,-0.9302,-0.9302,-0.9302,-0.9302,-0.9302,-0.9302,-0.9302,-0.9302,-0.9302,-0.9302,-0.9329,-0.9367,-0.9454,-0.953,-0.9617,-0.978,-0.9905,-0.998,-0.998,-0.998,-0.998,-0.998,-0.998,-0.9708,-0.8063,-0.6963,-0.5711,-0.2271,-0.0666,0.0314,0.2002,0.2514,0.2514,0.2514,0.2499,0.2484,0.2484,0.2467,0.2414,0.2414,0.2414,0.2414,0.2414,0.2414,0.2414,0.2414,0.2414,0.2414,0.2414,0.2414,0.2414,0.2414,0.2444,0.2435,0.2386,0.2386,0.2386,0.2386,0.2386,0.3102,0.4793,0.7398,0.9085,0.953,1.1219,1.2125,1.2173,1.2237,1.2311,1.2359,1.2454,1.2528,1.2576,1.2638,1.2659,-0.7026,-0.6991,-0.7206,-0.7682,-0.816,-0.873,-0.9595,-0.9798,-1.0096,-1.1179,-1.1124,-1.0874,-1.0725,-1.0968,-1.1254,-1.1369,-1.1805,-1.2152,-1.2271,-1.2291,-1.2291,-1.2291,-1.2413,-1.2501,-1.2501,-1.2372,-1.223,-1.2111,-1.1586,-1.1076,-1.0534,-1.0095,-0.9699,-0.9302,-0.9302,-0.9302,-0.9302,-0.9302,-0.9302,-0.9302,-0.9302,-0.9302,-0.9302,-0.9302,-0.9302,-0.9302,-0.9302,-0.9372,-0.9487,-0.9492,-0.9628,-0.9813,-0.9932,-0.998,-0.998,-0.998,-0.998,-0.998,-0.998,-0.998,-0.9708,-0.8024,-0.5789,-0.348,-0.1801,0.047,0.2475,0.2475,0.2475,0.2514,0.2514,0.2514,0.2514,0.2514,0.2514,0.2514,0.2514,0.2514,0.2514,0.2514,0.2514,0.2514,0.2514,0.2514,0.2514,0.2514,0.2514,0.2514,0.2514,0.2488,0.2458,0.239,0.2386,0.2386,0.2386,0.2386,0.3141,0.4834,0.653,0.8175,0.965,1.1232,1.2173,1.2291,1.2291,1.2359,1.2501,1.2501,1.2576,1.2686,1.2693,1.2813,-0.6837,-0.7027,-0.7434,-0.8022,-0.871,-0.9483,-1.0276,-1.0502,-1.0819,-1.173,-1.1626,-1.134,-1.1219,-1.1355,-1.1497,-1.1545,-1.1873,-1.2152,-1.2271,-1.2291,-1.2291,-1.2291,-1.2413,-1.2501,-1.2501,-1.2372,-1.223,-1.2111,-1.1328,-1.0785,-1.0498,-0.9843,-0.941,-0.9302,-0.9302,-0.9302,-0.9302,-0.9302,-0.9302,-0.9302,-0.9302,-0.9302,-0.9302,-0.9302,-0.9302,-0.9302,-0.9302,-0.9372,-0.9497,-0.9666,-0.9786,-0.9932,-0.997,-0.998,-0.998,-0.998,-0.998,-0.998,-0.998,-0.9236,-0.7985,-0.6303,-0.4464,-0.2506,-0.0549,0.0549,0.1296,0.1886,0.2082,0.216,0.2435,0.2514,0.2514,0.2514,0.2514,0.2514,0.2514,0.2514,0.2514,0.2514,0.2514,0.2514,0.2514,0.2514,0.2514,0.2514,0.2514,0.2514,0.2514,0.2506,0.2497,0.2488,0.2488,0.2488,0.2488,0.2488,0.3688,0.6544,0.7228,0.8241,0.9851,1.1505,1.2393,1.244,1.244,1.2461,1.2501,1.2501,1.2522,1.2569,1.2678,1.2713,-0.7177,-0.745,-0.7927,-0.8648,-0.9252,-0.992,-1.0901,-1.1245,-1.1538,-1.2084,-1.1965,-1.1769,-1.1674,-1.1735,-1.1796,-1.1796,-1.2047,-1.2309,-1.2359,-1.2372,-1.2372,-1.2372,-1.2447,-1.2501,-1.2501,-1.2427,-1.2284,-1.2118,-1.1416,-1.0877,-1.0534,-0.9879,-0.9446,-0.9302,-0.9302,-0.9302,-0.9302,-0.9302,-0.9302,-0.9302,-0.9302,-0.9302,-0.9302,-0.9302,-0.9302,-0.9307,-0.9405,-0.9492,-0.9579,-0.9813,-0.9915,-0.998,-0.998,-0.998,-0.9903,-0.9236,-0.9003,-0.8925,-0.8258,-0.7357,-0.6225,-0.4542,-0.3212,-0.192,0.0,0.0746,0.0982,0.1532,0.1768,0.1964,0.22,0.2396,0.2514,0.2514,0.2514,0.2511,0.2499,0.2506,0.2511,0.2499,0.2506,0.2514,0.2514,0.2514,0.2514,0.2514,0.2514,0.2514,0.2514,0.2514,0.2514,0.2514,0.2514,0.2514,0.2514,0.2514,0.3922,0.7279,0.7513,0.8537,1.0904,1.1946,1.2501,1.2501,1.2501,1.2501,1.2501,1.2501,1.2535,1.2596,1.2752,1.2854,-0.7733,-0.8018,-0.8519,-0.9401,-0.9778,-1.0278,-1.1529,-1.1972,-1.2166,-1.2277,-1.2234,-1.2139,-1.2125,-1.2132,-1.2132,-1.2125,-1.2318,-1.2501,-1.2501,-1.2501,-1.2501,-1.2501,-1.2501,-1.2501,-1.2501,-1.2488,-1.2366,-1.2118,-1.1674,-1.1174,-1.054,-1.0095,-0.9663,-0.9302,-0.9302,-0.9302,-0.9302,-0.9302,-0.9302,-0.9302,-0.9302,-0.9302,-0.9302,-0.9302,-0.9307,-0.9334,-0.9605,-0.9714,-0.9742,-0.9927,-0.998,-0.998,-0.998,-0.9903,-0.9586,-0.8063,-0.7396,-0.7045,-0.5522,-0.4896,-0.4505,-0.2977,-0.2155,-0.145,0.0078,0.0825,0.1178,0.1217,0.1532,0.1846,0.1886,0.22,0.2514,0.2514,0.2514,0.2507,0.2517,0.2495,0.2506,0.2517,0.2495,0.2515,0.2518,0.2518,0.2519,0.2522,0.2522,0.2522,0.2522,0.2522,0.2522,0.2522,0.2522,0.2522,0.2522,0.2522,0.3935,0.7303,0.7537,0.9022,1.2426,1.2515,1.2501,1.2501,1.2515,1.2522,1.2522,1.2535,1.2617,1.2713,1.2895,1.3071,-0.7421,-0.7886,-0.8539,-0.9523,-1.0475,-1.1369,-1.1891,-1.2166,-1.2284,-1.2427,-1.2427,-1.2372,-1.2264,-1.2332,-1.2372,-1.2257,-1.2386,-1.2501,-1.2501,-1.2501,-1.2501,-1.2501,-1.2501,-1.2501,-1.2501,-1.24,-1.2295,-1.2111,-1.1323,-1.0779,-1.0498,-0.9807,-0.9374,-0.9302,-0.9302,-0.9302,-0.9302,-0.9302,-0.9302,0.0,-0.9302,-0.9302,-0.9302,-0.9302,-0.9356,-0.9454,-0.9643,-0.972,-0.9775,-0.9921,-0.998,-0.998,-0.998,-0.9197,-0.7985,-0.7634,-0.6655,-0.5483,-0.5131,-0.4151,-0.2977,-0.2624,-0.1568,-0.0353,0.0039,0.0196,0.0353,0.0668,0.106,0.1493,0.1807,0.22,0.2514,0.2514,0.2514,0.2512,0.2506,0.251,0.2512,0.2506,0.251,0.2522,0.2585,0.2589,0.2597,0.2579,0.2583,0.2583,0.2583,0.2583,0.2583,0.2583,0.2583,0.2583,0.2583,0.2583,0.4071,0.7521,0.7721,0.9287,1.2741,1.263,1.2501,1.2501,1.2617,1.2638,1.2638,1.2807,1.2921,1.2948,1.2982,1.3016,-0.7689,-0.8213,-0.8879,-1.0035,-1.1104,-1.187,-1.2064,-1.223,-1.2413,-1.2488,-1.2501,-1.2481,-1.2406,-1.2454,-1.2474,-1.2406,-1.2454,-1.2501,-1.2501,-1.2501,-1.2501,-1.2501,-1.2501,-1.2501,-1.2501,-1.2372,-1.223,-1.2111,-1.1401,-1.0858,-1.0534,-0.9915,-0.9482,-0.9302,-0.9302,-0.9302,-0.9302,-0.9302,-0.9302,-0.9302,-0.9302,-0.9334,-0.9389,-0.9389,-0.9427,-0.9497,-0.9671,-0.978,-0.9807,-0.9932,-0.998,-0.9903,-0.9119,-0.8258,-0.7318,-0.5714,-0.4542,-0.3681,-0.29,-0.2039,-0.1294,-0.1294,-0.0706,0.0,0.0,0.0,0.0039,0.0236,0.0785,0.1336,0.1571,0.2043,0.2514,0.2514,0.2514,0.251,0.2496,0.2504,0.251,0.2495,0.2504,0.2523,0.2595,0.2611,0.2585,0.26,0.2601,0.2601,0.2601,0.2601,0.2601,0.2601,0.2601,0.2601,0.2601,0.3413,0.4991,0.7617,0.8625,1.0281,1.2882,1.2846,1.2718,1.2718,1.28,1.284,1.284,1.2962,1.3003,1.3003,1.3071,1.3105,-0.7862,-0.8574,-0.9359,-1.0603,-1.1491,-1.207,-1.2091,-1.2271,-1.2474,-1.2494,-1.2501,-1.2501,-1.2501,-1.2501,-1.2494,-1.2467,-1.2488,-1.2494,-1.2467,-1.2488,-1.2501,-1.2501,-1.2501,-1.2494,-1.2467,-1.2332,-1.2227,-1.207,-1.1553,-1.1015,-1.0534,-1.0131,-0.9699,-0.9302,-0.9302,-0.9302,-0.9302,-0.9302,-0.9302,-0.9302,-0.9323,-0.9389,-0.9487,-0.953,-0.9546,-0.9557,-0.9715,-0.9813,-0.984,-0.9937,-0.9825,-0.9431,-0.8024,-0.7162,-0.63,-0.3525,-0.2311,-0.1881,-0.0471,0.0,0.0,0.0,0.0,0.0,0.0,0.0,0.0,0.0,0.055,0.1217,0.1296,0.1846,0.2397,0.2481,0.2522,0.2515,0.2528,0.25,0.2508,0.2527,0.2508,0.2537,0.2603,0.2596,0.2617,0.2617,0.2617,0.2617,0.2617,0.2617,0.2617,0.2617,0.2617,0.2617,0.2617,0.4291,0.6038,0.7742,0.9531,1.1317,1.2997,1.3077,1.3077,1.3077,1.305,1.3037,1.3037,1.3064,1.3077,1.3077,1.32,1.3214,-0.7168,-0.8446,-0.9873,-1.0704,-1.1374,-1.1898,-1.207,-1.2234,-1.2352,-1.2474,-1.2501,-1.2501,-1.2501,-1.2501,-1.2461,-1.2338,-1.242,-1.2461,-1.2338,-1.2427,-1.2501,-1.2501,-1.2501,-1.2454,-1.2332,-1.222,-1.2064,-1.1834,-1.1329,-1.0877,-1.0527,-1.0131,-0.9699,-0.9302,-0.9302,-0.9302,-0.9302,-0.9302,-0.9302,-0.9307,-0.941,-0.947,-0.9492,-0.9699,-0.9753,-0.9753,-0.9786,-0.9861,-0.9959,-0.9975,-0.9158,-0.7829,-0.7591,-0.5714,-0.3094,-0.2664,-0.1568,-0.0314,-0.0079,0.0,0.0,0.0,0.0,0.0,0.0,0.0,0.0,0.0,0.0353,0.0785,0.1178,0.165,0.2088,0.2508,0.2593,0.2592,0.2588,0.253,0.2521,0.2584,0.2571,0.2592,0.2596,0.2643,0.268,0.268,0.268,0.268,0.268,0.268,0.268,0.268,0.268,0.268,0.268,0.4349,0.6138,0.7849,0.9677,1.1464,1.326,1.3342,1.3342,1.3342,1.3214,1.3186,1.3186,1.3275,1.3342,1.3342,1.3363,1.337,-0.7609,-0.8872,-0.9988,-1.086,-1.1389,-1.1712,-1.1898,-1.2115,-1.2311,-1.2372,-1.2447,-1.2501,-1.2501,-1.2433,-1.2386,-1.2406,-1.2325,-1.2329,-1.2393,-1.2393,-1.2386,-1.2386,-1.2386,-1.2359,-1.2298,-1.2074,-1.1938,-1.1959,-1.1567,-1.1074,-1.0527,-1.0347,-0.9951,-0.9302,-0.9302,-0.9302,-0.9302,-0.9302,-0.934,-0.9405,-0.9459,-0.9557,-0.9688,-0.9753,-0.9796,-0.9802,-0.9872,-0.9932,-0.9942,-0.9003,-0.818,-0.7318,-0.5441,-0.3799,-0.239,-0.1451,-0.0628,0.0,0.0,0.0,0.0,0.0,0.0,0.0,0.0,0.0,0.0,0.0,0.0275,0.0628,0.0864,0.1217,0.1691,0.2095,0.2218,0.2261,0.2556,0.2562,0.2567,0.2581,0.2607,0.2586,0.2586,0.2664,0.2692,0.2692,0.2692,0.2692,0.2692,0.2692,0.2692,0.2692,0.2692,0.3111,0.4115,0.5831,0.763,0.9388,1.1225,1.2561,1.3355,1.3403,1.3403,1.3403,1.3336,1.3302,1.3302,1.337,1.3403,1.3403,1.3403,1.3272,-0.7689,-0.8777,-0.9555,-1.0519,-1.105,-1.1414,-1.1631,-1.1952,-1.2196,-1.2277,-1.2372,-1.2461,-1.2494,-1.2413,-1.2366,-1.2433,-1.2291,-1.2275,-1.242,-1.2359,-1.2291,-1.2291,-1.2291,-1.2277,-1.2237,-1.2026,-1.1925,-1.2036,-1.1762,-1.1289,-1.0527,-1.0491,-1.0131,-0.9338,-0.9302,-0.9302,-0.9302,-0.9302,-0.9367,-0.9487,-0.9519,-0.9639,-0.9802,-0.9829,-0.9615,-0.9231,-0.9317,-0.9353,-0.9236,-0.7556,-0.6616,-0.5988,-0.3486,-0.2233,-0.1725,-0.0471,0.0,0.0,0.0,0.0,0.0,0.0,0.0,0.0,0.0,0.0,0.0,0.0,0.0236,0.0471,0.0589,0.0864,0.1218,0.1656,0.182,0.2063,0.2467,0.2571,0.2592,0.2592,0.2609,0.2589,0.2603,0.2624,0.2683,0.2691,0.2692,0.2692,0.2692,0.2692,0.2692,0.2692,0.2692,0.3447,0.5245,0.7063,0.8839,1.0639,1.2476,1.3512,1.3512,1.3512,1.3512,1.3512,1.3512,1.3478,1.3403,1.3403,1.3362,1.3238,1.3238,1.3002,-0.6632,-0.754,-0.8324,-0.9245,-1.0127,-1.088,-1.1314,-1.164,-1.1938,-1.223,-1.2298,-1.2345,-1.2474,-1.2494,-1.2447,-1.2325,-1.24,-1.2433,-1.2318,-1.2298,-1.2291,-1.2291,-1.2291,-1.2237,-1.2125,-1.2098,-1.1993,-1.182,-1.1665,-1.1289,-1.0527,-1.0491,-1.0131,-0.9338,-0.9302,-0.9302,-0.9302,-0.9302,-0.9367,-0.9487,-0.9643,-0.972,-0.9802,-0.9921,-0.9109,-0.7626,-0.763,-0.7634,-0.7513,-0.5835,-0.419,-0.2742,-0.2585,-0.153,-0.0118,-0.0039,0.0,0.0,0.0,0.0,0.0,0.0,0.0,0.0,0.0,0.0,0.0,0.0,0.0,0.0118,0.051,0.0628,0.0748,0.1235,0.1652,0.21,0.245,0.2541,0.2602,0.2602,0.2603,0.2582,0.2597,0.2607,0.2618,0.2688,0.2692,0.2692,0.2692,0.2692,0.2692,0.2692,0.2692,0.3447,0.5245,0.7151,0.9018,1.0799,1.2709,1.3774,1.3774,1.3774,1.3774,1.3774,1.3774,1.3639,1.3403,1.3403,1.3148,1.2733,1.2733,1.2554,-0.6018,-0.6675,-0.7353,-0.8897,-0.9693,-1.0251,-1.0833,-1.1306,-1.1712,-1.1952,-1.2074,-1.2227,-1.2338,-1.2366,-1.2379,-1.242,-1.2223,-1.2121,-1.2271,-1.2121,-1.2033,-1.2173,-1.2179,-1.22,-1.2203,-1.2159,-1.2118,-1.2121,-1.1898,-1.1428,-1.0663,-1.054,-1.0131,-0.9338,-0.9302,-0.9302,-0.9302,-0.9383,-0.9481,-0.9643,-0.972,-0.9262,-0.832,-0.8361,-0.7474,-0.5835,-0.4776,-0.4894,-0.5756,-0.4073,-0.3055,-0.239,-0.1334,-0.051,0.0,0.0,0.0,0.0,0.0,0.0,0.0,0.0,0.0,0.0,0.0,0.0,0.0,0.0,0.0,0.004,0.0161,0.0201,0.0322,0.0767,0.1217,0.1665,0.2013,0.2407,0.2645,0.2645,0.2645,0.2652,0.2672,0.2676,0.2673,0.2622,0.268,0.2692,0.2692,0.271,0.2729,0.2748,0.3821,0.5274,0.7106,0.9061,1.0923,1.2642,1.3419,1.3795,1.3795,1.3495,1.3366,1.3366,1.303,1.315,1.3639,1.3343,1.3131,1.2962,1.2671,1.2313,-0.4913,-0.5442,-0.6115,-0.7981,-0.8654,-0.9189,-1.0403,-1.0989,-1.1341,-1.1651,-1.1877,-1.207,-1.2182,-1.221,-1.2277,-1.2467,-1.225,-1.2128,-1.2332,-1.2142,-1.2026,-1.2166,-1.2179,-1.2213,-1.2277,-1.2234,-1.2182,-1.2284,-1.2054,0.0,-1.0737,-1.0608,-1.0179,-0.9343,-0.9302,-0.9302,-0.9302,-0.9427,-0.9546,-0.9709,-0.9211,-0.8429,-0.7474,-0.6928,-0.5756,-0.4114,-0.2977,-0.3133,-0.4033,-0.2352,-0.1646,-0.1569,-0.0432,0.0,0.0,0.0,0.0,0.0,0.0,0.0,0.0,0.0,0.0,0.0,0.0,0.0,0.0,0.0,0.0,0.0,0.0,0.0,0.0122,0.0531,0.0859,0.1229,0.1604,0.207,0.2457,0.2633,0.2669,0.2668,0.2688,0.2684,0.2673,0.2622,0.2679,0.2697,0.2706,0.2683,0.2963,0.3646,0.486,0.6546,0.8831,1.0249,1.1701,1.3309,1.3491,1.3517,1.3517,1.3214,1.304,1.304,1.2737,1.2867,1.3517,1.3075,1.2815,1.2644,1.2349,1.1986,0.0,0.0,0.0,-0.6454,-0.6921,-0.7576,-0.9997,-1.045,-1.0597,-1.1366,-1.1628,-1.1807,-1.2057,-1.2091,-1.2186,-1.244,-1.2488,-1.2488,-1.2488,-1.2372,-1.2284,-1.2291,-1.2291,-1.2291,-1.2298,-1.2298,-1.2298,-1.2298,-1.2193,-1.1702,-1.0749,-1.0694,-1.0231,-0.9343,-0.9302,-0.9307,-0.9307,-0.939,-0.9515,-0.9602,-0.7989,-0.7273,-0.7279,-0.5678,-0.3994,-0.2429,-0.2429,-0.2429,-0.2312,-0.0667,0.0,0.0,0.0,0.0,0.0,0.0,0.0,0.0,0.0,0.0,0.0,0.0,0.0,0.0,0.0,0.0,0.0,0.0,0.0,0.0,0.0,0.0,0.0123,0.0578,0.0663,0.0789,0.1175,0.1571,0.2002,0.2478,0.2583,0.2623,0.2683,0.2626,0.2617,0.2687,0.2649,0.2661,0.2647,0.2652,0.3394,0.5288,0.5599,0.6942,1.0133,1.0629,1.1308,1.263,1.284,1.292,1.292,1.2875,1.2875,1.2875,1.2875,1.2875,1.2875,1.2532,1.2189,1.1802,1.1802,1.1605,-0.2574,0.0,0.0,0.0,0.0,0.0,-0.6769,-0.7245,-0.7916,-0.9473,-0.9826,-1.0247,-1.1623,-1.1898,-1.1959,-1.2149,-1.222,-1.222,-1.222,-1.2186,-1.2207,-1.2277,-1.2291,-1.2332,-1.2433,-1.244,-1.244,0.0,-1.2311,-1.1823,-1.089,-1.0108,-0.9557,-0.9307,-0.9302,-0.9345,-0.9432,-0.8392,-0.7895,-0.7955,-0.6389,-0.5034,-0.3877,-0.3407,-0.2273,-0.0706,-0.0706,-0.0706,-0.0667,-0.0196,0.0,0.0,0.0,0.0,0.0,0.0,0.0,0.0,0.0,0.0,0.0,0.0,0.0,0.0,0.0,0.0,0.0,0.0,0.0,0.0,0.0,0.0,0.0042,0.0168,0.021,0.0336,0.0757,0.0963,0.1169,0.159,0.1921,0.2171,0.2186,0.2181,0.2173,0.2204,0.1925,0.1685,0.169,0.1715,0.1956,0.2502,0.5081,0.7071,0.7891,1.0539,1.2318,1.2674,1.2754,1.2815,1.292,1.2565,1.2387,1.2387,1.2077,1.1899,1.1899,1.214,1.2193,1.2061,1.1753,1.155,-0.1917,-0.2096,-0.2449,-0.3709,0.0,0.0,-0.5567,-0.5909,-0.636,-0.7719,-0.8051,-0.8424,-0.9496,-1.0251,-1.0551,-1.0031,-1.0546,-1.1281,-1.2016,-1.2098,-1.2132,-1.222,-1.225,-1.2325,-1.2406,-1.2467,-1.2501,-1.2501,-1.2372,-1.1856,-1.0866,-1.0025,-0.9482,-0.9302,-0.8661,-0.8382,-0.845,-0.6972,-0.6218,-0.6229,-0.4709,-0.3447,-0.2468,-0.1764,-0.0942,0.0,0.0,0.0,0.0,0.0,0.0,0.0,0.0,0.0,0.0,0.0,0.0,0.0,0.0,0.0,0.0,0.0,0.0,0.0,0.0,0.0,0.0,0.0,0.0,0.0,0.0,0.0,0.0,0.0,0.0,0.0084,0.0337,0.0421,0.0589,0.1178,0.1514,0.1724,0.1724,0.1724,0.1721,0.1709,0.1472,0.1315,0.1322,0.1386,0.1713,0.2529,0.5329,0.7327,0.7931,1.0673,1.2366,1.2258,1.2219,1.2283,1.2456,1.2192,1.199,1.1933,1.1665,1.1548,1.1499,1.1766,1.1899,1.1899,1.1632,1.1499,-0.1418,-0.1475,0.0,-0.3205,-0.3102,0.0,-0.5193,-0.5347,-0.5281,-0.6066,-0.6303,-0.6494,-0.6723,-0.7966,-0.8483,-0.7074,-0.8172,-0.9815,-1.156,-1.1823,-1.1911,-1.2098,-1.2069,-1.2074,-1.2264,-1.2239,-1.2204,-1.2204,-1.188,-1.1233,-1.0228,-0.9652,-0.9199,-0.8812,-0.7476,-0.6751,-0.6771,-0.5287,-0.4542,-0.4509,-0.2962,-0.2233,-0.2156,-0.0667,0.0,0.0,0.0,0.0,0.0,0.0,0.0,0.0,0.0,0.0,0.0,0.0,0.0,0.0,0.0,0.0,0.0,0.0,0.0,0.0,0.0,0.0,0.0,0.0,0.0,0.0,0.0,0.0,0.0,0.0,0.0,0.0,0.0,0.0,0.0211,0.1013,0.118,0.122,0.122,0.1221,0.1222,0.1222,0.1191,0.1161,0.1216,0.1229,0.1905,0.3618,0.5637,0.7445,0.8801,1.0783,1.1848,1.1623,1.1589,1.1643,1.1768,1.1819,1.1724,1.1616,1.16,1.159,1.1543,1.1526,1.1521,1.1521,1.1532,1.1543,-0.1569,-0.1562,-0.1651,-0.1876,0.0,0.0,-0.227,-0.2307,-0.2697,-0.4188,-0.4519,-0.4964,-0.6381,-0.6932,-0.7078,-0.6728,-0.7018,-0.7947,-0.9742,-1.0111,-1.066,-1.1948,-1.0989,-1.0739,-1.1989,-1.1131,-1.0435,-1.0321,-0.8763,-0.7523,-0.6965,-0.6399,-0.5951,-0.5606,-0.529,-0.5161,-0.5229,-0.3609,-0.2824,-0.2928,-0.1293,-0.0471,-0.0471,-0.0157,0.0,0.0,0.0,0.0,0.0,0.0,0.0,0.0,0.0,0.0,0.0,0.0,0.0,0.0,0.0,0.0,0.0,0.0,0.0,0.0,0.0,0.0,0.0,0.0,0.0,0.0,0.0,0.0,0.0,0.0,0.0,0.0,0.0,0.0,0.0043,0.0216,0.0554,0.08,0.08,0.0806,0.081,0.081,0.0516,0.026,0.0261,0.0263,0.0398,0.0797,0.3988,0.6173,0.6401,0.9626,1.1675,1.1589,1.1589,1.1643,1.1768,1.1819,1.1808,1.174,1.1643,1.1627,1.1748,1.165,1.1601,1.1556,1.1705,1.1748,-0.1659,-0.1639,-0.165,-0.1603,0.0,0.0,0.0,-0.1515,-0.1763,-0.27,-0.2852,-0.3097,-0.4039,-0.4875,-0.5152,-0.4416,-0.5046,-0.593,-0.6823,-0.7765,-0.8636,-0.9425,-0.8892,-0.879,-0.9586,-0.9067,-0.8653,-0.852,-0.7535,-0.6656,-0.5946,-0.5653,-0.5265,-0.4702,-0.3915,-0.3511,-0.354,-0.1976,-0.117,-0.1255,-0.0392,0.0,0.0,0.0,0.0,0.0,0.0,0.0,0.0,0.0,0.0,0.0,0.0,0.0,0.0,0.0,0.0,0.0,0.0,0.0,0.0,0.0,0.0,0.0,0.0,0.0,0.0,0.0,0.0,0.0,0.0,0.0,0.0,0.0,0.0,0.0,0.0,0.0,0.0,0.0,0.0172,0.0342,0.0342,0.0344,0.0345,0.0345,0.0131,0.0,0.0,0.0,0.0,0.0,0.3465,0.5785,0.5815,0.9359,1.1643,1.1803,1.1813,1.1868,1.1987,1.1993,1.1966,1.1906,1.1786,1.1713,1.1819,1.1813,1.1781,1.1681,1.1792,1.1819,0.0,0.0,0.0,0.0,0.0,-0.1614,0.0,0.0,0.0,-0.1724,-0.1645,-0.1614,-0.1745,-0.2773,-0.3245,-0.2098,-0.3047,-0.3912,-0.3901,-0.5122,-0.6246,-0.6811,-0.6765,-0.6817,-0.7109,-0.6962,-0.6817,-0.6777,-0.6422,-0.5832,-0.4947,-0.4911,-0.4577,-0.3829,-0.2519,-0.1866,-0.1856,-0.0625,0.0,0.0,0.0,0.0,0.0,0.0,0.0,0.0,0.0,0.0,0.0,0.0,0.0,0.0,0.0,0.0,0.0,0.0,0.0,0.0,0.0,0.0,0.0,0.0,0.0,0.0,0.0,0.0,0.0,0.0,0.0,0.0,0.0,0.0,0.0,0.0,0.0,0.0,0.0,0.0,0.0,0.0,0.0,0.0,0.0,0.0,0.0,0.0,0.0,0.0,0.0,0.0,0.0135,0.0499,0.3704,0.5982,0.6451,0.9698,1.1819,1.2009,1.2025,1.2069,1.2214,1.2219,1.217,1.2025,1.1911,1.1862,1.1889,1.1955,1.1944,1.1851,1.1873,1.1889,0.0,0.0,0.0,0.0,-0.1816,0.0,0.0,0.0,-0.1584,-0.1548,0.0,-0.1534,-0.1604,0.0,0.0,-0.1681,-0.1889,-0.2093,-0.2091,-0.2357,-0.3588,-0.6378,-0.5632,-0.5414,-0.6807,-0.5674,-0.4911,-0.5139,-0.3665,-0.2463,-0.1748,-0.1714,-0.1364,-0.0567,-0.0341,-0.0268,-0.0274,-0.0078,0.0,0.0,0.0,0.0,0.0,0.0,0.0,0.0,0.0,0.0,0.0,0.0,0.0,0.0,0.0,0.0,0.0,0.0,0.0,0.0,0.0,0.0,0.0,0.0,0.0,0.0,0.0,0.0,0.0,0.0,0.0,0.0,0.0,0.0,0.0,0.0,0.0,0.0,0.0,0.0,0.0,0.0,0.0,0.0,0.0,0.0,0.0,0.0,0.0,0.0,0.0,0.0,0.0673,0.2379,0.4646,0.6721,0.8397,1.073,1.2123,1.2198,1.2198,1.2156,1.2219,1.2219,1.2214,1.2198,1.2031,1.202,1.2129,1.2036,1.1982,1.1971,1.208,1.2134,0.0,0.0,0.0,0.0,0.0,0.0,-0.1613,0.0,-0.1539,0.0,0.0,0.0,0.0,0.0,0.0,0.0,-0.1672,-0.1752,-0.1749,-0.1817,-0.2396,-0.3766,0.0,0.0,-0.4044,-0.3495,-0.3179,-0.3329,-0.2639,-0.1903,-0.1188,-0.1163,-0.0849,-0.0038,0.0,0.0,0.0,0.0,0.0,0.0,0.0,0.0,0.0,0.0,0.0,0.0,0.0,0.0,0.0,0.0,0.0,0.0,0.0,0.0,0.0,0.0,0.0,0.0,0.0,0.0,0.0,0.0,0.0,0.0,0.0,0.0,0.0,0.0,0.0,0.0,0.0,0.0,0.0,0.0,0.0,0.0,0.0,0.0,0.0,0.0,0.0,0.0,0.0,0.0,0.0,0.0,0.0,0.0,0.0,0.0,0.0765,0.2711,0.4735,0.6742,0.8672,1.0745,1.1966,1.1966,1.2031,1.2063,1.2063,1.2181,1.2219,1.2219,1.2123,1.2118,1.2219,1.2118,1.2143,1.2143,1.2145,1.2219,-0.1966,0.0,0.0,0.0,0.0,0.0,0.0,0.0,0.0,0.0,0.0,0.0,0.0,0.0,0.0,0.0,0.0,-0.1706,-0.1668,-0.1711,-0.1757,-0.1828,0.0,0.0,0.0,-0.2054,-0.2055,-0.2177,0.0,-0.1714,-0.1141,-0.1047,-0.0735,-0.0038,0.0,0.0,0.0,0.0,0.0,0.0,0.0,0.0,0.0,0.0,0.0,0.0,0.0,0.0,0.0,0.0,0.0,0.0,0.0,0.0,0.0,0.0,0.0,0.0,0.0,0.0,0.0,0.0,0.0,0.0,0.0,0.0,0.0,0.0,0.0,0.0,0.0,0.0,0.0,0.0,0.0,0.0,0.0,0.0,0.0,0.0,0.0,0.0,0.0,0.0,0.0,0.0,0.0,0.0,0.0,0.0449,0.1529,0.344,0.549,0.7474,0.9414,1.0922,1.183,1.1862,1.1976,1.2036,1.2036,1.217,1.2219,1.2219,1.2219,1.2219,1.2219,1.2252,1.2269,1.2269,1.2269,1.2269,0.0,0.0,0.0,-0.1869,0.0,0.0,0.0,0.0,-0.1781,0.0,0.0,0.0,0.0,0.0,0.0,0.0,0.0,0.0,0.0,-0.1551,-0.1554,-0.1697,0.0,0.0,0.0,-0.1887,-0.1904,0.0,-0.1705,-0.1339,-0.1103,-0.0787,-0.0437,0.0,0.0,0.0,0.0,0.0,0.0,0.0,0.0,0.0,0.0,0.0,0.0,0.0,0.0,0.0,0.0,0.0,0.0,0.0,0.0,0.0,0.0,0.0,0.0,0.0,0.0,0.0,0.0,0.0,0.0,0.0,0.0,0.0,0.0,0.0,0.0,0.0,0.0,0.0,0.0,0.0,0.0,0.0,0.0,0.0,0.0,0.0,0.0,0.0,0.0,0.0,0.0,0.0,0.0,0.0,0.0,0.1658,0.3538,0.5417,0.7453,0.9454,1.1368,1.1703,1.1868,1.1976,1.2096,1.2214,1.2214,1.2219,1.2219,1.2219,1.2219,1.2219,1.2219,1.2339,1.2394,1.2394,1.2394,1.2394,0.0,0.0,-0.2199,-0.1982,0.0,0.0,0.0,0.0,0.0,0.0,0.0,0.0,0.0,0.0,0.0,0.0,0.0,0.0,0.0,0.0,-0.1466,-0.1547,-0.1689,-0.1797,0.0,0.0,0.0,-0.2059,-0.1663,0.0,-0.1061,-0.074,-0.0399,0.0,0.0,0.0,0.0,0.0,0.0,0.0,0.0,0.0,0.0,0.0,0.0,0.0,0.0,0.0,0.0,0.0,0.0,0.0,0.0,0.0,0.0,0.0,0.0,0.0,0.0,0.0,0.0,0.0,0.0,0.0,0.0,0.0,0.0,0.0,0.0,0.0,0.0,0.0,0.0,0.0,0.0,0.0,0.0,0.0,0.0,0.0,0.0,0.0,0.0,0.0,0.0,0.0,0.0,0.0,0.0,0.1703,0.3637,0.5602,0.7525,0.9496,1.156,1.1751,1.1835,1.1873,1.1987,1.2053,1.2053,1.2129,1.2219,1.2219,1.2219,1.2258,1.2339,1.2383,1.2395,1.2477,1.2553,1.2547,-0.2331,-0.2352,0.0,-0.2159,-0.2099,0.0,-0.1857,0.0,0.0,0.0,0.0,0.0,0.0,0.0,0.0,0.0,0.0,0.0,0.0,-0.1455,0.0,-0.1461,-0.1579,-0.1707,-0.1798,-0.1746,-0.1743,-0.1783,-0.1392,-0.1064,0.0,0.0,-0.0252,0.0,0.0,0.0,0.0,0.0,0.0,0.0,0.0,0.0,0.0,0.0,0.0,0.0,0.0,0.0,0.0,0.0,0.0,0.0,0.0,0.0,0.0,0.0,0.0,0.0,0.0,0.0,0.0,0.0,0.0,0.0,0.0,0.0,0.0,0.0,0.0,0.0,0.0,0.0,0.0,0.0,0.0,0.0,0.0,0.0,0.0,0.0,0.0,0.0,0.0,0.0,0.0,0.0,0.0,0.0,0.0,0.2311,0.4447,0.5754,0.822,1.0278,1.1665,1.1857,1.1879,1.1879,1.1987,1.2053,1.2053,1.2129,1.2241,1.2285,1.2285,1.2345,1.2417,1.246,1.252,1.2547,1.2716,1.2732]},{"header":{"parameterUnit":"m.s-1","parameterCategory":1,"la1":30.6,"la2":29.2853,"lo1":-89.7004,"lo2":-87.6739,"dy":0.0162,"dx":0.0183,"nx":112,"ny":82,"refTime":"2026-04-08T00:00:00:Z","depth":0,"parameterNumber":3,"parameterNumberName":"V-component_of_WINDS"},"data":[0.0,0.0,0.0,0.0,0.0,0.0,0.0,0.0,0.0,0.0,0.0,0.0,0.0,0.0,0.0,0.0,0.0,0.0,0.0,0.0,0.0,0.0,0.0,0.0,0.0,0.0,0.0,0.0,0.0,0.0,0.0,0.0,0.0,0.0,0.0,0.0,0.0,0.0,0.0,0.0,0.0,0.0,0.0,0.0,0.0,0.0,0.0,0.0,0.0,0.0,0.0,0.0,0.0,0.0,0.0,0.0,0.0,0.0,0.0,0.0,0.0,0.0,0.0,0.0,0.0,0.0,0.0,0.0,0.0,0.0,0.0,0.0,0.0,0.0,0.0,0.0,0.0,0.0,0.0,0.0,0.0,0.0,0.0,0.0,0.0,0.0,0.0,0.0,0.0,0.0,2.502,2.8227,3.1165,3.2856,3.2695,3.2092,2.9841,2.5459,0.0,0.0,0.0,0.0,0.0,0.0,0.0,0.0,0.0,0.0,0.0,0.0,0.0,0.0,0.0,0.0,0.0,0.0,0.0,0.0,0.0,0.0,0.0,0.0,0.0,0.0,0.0,0.0,0.0,0.0,0.0,0.0,0.0,0.0,0.0,0.0,0.0,0.0,0.0,0.0,0.0,0.0,0.0,0.0,0.0,0.0,0.0,0.0,0.0,0.0,0.0,0.0,0.0,0.0,0.0,0.0,0.0,0.0,0.0,0.0,0.0,0.0,0.0,0.0,0.0,0.0,0.0,0.0,0.0,0.0,0.0,0.0,0.0,0.0,0.0,0.0,0.0,0.0,0.0,0.0,0.0,0.0,0.0,0.0,0.0,0.0,0.0,0.0,0.0,0.0,0.0,0.0,0.0,0.0,0.0,0.0,0.0,0.0,0.0,0.0,0.0,0.0,0.0,0.0,2.5206,3.13,3.3073,3.3494,3.2776,3.2585,3.0411,2.5497,0.0,0.0,0.0,0.0,0.0,0.0,0.0,0.0,0.0,0.0,0.0,0.0,0.0,0.0,0.0,0.0,0.0,0.0,0.0,0.0,0.0,0.0,0.0,0.0,0.0,0.0,0.0,0.0,0.0,0.0,0.0,0.0,0.0,0.0,0.0,0.0,0.0,0.0,0.0,0.0,0.0,0.0,0.0,0.0,0.0,0.0,0.0,0.0,0.0,0.0,0.0,0.0,0.0,0.0,0.0,0.0,0.0,0.0,0.0,0.0,0.0,0.0,0.0,0.0,0.0,0.0,0.0,0.0,0.0,0.0,0.0,0.0,0.0,0.0,0.0,0.0,0.0,0.0,0.0,0.0,0.0,0.0,0.0,0.0,0.0,0.0,0.0,0.0,0.0,0.0,0.0,0.0,0.0,0.0,0.0,0.0,0.0,0.0,0.0,0.0,0.0,0.0,0.0,2.4323,2.7813,3.2274,3.3872,3.4132,3.2814,3.2695,3.0563,2.5535,2.3542,0.0,0.0,0.0,0.0,0.0,0.0,0.0,0.0,0.0,0.0,0.0,0.0,0.0,0.0,0.0,0.0,0.0,0.0,0.0,0.0,0.0,0.0,0.0,0.0,0.0,0.0,0.0,0.0,0.0,0.0,0.0,0.0,0.0,0.0,0.0,0.0,0.0,0.0,0.0,0.0,0.0,0.0,0.0,0.0,0.0,0.0,0.0,0.0,0.0,0.0,0.0,0.0,0.0,0.0,0.0,0.0,0.0,0.0,0.0,0.0,0.0,0.0,0.0,0.0,0.0,0.0,0.0,0.0,0.0,0.0,0.0,0.0,0.0,0.0,0.0,0.0,0.0,0.0,0.0,0.0,0.0,0.0,0.0,0.0,0.0,0.0,0.0,0.0,0.0,0.0,0.0,0.0,0.0,0.0,0.0,0.0,0.0,0.0,0.0,0.0,0.0,0.0,2.7787,3.0501,3.2828,3.4366,3.4537,3.2848,3.2355,3.0143,2.5497,2.3195,0.0,0.0,0.0,0.0,0.0,0.0,0.0,0.0,0.0,0.0,0.0,0.0,0.0,0.0,0.0,0.0,0.0,0.0,0.0,0.0,0.0,0.0,0.0,0.0,0.0,0.0,0.0,0.0,0.0,0.0,0.0,0.0,0.0,0.0,0.0,0.0,0.0,0.0,0.0,0.0,0.0,0.0,0.0,0.0,0.0,0.0,0.0,0.0,0.0,0.0,0.0,0.0,0.0,0.0,0.0,0.0,0.0,0.0,0.0,0.0,0.0,0.0,0.0,0.0,0.0,0.0,0.0,0.0,0.0,0.0,0.0,0.0,0.0,0.0,0.0,0.0,0.0,0.0,0.0,0.0,0.0,0.0,0.0,0.0,0.0,0.0,0.0,0.0,0.0,0.0,0.0,0.0,0.0,0.0,0.0,0.0,0.0,0.0,0.0,0.0,0.0,0.0,2.8769,3.1976,3.3712,3.4694,3.4537,3.2848,3.1251,2.8893,2.5421,2.2085,0.0,0.0,0.0,0.0,0.0,0.0,0.0,0.0,0.0,0.0,0.0,0.0,0.0,0.0,0.0,0.0,0.0,0.0,0.0,0.0,0.0,0.0,0.0,0.0,0.0,0.0,0.0,0.0,0.0,0.0,0.0,0.0,0.0,0.0,0.0,0.0,0.0,0.0,0.0,0.0,0.0,0.0,0.0,0.0,0.0,0.0,0.0,0.0,0.0,0.0,0.0,0.0,0.0,0.0,0.0,0.0,0.0,0.0,0.0,0.0,0.0,0.0,0.0,0.0,0.0,0.0,0.0,0.0,0.0,0.0,0.0,0.0,0.0,0.0,0.0,0.0,0.0,0.0,0.0,0.0,0.0,0.0,0.0,0.0,0.0,0.0,0.0,0.0,0.0,0.0,0.0,0.0,0.0,0.0,0.0,0.0,0.0,0.0,0.0,0.0,0.0,0.0,2.8422,3.1555,0.0,3.4732,3.4537,3.2848,3.1633,2.931,2.5459,0.0,0.0,0.0,0.0,0.0,0.0,0.0,0.0,0.0,0.0,0.0,0.0,0.0,0.0,0.0,0.0,0.0,0.0,0.0,0.0,0.0,0.0,0.0,0.0,0.0,0.0,0.0,0.0,0.0,0.0,0.0,0.0,0.0,0.0,0.0,0.0,0.0,0.0,0.0,0.0,0.0,0.0,0.0,0.0,0.0,0.0,0.0,0.0,0.0,0.0,0.0,0.0,0.0,0.0,0.0,0.0,0.0,0.0,0.0,0.0,0.0,0.0,0.0,0.0,0.0,0.0,0.0,0.0,0.0,0.0,0.0,0.0,0.0,0.0,0.0,0.0,0.0,0.0,0.0,0.0,0.0,0.0,0.0,0.0,0.0,0.0,0.0,0.0,0.0,0.0,0.0,0.0,0.0,0.0,0.0,0.0,0.0,0.0,0.0,0.0,0.0,0.0,2.5581,2.8935,3.1791,0.0,3.4472,3.4044,3.2053,3.0869,2.8542,2.4615,0.0,0.0,0.0,0.0,0.0,0.0,0.0,0.0,0.0,0.0,0.0,0.0,0.0,0.0,0.0,0.0,0.0,0.0,0.0,0.0,0.0,0.0,0.0,0.0,0.0,0.0,0.0,0.0,0.0,0.0,0.0,0.0,0.0,0.0,0.0,0.0,0.0,0.0,0.0,0.0,0.0,0.0,0.0,0.0,0.0,0.0,0.0,0.0,0.0,0.0,0.0,0.0,0.0,0.0,0.0,0.0,0.0,0.0,0.0,0.0,0.0,0.0,0.0,0.0,0.0,0.0,0.0,0.0,0.0,0.0,0.0,0.0,0.0,0.0,0.0,0.0,0.0,0.0,0.0,0.0,0.0,0.0,0.0,0.0,0.0,0.0,0.0,0.0,0.0,0.0,0.0,0.0,0.0,0.0,0.0,0.0,0.0,0.0,0.0,0.0,0.0,0.0,2.7336,3.0694,3.3069,3.3918,3.3999,3.294,3.0418,2.8657,2.6246,0.0,0.0,0.0,0.0,0.0,0.0,0.0,0.0,0.0,0.0,0.0,0.0,0.0,0.0,0.0,0.0,0.0,0.0,0.0,0.0,0.0,0.0,0.0,0.0,0.0,0.0,0.0,0.0,0.0,0.0,0.0,0.0,0.0,0.0,0.0,0.0,0.0,0.0,0.0,0.0,0.0,0.0,0.0,0.0,0.0,0.0,0.0,0.0,0.0,0.0,0.0,0.0,0.0,0.0,0.0,0.0,0.0,0.0,0.0,0.0,0.0,0.0,0.0,0.0,0.0,0.0,0.0,0.0,0.0,0.0,0.0,0.0,0.0,0.0,0.0,0.0,0.0,0.0,0.0,0.0,0.0,0.0,0.0,0.0,0.0,0.0,0.0,0.0,0.0,0.0,0.0,0.0,0.0,0.0,0.0,0.0,0.0,0.0,0.0,0.0,0.0,0.0,0.0,2.6444,2.9312,3.1555,3.2955,3.3089,3.2283,3.0341,2.9188,2.7122,2.3725,0.0,0.0,0.0,0.0,0.0,0.0,0.0,0.0,0.0,0.0,0.0,0.0,0.0,0.0,0.0,0.0,0.0,0.0,0.0,0.0,0.0,0.0,0.0,0.0,0.0,0.0,0.0,0.0,0.0,0.0,0.0,0.0,0.0,0.0,0.0,0.0,0.0,0.0,0.0,0.0,0.0,0.0,0.0,0.0,0.0,0.0,0.0,0.0,0.0,0.0,0.0,0.0,0.0,0.0,0.0,0.0,0.0,0.0,0.0,0.0,0.0,0.0,0.0,0.0,0.0,0.0,0.0,0.0,0.0,0.0,0.0,0.0,0.0,0.0,0.0,0.0,0.0,0.0,0.0,0.0,0.0,0.0,0.0,0.0,0.0,0.0,0.0,0.0,0.0,0.0,0.0,0.0,0.0,0.0,0.0,0.0,0.0,0.0,0.0,0.0,0.0,0.0,2.6124,2.8723,3.0809,3.2105,3.224,3.1533,2.9841,2.9185,2.731,2.361,0.0,0.0,0.0,0.0,0.0,0.0,0.0,0.0,0.0,0.0,0.0,0.0,0.0,0.0,0.0,0.0,0.0,0.0,0.0,0.0,0.0,0.0,0.0,0.0,0.0,0.0,0.0,0.0,0.0,0.0,0.0,0.0,0.0,0.0,0.0,0.0,0.0,0.0,0.0,0.0,0.0,0.0,0.0,0.0,0.0,0.0,0.0,0.0,0.0,0.0,0.0,0.0,0.0,0.0,0.0,0.0,0.0,0.0,0.0,0.0,0.0,0.0,0.0,0.0,0.0,0.0,0.0,0.0,0.0,0.0,0.0,0.0,0.0,0.0,0.0,0.0,0.0,0.0,0.0,0.0,0.0,0.0,0.0,0.0,0.0,0.0,0.0,0.0,0.0,0.0,0.0,0.0,0.0,0.0,0.0,0.0,0.0,0.0,0.0,0.0,0.0,0.0,2.6036,2.8561,3.0446,3.1366,3.1409,3.0717,2.9032,2.8838,2.7084,2.3078,0.0,0.0,0.0,0.0,0.0,0.0,0.0,0.0,0.0,0.0,0.0,0.0,0.0,0.0,0.0,0.0,0.0,0.0,0.0,0.0,0.0,0.0,0.0,0.0,0.0,0.0,0.0,0.0,0.0,0.0,0.0,0.0,0.0,0.0,0.0,0.0,0.0,0.0,0.0,0.0,0.0,0.0,0.0,0.0,0.0,0.0,0.0,0.0,0.0,0.0,0.0,0.0,0.0,0.0,0.0,0.0,0.0,0.0,0.0,0.0,2.2718,0.0,0.0,0.0,0.0,0.0,0.0,0.0,0.0,0.0,0.0,0.0,0.0,0.0,0.0,0.0,0.0,0.0,0.0,0.0,0.0,0.0,0.0,0.0,0.0,0.0,0.0,0.0,0.0,0.0,0.0,0.0,0.0,0.0,0.0,0.0,0.0,0.0,0.0,0.0,0.0,0.0,2.5127,2.7206,2.89,3.0323,3.0487,3.0039,2.899,2.8306,2.7014,2.4806,2.1973,0.0,0.0,0.0,0.0,0.0,0.0,0.0,0.0,0.0,0.0,0.0,0.0,0.0,0.0,0.0,0.0,0.0,0.0,0.0,0.0,0.0,0.0,0.0,0.0,0.0,0.0,0.0,0.0,0.0,0.0,0.0,0.0,0.0,0.0,0.0,0.0,0.0,0.0,0.0,0.0,0.0,0.0,0.0,0.0,0.0,0.0,0.0,0.0,0.0,0.0,0.0,0.0,0.0,0.0,0.0,0.0,0.0,0.0,0.0,0.0,2.4782,0.0,0.0,0.0,0.0,0.0,0.0,0.0,0.0,0.0,0.0,0.0,0.0,0.0,0.0,0.0,0.0,0.0,0.0,0.0,0.0,0.0,0.0,0.0,0.0,0.0,0.0,0.0,0.0,0.0,0.0,0.0,0.0,0.0,0.0,0.0,0.0,0.0,0.0,0.0,0.0,2.6105,2.798,2.9481,3.0726,3.0845,3.0473,2.9608,2.9153,2.801,2.5912,2.3733,0.0,0.0,0.0,0.0,0.0,0.0,0.0,0.0,0.0,0.0,0.0,0.0,0.0,0.0,0.0,0.0,0.0,0.0,0.0,0.0,0.0,0.0,0.0,0.0,0.0,0.0,0.0,0.0,0.0,0.0,0.0,0.0,0.0,0.0,0.0,0.0,0.0,0.0,0.0,0.0,0.0,0.0,0.0,0.0,0.0,0.0,0.0,0.0,0.0,0.0,0.0,0.0,0.0,3.2236,3.3152,3.455,3.4596,3.5002,3.5432,3.1854,3.0337,3.0108,2.7697,0.0,0.0,0.0,0.0,0.0,0.0,0.0,0.0,0.0,0.0,0.0,0.0,0.0,0.0,0.0,0.0,0.0,0.0,0.0,0.0,0.0,0.0,0.0,0.0,2.9319,2.9046,0.0,0.0,0.0,0.0,0.0,0.0,0.0,0.0,0.0,0.0,0.0,0.0,2.767,2.9379,3.0685,3.1728,3.1771,3.1388,3.0508,3.0314,2.924,2.6975,2.595,2.4154,0.0,0.0,0.0,0.0,0.0,0.0,0.0,0.0,0.0,0.0,0.0,0.0,0.0,0.0,0.0,0.0,0.0,0.0,0.0,0.0,0.0,0.0,0.0,0.0,0.0,0.0,0.0,0.0,0.0,0.0,0.0,0.0,2.1256,2.3765,0.0,0.0,0.0,0.0,0.0,0.0,0.0,0.0,0.0,0.0,0.0,0.0,0.0,3.1548,3.333,3.5736,3.704,3.7204,3.8776,3.967,3.9888,3.9895,3.9975,4.0014,3.947,0.0,3.3684,3.1893,0.0,0.0,0.0,0.0,0.0,0.0,0.0,0.0,0.0,0.0,0.0,0.0,0.0,0.0,0.0,0.0,0.0,0.0,0.0,0.0,0.0,0.0,3.2401,3.2519,3.33,3.3418,0.0,2.7835,2.5023,2.3927,2.2472,0.0,0.0,0.0,0.0,0.0,0.0,0.0,2.8522,2.9746,3.0912,3.2564,3.2655,3.2276,3.1388,3.0699,2.9805,2.865,2.7128,2.6023,2.5603,2.3346,0.0,0.0,0.0,0.0,0.0,0.0,0.0,0.0,0.0,0.0,0.0,0.0,0.0,0.0,0.0,0.0,0.0,0.0,0.0,0.0,0.0,0.0,0.0,0.0,0.0,0.0,0.0,0.0,0.0,2.171,2.4377,2.5909,2.6205,2.6097,0.0,0.0,0.0,0.0,0.0,0.0,0.0,0.0,0.0,3.4751,3.626,3.7533,3.8585,4.0723,4.182,4.1844,4.2662,4.3275,4.3754,4.3775,4.3785,4.3746,4.3277,4.2034,4.0016,3.6362,3.4418,3.3526,0.0,0.0,0.0,0.0,3.1584,3.1508,3.3757,3.395,0.0,3.3019,0.0,0.0,0.0,0.0,0.0,0.0,0.0,0.0,0.0,0.0,0.0,3.5485,3.6268,3.6541,3.5292,3.3534,3.1231,0.0,2.6698,2.5563,2.3616,0.0,0.0,0.0,0.0,2.7917,3.031,3.1678,3.2727,3.3495,3.3541,3.3161,3.2318,3.1472,3.0574,2.9688,2.8462,2.7584,2.7166,2.56,2.3957,0.0,0.0,0.0,0.0,0.0,0.0,0.0,0.0,0.0,0.0,0.0,0.0,0.0,0.0,0.0,0.0,0.0,0.0,0.0,0.0,0.0,0.0,0.0,0.0,0.0,0.0,0.0,0.0,2.5091,2.7307,2.8312,2.9167,2.9354,0.0,0.0,0.0,0.0,0.0,0.0,3.4207,3.5302,3.6982,3.9398,4.1404,4.271,4.3241,4.4853,4.5638,4.5648,4.5634,4.6001,4.6634,4.663,4.6646,4.6607,4.6033,4.5763,4.5375,4.0441,3.8382,3.8188,3.6051,3.5236,3.543,3.6904,3.7023,3.683,3.9392,3.947,3.8305,3.7642,0.0,3.5391,3.306,0.0,0.0,0.0,0.0,3.5273,3.6404,3.7137,3.7867,3.8726,3.9274,3.9313,3.8454,3.8102,3.6618,0.0,3.088,2.9747,2.713,0.0,0.0,0.0,0.0,3.0596,3.2274,3.3492,3.426,3.4453,3.4465,3.4113,3.3196,3.2527,3.1698,3.0588,2.9917,2.9185,2.8389,2.751,2.6361,2.4909,0.0,0.0,0.0,0.0,0.0,0.0,0.0,0.0,0.0,0.0,0.0,0.0,0.0,0.0,0.0,0.0,0.0,0.0,0.0,0.0,0.0,0.0,0.0,0.0,0.0,0.0,0.0,0.0,0.0,3.1654,3.2625,0.0,0.0,0.0,0.0,3.41,3.4325,3.6128,4.014,3.9733,4.0946,4.4411,4.4832,4.5554,4.6652,4.7677,4.822,4.8217,4.8217,4.8273,4.8383,4.8379,4.8353,4.8395,4.8391,4.8405,4.8055,4.3746,4.192,4.1842,4.0907,4.0519,4.0635,4.1531,4.1842,4.1842,4.1998,4.1998,4.192,4.1881,4.0752,3.9545,4.013,3.8665,0.0,0.0,3.9406,3.9883,4.1585,4.2045,4.2317,4.3178,4.2786,4.1967,4.1108,4.0249,3.8882,0.0,3.4353,3.3143,3.2986,0.0,3.0791,3.1495,3.1758,3.2476,3.4163,3.4422,3.4732,3.5436,3.5538,3.513,3.412,3.3995,3.3231,3.1541,3.1349,3.0907,3.0112,2.9223,2.8383,2.7545,2.5062,0.0,0.0,0.0,0.0,0.0,0.0,0.0,0.0,0.0,0.0,0.0,0.0,0.0,0.0,0.0,0.0,0.0,0.0,0.0,0.0,0.0,0.0,0.0,0.0,0.0,0.0,0.0,0.0,3.5897,3.7769,0.0,3.7774,3.8182,3.8701,3.9308,3.9877,4.1529,4.4646,4.4533,4.5505,4.7971,4.8694,4.9308,4.9843,5.0796,5.1313,5.1294,5.1468,5.1576,5.1596,5.1721,5.1153,5.0106,5.0119,4.9543,4.8418,4.6905,4.5958,4.5336,4.3938,4.3394,4.3433,4.3746,4.3862,4.394,4.4484,4.4329,4.3862,4.3862,4.3083,4.2187,4.2498,4.1557,4.0511,4.1219,4.1814,4.24,4.3046,4.324,4.3312,4.3611,4.3451,4.3138,4.2826,4.2514,4.1888,4.0404,3.7828,3.572,3.5172,3.408,3.3219,3.2934,3.3806,3.4518,3.4573,3.5468,3.5987,3.564,3.5588,3.5409,3.4966,3.3939,3.3036,3.2381,3.1294,3.056,3.0295,2.992,2.9371,2.8536,2.7099,2.4833,0.0,0.0,0.0,0.0,0.0,0.0,0.0,0.0,0.0,0.0,0.0,0.0,0.0,0.0,0.0,0.0,0.0,0.0,0.0,0.0,0.0,0.0,0.0,0.0,0.0,3.5065,3.8106,3.9802,4.1936,4.3025,4.2506,4.3212,4.3806,4.4076,4.4646,4.593,4.8138,4.8251,4.895,5.0475,5.1199,5.1666,5.1814,5.2503,5.2824,5.283,5.3115,5.322,5.3229,5.3475,5.2936,5.1851,5.1865,5.1252,5.0205,4.9895,4.9456,4.8837,4.714,4.6688,4.6968,4.6968,4.6968,4.7007,4.7242,4.6582,4.5647,4.5647,4.5256,4.479,4.479,4.4569,4.436,4.4448,4.4885,4.5283,4.5021,4.4998,4.4921,4.4638,4.4355,4.4153,4.4153,4.3919,4.3529,4.2942,4.0522,3.8297,3.7437,3.6579,3.5838,3.5252,3.6091,3.658,3.6032,3.6862,3.7161,3.6213,3.6096,3.5905,3.5515,3.441,3.3478,3.2879,3.2063,3.1213,3.0327,3.0521,3.0233,2.9433,2.8555,2.6858,2.4301,0.0,0.0,0.0,0.0,0.0,0.0,0.0,0.0,0.0,0.0,0.0,0.0,0.0,0.0,0.0,0.0,0.0,0.0,0.0,0.0,0.0,0.0,0.0,3.6073,3.8939,4.1605,4.3301,4.4909,4.5885,4.5885,4.6674,4.75,4.8258,4.8333,4.9047,5.0699,5.0774,5.1182,5.2072,5.2311,5.2464,5.2527,5.2723,5.2819,5.2787,5.307,5.3187,5.3197,5.3451,5.3553,5.3553,5.3599,5.3613,5.3536,5.2687,5.2341,5.2151,5.0478,5.0354,5.1157,5.1122,5.1122,5.1008,5.0156,4.8755,4.7392,4.7392,4.7392,4.7392,4.7392,4.7939,4.8621,4.8677,4.87,4.8527,4.7741,4.7533,4.7344,4.6522,4.5692,4.5051,4.505,4.4387,4.3763,4.3763,4.2397,4.0952,4.0054,3.9196,3.865,3.865,3.865,0.0,3.8611,3.8611,3.8247,3.726,3.7078,3.6642,3.5715,3.5477,3.4718,3.3031,3.3615,3.2945,3.0487,3.1068,3.1082,3.0271,2.9355,2.8539,2.7781,0.0,0.0,0.0,0.0,0.0,0.0,0.0,0.0,0.0,0.0,0.0,0.0,0.0,0.0,0.0,0.0,0.0,0.0,0.0,0.0,0.0,3.8115,4.0917,4.0415,4.3175,4.5923,4.7612,4.9227,5.0195,5.0195,5.0421,5.0646,5.0879,5.0879,5.1367,5.2435,5.251,5.3149,5.4576,5.4756,5.5139,5.5721,5.5842,5.5602,5.5049,5.544,5.5302,5.4706,5.5109,5.498,5.4442,5.4455,5.4114,5.3495,5.3263,5.3162,5.2957,5.0674,4.9957,5.0125,4.9484,4.9276,4.9299,4.903,4.9068,4.9185,4.9185,4.9185,4.9185,4.9185,4.8913,4.861,4.8618,4.8633,4.8578,4.8428,4.8384,4.8177,4.7343,4.6991,4.6633,4.6071,4.5753,4.5403,4.4777,4.4269,4.3449,4.1927,4.0444,3.9468,3.9468,3.9468,0.0,3.8689,3.9117,3.9104,3.812,3.7972,3.7574,3.6621,3.5894,3.5028,3.392,3.2907,3.2324,3.2173,3.1178,3.0804,3.1203,2.9736,2.9158,0.0,0.0,0.0,0.0,0.0,0.0,0.0,0.0,0.0,0.0,0.0,0.0,0.0,0.0,0.0,0.0,0.0,0.0,0.0,0.0,0.0,0.0,4.202,4.5088,4.6405,4.7733,4.9302,5.133,5.2381,5.3207,5.3921,5.3996,5.3996,5.3996,5.3996,5.4221,5.4718,5.4755,5.5168,5.6127,5.6217,5.6478,5.6938,5.7019,5.6772,5.6338,5.6731,5.6694,5.6308,5.6382,5.6221,0.0,5.547,5.5006,5.4503,5.4194,5.4051,0.0,0.0,0.0,0.0,0.0,4.961,4.9631,4.9681,4.9768,4.9887,4.9887,4.9887,4.9887,4.9887,4.9807,4.969,4.9707,4.9671,4.9612,4.929,4.9218,4.8988,4.8181,4.8005,4.7811,4.6983,4.6816,4.6573,4.5714,4.5245,0.0,4.3644,4.2044,4.0873,4.0873,4.0561,4.0171,3.9704,4.0054,4.0008,3.9087,3.8916,3.8492,3.7582,3.6648,0.0,0.0,0.0,3.3343,3.341,3.2122,0.0,0.0,0.0,0.0,0.0,0.0,0.0,0.0,3.0231,2.9988,0.0,0.0,0.0,0.0,0.0,0.0,0.0,0.0,0.0,0.0,0.0,0.0,0.0,0.0,0.0,0.0,4.5646,4.8741,5.2692,5.2148,5.2177,5.4409,5.4672,5.5272,5.6774,5.6887,5.6887,5.6887,5.6887,5.6887,5.6887,0.0,0.0,0.0,0.0,5.7075,5.715,5.715,5.7139,5.7108,5.7412,5.7654,5.7748,5.7373,5.7275,5.74,5.6549,5.6162,5.6085,5.5277,5.489,5.4624,5.3035,5.2457,5.2341,5.1519,5.1225,5.1237,5.1187,0.0,0.0,5.004,5.004,5.004,5.004,5.0581,5.1199,5.1199,5.1199,5.1014,5.0264,5.005,4.9833,4.9018,4.8885,4.8711,4.7812,4.7684,4.747,4.6612,4.5831,4.5245,4.5167,4.3683,4.2551,4.2551,4.1889,4.1343,4.1265,4.1265,4.0913,4.0054,0.0,0.0,3.851,3.7683,3.6791,3.5857,3.5769,3.5336,3.4309,3.3652,3.3677,3.4375,3.5146,3.599,3.6907,3.7678,3.8488,3.9144,3.3807,3.2979,0.0,0.0,0.0,0.0,0.0,0.0,0.0,0.0,0.0,0.0,0.0,0.0,0.0,0.0,0.0,4.6314,4.944,5.2304,5.4485,5.5165,5.5704,5.6344,5.6408,5.6549,5.6858,5.6887,5.6887,5.6887,5.6887,5.6887,5.6887,5.6887,5.7187,5.7854,5.7854,5.8201,5.884,5.884,5.8664,5.8281,0.0,0.0,5.8108,5.8234,5.831,5.8299,5.7439,5.7052,5.6975,5.6124,5.5393,5.4697,5.3665,5.3263,5.3181,5.2379,5.2112,5.2046,5.1357,5.1026,5.0969,5.0969,5.0969,5.0969,5.0969,5.1086,0.0,5.1199,5.1199,5.1163,5.0975,5.097,5.0744,4.987,4.9715,4.9522,4.871,4.8547,4.833,4.7509,4.7197,4.6884,4.6183,4.4583,4.3451,4.3451,4.3295,4.2943,4.224,4.2162,4.181,4.0952,4.0796,4.0383,3.9444,3.9071,3.8517,3.7595,3.7507,3.6846,3.5301,3.5685,3.6028,3.6175,3.6367,3.7216,3.8796,3.8954,3.9454,4.0185,3.8351,3.822,0.0,0.0,0.0,0.0,0.0,0.0,0.0,0.0,0.0,0.0,0.0,4.0494,4.2946,0.0,4.7887,5.0339,5.2494,5.4447,5.617,5.6815,5.7182,5.7388,5.7406,5.7584,5.8051,5.8089,5.8089,5.8089,5.8089,5.8089,5.8089,5.8089,5.8276,5.868,5.868,5.8877,5.929,5.929,5.9264,5.9211,5.9368,5.9456,5.9446,5.9202,5.9152,5.9188,5.8333,5.7946,5.7869,5.7013,5.6162,5.5354,5.4929,5.4245,5.3452,5.3046,5.2922,5.288,5.2478,5.2392,5.2382,5.1952,5.1809,5.1746,5.1316,5.1199,5.1199,5.1199,5.1199,5.1199,5.1199,5.1214,5.11,5.0691,5.0643,5.0414,4.9609,4.9443,4.9188,4.8368,4.8212,4.7938,4.7081,4.6222,4.5363,4.4465,4.3997,4.3529,4.3099,4.306,4.2708,4.1849,4.1715,4.1276,4.0302,3.967,3.8979,3.8049,3.8007,3.7623,3.6773,3.7157,3.735,3.735,3.7777,3.8627,3.99,4.0358,4.12,4.2397,4.1953,4.1557,0.0,0.0,0.0,0.0,0.0,0.0,0.0,3.7349,3.8409,4.1954,4.3624,4.5324,4.8147,5.0005,5.1825,5.3943,5.4973,5.6043,5.7583,5.7816,5.7886,5.8071,5.8128,5.8456,5.9215,5.9281,5.929,5.929,5.929,5.929,5.929,5.929,5.929,5.929,5.929,5.929,5.929,5.929,5.9461,5.9834,5.9915,6.0241,6.0689,6.0151,5.9991,6.0074,5.9227,5.8763,5.8531,5.7671,5.6897,5.624,5.6085,5.5161,5.3966,5.3805,5.3739,5.3751,5.3634,5.3635,5.355,5.2848,5.2635,5.2466,5.1695,5.1423,5.1388,5.1238,5.1199,5.1199,5.1199,5.1199,5.12,5.1283,5.1307,5.1113,5.0508,5.0339,5.0086,4.9228,4.9032,4.8798,4.7978,4.7821,4.7236,4.5518,4.466,4.4154,4.3958,4.3958,4.3606,4.2747,4.2669,4.2282,4.139,4.0523,3.9741,3.905,3.9008,3.9008,3.9008,3.9008,3.9008,3.9008,3.9665,4.0435,4.1247,4.1931,4.297,4.4316,4.4474,4.3816,3.4635,3.3886,3.4694,3.7006,3.8016,3.9937,0.0,4.5527,4.5204,4.8676,4.9977,5.0785,5.1862,5.3376,5.4787,5.5837,5.6692,5.7546,5.8448,5.8597,5.8638,5.876,5.8949,5.9112,5.9196,5.9281,5.929,5.929,5.929,5.929,5.929,5.929,5.929,5.929,5.929,5.929,5.929,5.929,5.9488,5.9884,6.0074,6.0379,6.079,6.091,6.0944,6.0925,6.0112,5.9304,5.8531,5.7671,5.7245,5.7091,5.6317,5.5892,5.5621,5.4933,5.4648,5.456,5.379,5.3553,5.3585,5.3508,5.3473,5.3328,5.2505,5.2282,5.2133,5.1388,5.1199,5.1199,5.1199,5.1199,5.1192,5.1224,5.1259,5.1307,5.1249,5.1241,5.0983,5.0125,4.9967,4.9695,4.8798,4.8681,4.8096,4.6417,4.6066,4.5714,4.4933,4.4855,4.4504,4.3646,4.3568,4.3414,4.3136,4.289,4.2711,4.2559,4.2547,4.2547,4.2547,4.2547,4.2547,4.2547,4.2624,4.3085,4.3897,4.397,4.4124,4.4316,4.509,4.5359,3.9701,3.8971,3.9005,4.1104,4.2858,4.4966,4.8228,4.8926,4.958,5.2127,5.3095,5.3896,5.5206,5.5986,5.6719,5.7573,5.7982,5.8316,5.865,5.8687,5.856,5.8128,5.8641,5.9089,5.9177,5.9225,5.9272,5.929,5.9778,6.0079,6.0079,6.0492,6.0755,6.0755,6.0958,6.1045,6.1045,6.0757,6.0776,6.1106,6.0693,6.0654,6.0982,6.1046,6.1118,6.1079,6.0731,6.0112,5.9343,5.8952,5.8526,5.7985,5.7091,5.6743,5.6665,5.5814,5.5518,5.5453,5.5066,5.5021,5.4979,5.4471,5.4331,5.4206,5.3391,5.3171,5.31,5.2747,5.229,5.1901,5.1901,5.1552,5.1208,5.1241,5.1283,5.1312,5.1402,5.1386,5.1297,5.0944,5.0866,5.0593,4.9695,4.9578,4.9149,4.7939,4.7354,4.6729,4.587,4.5753,4.5402,4.4543,4.3976,4.357,4.3404,4.329,4.3153,4.3098,4.3085,4.3085,4.3085,4.3085,4.3085,4.3085,4.3085,4.3508,4.4316,4.4821,4.5321,4.5812,4.6663,4.7048,4.2667,4.2834,4.3355,4.4952,4.7218,4.936,5.0605,5.1661,5.2893,5.4726,5.5258,5.579,5.7249,5.7509,5.7695,5.8279,5.8725,5.8947,5.8725,5.8687,5.839,5.7621,5.7905,5.8333,5.8707,5.9036,5.9328,5.9581,6.021,6.0717,6.0905,6.1468,6.1816,6.1816,6.2058,6.226,6.2307,6.1957,6.1931,6.2253,6.1648,6.1384,6.1365,6.1172,6.1118,6.1118,6.1118,6.077,6.019,5.9996,5.9537,5.8879,5.7985,5.7671,5.7555,5.6665,5.6201,5.6008,5.6008,5.6029,5.5981,5.5357,5.5145,5.506,5.4252,5.4001,5.398,5.3747,5.3258,5.2759,5.2759,5.2135,5.1533,5.1624,5.1452,5.1315,5.139,5.1414,5.1414,5.1414,5.1414,5.1219,5.0554,5.0476,5.0164,4.9305,4.8641,4.7899,4.6807,4.6456,4.6066,4.544,4.4751,4.4309,4.4143,4.4001,4.3911,4.3867,4.3807,4.3778,4.3778,4.3778,4.3778,4.3778,4.4047,4.4432,4.5009,4.5859,4.6624,4.7235,4.7812,4.8235,4.1854,4.3965,4.6735,4.837,5.0636,5.2865,5.4463,5.4871,5.5382,5.7036,5.6803,5.6506,5.736,5.7509,5.7509,5.7536,5.8836,5.9579,5.8799,5.8687,5.839,5.7621,5.684,5.6705,5.7586,5.8575,5.9524,6.0301,6.051,6.0942,6.1731,6.1768,6.1816,6.1816,6.1958,6.2086,6.2298,6.2398,6.262,6.2863,6.3047,6.2746,6.2039,6.1393,6.1118,6.1118,6.1118,6.1079,6.1002,6.0228,5.9885,5.9769,5.8918,5.8569,5.8453,5.7593,5.6743,5.6008,5.6008,5.6008,5.6012,5.5969,5.5973,5.5827,5.5013,5.4824,5.471,5.3902,5.3667,5.3653,5.3653,5.3031,5.2388,5.252,5.192,5.1315,5.139,5.1414,5.1414,5.1414,5.1414,5.1375,5.1375,5.1375,5.1062,5.0202,5.0046,4.9421,4.7782,4.6807,4.6301,4.6262,4.6222,4.6165,4.6026,4.59,4.5789,4.5729,4.5614,4.5518,4.5518,4.5518,4.5518,4.5518,4.6355,4.6812,4.6812,4.762,4.8043,4.8043,4.8082,4.8548,4.513,4.7218,4.9401,5.1602,5.3608,5.5354,5.6422,5.7053,5.7462,5.7499,5.6878,5.6209,5.5902,5.5827,5.6013,5.6617,5.8056,5.9207,5.9467,5.9988,5.9653,5.7732,5.8205,5.8188,5.6853,5.7578,5.8546,5.9552,6.0677,6.1485,6.1768,6.2867,6.3468,6.3468,6.3719,6.3917,6.4035,6.3885,6.3891,6.4032,6.3681,6.3111,6.2277,6.2056,6.1655,6.1118,6.1118,6.1118,6.1079,6.0809,6.0692,6.0615,5.9807,5.9459,5.9343,5.8488,5.7985,5.7559,5.6394,5.6008,5.6008,5.6008,5.6008,5.5978,5.5714,5.5719,5.5722,5.5412,5.4984,5.4543,5.4543,5.3925,5.3286,5.3419,5.2818,5.2174,5.225,5.1804,5.1414,5.1414,5.1414,5.1414,5.1414,5.1414,5.1297,5.1022,4.9968,4.9032,4.8486,4.7665,4.7158,4.7158,4.6651,4.6244,4.6107,4.6076,4.5952,4.5821,4.5757,4.5943,4.6436,4.6471,4.6701,4.724,4.7543,4.7697,4.7697,4.8548,4.8971,4.8971,4.9553,4.9976,4.8107,5.035,5.2363,5.4564,5.6172,5.7286,5.7806,5.8093,5.8019,5.7249,5.5949,5.4723,5.3859,5.3554,5.3814,5.5188,5.7089,5.8757,5.9749,6.0396,6.0088,5.8316,5.8669,5.8635,5.766,5.7931,5.8595,5.9666,6.1167,6.2209,6.2563,6.3895,6.4651,6.4651,6.4879,6.5087,6.5192,6.5069,6.5066,6.5175,6.4477,6.3869,6.3323,6.3013,6.2394,6.1539,6.1539,6.1389,6.1118,6.1118,6.1118,6.1041,6.0538,6.0344,6.0228,5.9382,5.9072,5.884,5.7052,5.6472,5.6394,5.6085,5.6008,5.6012,5.6042,5.6121,5.6164,5.6205,5.5818,5.5421,5.5472,5.4815,5.418,5.4316,5.3677,5.3072,5.3148,5.2469,5.1843,5.1843,5.1609,5.1414,5.1414,5.1414,5.1414,5.1414,5.0438,4.9618,4.9305,4.8524,4.8017,4.8017,4.7549,4.7149,4.7077,4.7052,4.6939,4.6787,4.6725,4.6893,4.7321,4.7312,4.7582,4.8082,4.8394,4.8548,4.8586,4.9433,4.9861,4.9899,5.0741,5.1125,5.0667,5.3185,5.5448,5.7144,5.813,5.8687,5.865,5.8019,5.7202,5.6283,5.4128,5.2159,5.1305,5.0741,5.1141,5.3321,5.608,5.8454,5.9812,6.0078,5.9946,5.9394,5.8422,5.8323,5.9685,5.9543,5.9739,6.0736,0.0,6.3062,6.3932,6.4833,6.5291,6.5291,6.5374,6.5479,6.5686,6.5844,6.6019,6.6185,6.5417,6.503,6.4952,6.414,6.3289,6.2467,6.2428,6.1926,6.1157,6.1118,6.1118,6.1118,6.1118,6.1118,6.1002,6.0228,5.9962,5.9725,5.8019,5.74,5.7207,5.6356,5.6085,5.6046,5.6008,5.6042,5.6125,5.6168,5.6209,5.6209,5.6285,5.5709,5.5072,5.5133,5.4535,5.3971,5.4045,5.3366,5.2781,5.2781,5.2078,5.1453,5.1453,5.1414,5.1414,5.1414,5.1414,5.1101,5.028,4.9422,4.8876,4.8876,4.8837,4.8798,4.8798,4.8757,4.8645,4.8491,4.8373,4.8257,4.8168,4.8159,4.8197,4.8235,4.9048,4.9471,4.9471,5.0322,5.0745,5.0784,5.1582,5.1962,5.2944,5.5357,5.7097,5.813,5.8539,5.8539,5.7945,5.7175,5.6023,5.398,5.1565,4.941,4.7999,4.8587,4.9915,5.1723,5.5902,5.9487,6.1004,6.2532,6.2871,6.1243,6.1353,6.1232,6.0396,6.098,6.17,6.2292,6.2468,6.2948,6.3871,6.4803,6.5291,6.5291,6.5314,6.5388,6.5465,6.5776,6.6019,6.6185,6.5992,6.5571,6.4991,6.4759,6.4179,6.3328,6.2665,6.2274,6.2003,6.1389,6.1118,6.1118,6.1118,6.1118,6.1079,6.0886,6.0809,6.0654,5.9609,5.8797,5.8101,5.7245,5.6975,5.6859,5.6201,5.6042,5.6125,5.6168,5.6209,5.6209,5.6285,5.6136,5.6008,5.6032,5.5433,5.4829,5.4944,5.4264,5.3678,5.3678,5.2976,5.2352,5.2352,5.1843,5.1414,5.1414,5.1414,5.1336,5.1101,5.032,4.9773,4.9773,4.9189,4.8798,4.8798,4.8789,4.87,4.8497,4.8454,4.8636,4.9062,4.9086,4.9356,5.0014,5.0245,5.0361,5.0361,5.1202,5.1582,5.162,5.2467,5.2851,5.5574,5.7725,5.908,5.9197,5.8947,5.8205,5.631,5.4983,5.3237,5.0042,4.7701,4.5732,4.4106,4.5219,4.7298,5.0056,5.4631,5.8797,6.1551,6.3221,6.3827,6.2828,6.298,6.2941,6.2363,6.2715,6.3352,6.4139,6.3761,6.3761,6.4326,6.5199,6.5692,6.5692,6.5692,6.5712,6.575,6.5934,6.6091,6.6185,6.6185,6.5953,6.5533,6.5533,6.5069,6.4256,0.0,6.3323,6.2936,6.2433,6.2008,6.1655,6.1655,6.1423,6.1118,6.1118,6.1118,6.1041,6.0576,6.0112,5.9493,5.8255,5.7869,5.7714,5.682,5.6605,5.6561,5.6277,5.6194,5.6227,5.6278,5.6295,5.6319,5.6385,5.6019,5.5727,5.5842,5.5201,5.4459,5.4068,5.36,5.3289,5.3289,5.2858,5.2546,5.2546,5.2234,5.1961,5.1961,5.1219,5.0671,5.0671,5.0243,4.993,4.993,4.993,4.9846,4.9623,4.9607,4.972,4.9952,4.9976,5.0361,5.1202,5.1241,5.1395,5.1779,5.2236,5.2467,5.2505,5.3351,5.378,5.8054,5.9727,6.0811,6.0056,5.9197,5.7685,5.4379,5.2234,4.9782,4.5778,4.354,4.1906,4.065,4.1995,4.4677,4.8897,5.3278,5.7619,6.1695,6.3082,6.3775,6.4146,6.3905,6.4045,6.4795,6.4451,6.4697,6.5955,6.5475,6.5104,6.5043,6.5758,6.618,6.6185,6.6185,6.6185,6.6185,6.6185,6.6185,6.6185,6.6185,6.6185,6.6185,6.6185,6.5837,6.5146,6.5069,0.0,6.3869,6.3753,6.325,6.2583,6.2583,6.2124,6.1466,6.1466,6.1389,6.1273,6.1273,6.1195,6.0847,5.9266,5.8763,5.8608,5.7748,5.7477,5.734,5.6691,5.6447,5.635,5.6424,5.6382,5.6339,5.6386,5.6414,5.6435,5.6583,5.602,5.5241,5.4498,5.4264,5.4186,5.4186,5.4068,5.399,5.399,5.3366,5.2859,5.2859,5.1999,5.1453,5.157,5.157,5.1609,5.1726,5.1765,5.164,5.1369,5.1355,5.1231,5.1034,5.1015,5.1356,5.2043,5.2077,5.2428,5.3197,5.3313,5.3351,5.339,5.4241,5.4664,5.8824,6.0078,6.08,5.9959,5.8699,5.683,5.3571,5.0488,4.7367,4.3949,4.1386,3.9863,4.0315,4.2292,4.5312,4.9754,5.4231,5.8456,6.2177,6.3685,6.4566,6.5008,6.5016,6.5299,6.6177,6.552,6.5585,6.6808,6.6813,6.6495,6.5826,6.6003,6.6139,6.6185,6.6185,6.6185,6.6185,6.6185,6.6185,6.6185,6.6185,6.6185,6.6185,6.6185,6.6108,6.5953,6.5301,0.0,6.472,6.3985,6.3598,6.3482,6.3482,6.3366,6.325,6.325,6.2781,6.2158,6.2158,6.1693,6.0925,5.9996,5.9653,5.9498,5.8647,5.8376,5.8346,5.8209,5.7703,5.7195,5.7278,5.6816,5.6312,5.6395,5.6434,5.6484,5.6577,5.6488,5.6332,5.6175,5.5552,5.5085,5.5085,5.4498,5.399,5.399,5.3873,5.3756,5.3756,5.239,5.1687,5.2391,5.2469,5.2781,5.3483,5.3561,5.3434,5.3163,5.3148,5.3017,5.2795,5.2779,5.2818,5.2967,5.2967,5.3044,5.3197,5.3933,5.428,5.428,5.5126,5.5478,6.0104,6.1348,6.2016,6.099,5.9092,5.6209,5.1193,4.785,4.4506,3.9944,3.8049,3.7231,3.7194,3.9528,4.2648,4.625,5.0213,5.4697,6.0123,6.148,6.3002,6.5904,6.5883,6.6113,6.7424,6.6734,6.6674,6.7692,6.7808,6.7288,6.6079,6.6096,6.616,6.6185,6.6185,6.6185,6.6185,6.6185,6.6185,6.6185,6.6185,6.6185,6.6185,6.6185,6.6185,6.6185,6.5799,0.0,6.561,6.5185,6.4759,6.4372,6.4372,6.4101,6.3715,6.3715,6.3444,6.3091,6.3091,6.2511,6.1693,6.135,6.0886,6.0383,5.9537,5.9266,5.9197,5.8738,5.8358,5.8087,5.8164,5.792,5.7573,5.7172,5.6795,5.655,5.6571,5.6605,5.6605,5.6605,5.6255,5.5981,5.5981,5.563,5.5356,5.5356,5.4966,5.4693,5.4693,5.3561,5.2897,5.3327,5.3366,5.3561,5.3951,5.399,5.3902,5.3632,5.3614,5.3483,5.3218,5.3197,5.339,5.3857,5.3895,5.4087,5.4511,5.4934,5.5362,5.5824,5.6209,5.6632,6.1157,6.2444,6.3174,6.1979,5.9523,5.5753,4.9185,4.5566,4.2053,3.6689,3.5423,3.5212,3.493,3.7087,3.994,4.3127,4.6436,5.0951,5.7647,5.9272,6.1473,6.6019,6.6167,6.6474,6.7968,6.7513,6.7475,6.8314,6.825,6.7622,6.6349,6.6228,6.6175,6.6185,6.6185,6.6185,6.6185,6.6185,6.6185,6.6185,6.6185,6.6185,6.6185,6.6185,6.6185,6.6185,6.6185,0.0,0.0,6.6185,6.5837,6.5262,6.5262,6.4836,6.4256,6.4256,6.414,6.3985,6.3985,6.3405,6.2665,6.2665,6.1969,6.0963,6.0344,6.0151,6.0005,5.9344,5.9047,5.8979,5.9048,5.8985,5.8758,5.812,5.7539,5.7073,5.6917,5.6879,5.68,5.6644,5.6605,5.6605,5.6605,5.6605,5.6605,5.6605,5.602,5.5592,5.5592,5.4966,5.4575,5.4575,5.4381,5.4342,5.4536,5.4575,5.4448,5.4134,5.4158,5.4025,5.3757,5.3741,5.4164,5.5016,5.5054,5.5439,5.6242,5.6242,5.6593,5.7286,5.7286,5.7665,6.1243,6.2738,6.3382,6.1891,5.9417,5.5632,4.9172,4.4827,4.0973,3.6657,3.5188,3.5179,3.675,3.77,3.9695,4.4056,4.6986,5.059,5.6059,5.906,6.1704,6.4512,6.5474,6.625,6.7135,6.7135,6.7475,6.8314,6.7718,6.728,6.7197,6.6494,6.6134,6.6185,6.6185,6.6185,6.6185,6.6185,6.6185,6.6185,6.6185,6.6185,6.6185,6.6185,6.6185,6.6185,6.6185,0.0,0.0,6.6185,6.6147,6.6108,6.6108,6.6031,6.5953,6.5953,6.5494,6.4875,6.4875,6.4295,6.356,6.356,6.2477,6.1079,6.1002,6.1002,6.0963,6.0891,6.0373,5.9898,5.9902,5.94,5.8911,5.8899,5.8899,5.8635,5.7855,5.7699,5.7465,5.6722,5.6605,5.6605,5.6605,5.6605,5.6605,5.6605,5.6527,5.6488,5.6488,5.641,5.6371,5.6371,5.5669,5.5513,5.6293,5.6371,5.6204,5.588,5.5864,5.5769,5.5493,5.5478,5.5862,5.6747,5.6786,5.7209,5.805,5.805,5.8088,5.8165,5.8165,5.8204,6.0009,6.1626,6.2447,6.1632,5.8573,5.4269,4.8707,4.4333,4.0268,3.6103,3.5007,3.4995,3.5712,3.6441,3.7851,4.0658,4.2053,4.4974,5.117,5.3125,5.6395,6.3045,6.3705,6.4942,6.8321,6.7712,6.7475,6.8314,6.7616,6.7172,6.7274,6.6527,6.6128,6.6185,6.6185,6.6185,6.6185,6.6185,6.6185,6.6185,6.6185,6.6185,6.6185,6.6185,6.6185,6.6185,6.6185,0.0,0.0,6.6185,6.6185,6.6185,6.6185,6.6185,6.6185,6.6185,6.5992,6.5721,6.5721,6.5185,6.4488,6.4488,6.3676,6.2554,6.2046,6.15,6.1118,6.1118,6.0954,6.0793,6.0793,6.028,5.9745,5.9789,5.9411,5.8986,5.8674,5.8597,5.8479,5.8166,5.8088,5.8088,5.8088,5.8088,5.7932,5.7387,5.7309,5.7153,5.6644,5.6605,5.6605,5.6605,5.6294,5.6216,5.6566,5.6605,5.667,5.6887,5.6871,5.7001,5.7258,5.7242,5.7434,5.778,5.778,5.7934,5.8313,5.8313,5.855,5.9011,5.9011,5.9319,5.8843,6.0703,6.157,6.1195,5.8016,5.357,4.8168,4.3944,4.0017,3.5832,3.4996,3.5014,3.5068,3.548,3.6383,3.8054,3.9071,4.1777,4.7794,4.9736,5.3241,6.0589,6.1358,6.2941,6.7051,6.725,6.7359,6.7975,6.7436,6.7038,6.6927,6.6394,6.6107,6.6185,6.6185,6.6185,6.6185,6.6185,6.6185,6.6185,6.6185,6.6185,6.6185,6.6185,6.6185,6.6185,6.6185,0.0,0.0,6.6185,6.6185,6.6185,6.6185,6.6185,6.6185,6.6185,6.6185,6.6185,6.6185,6.5837,6.5339,6.5339,6.4798,6.3985,6.3362,6.2394,6.1505,6.1523,6.1402,6.1295,6.1355,6.1013,6.0669,6.0688,6.0271,5.9806,5.9533,5.9494,5.9416,5.9142,5.9103,5.9103,5.9103,5.9103,5.8908,5.8285,5.8168,5.7972,5.7425,5.7347,5.7347,5.7347,5.7347,5.723,5.6996,5.6957,5.7177,5.7742,5.7761,5.7931,5.8297,5.8313,5.839,5.866,5.866,5.8781,5.905,5.905,5.9319,5.9896,6.0165,6.0742,5.801,6.0248,6.1073,6.0442,5.7971,5.3975,4.7497,4.3662,4.0304,3.6069,3.5186,3.5273,3.5469,3.5335,3.5755,3.7427,3.9827,4.2953,4.7198,5.0898,5.4126,5.6747,5.8517,6.0242,6.2018,6.5173,6.7096,6.7096,6.7096,0.0,6.604,6.6007,6.6063,6.618,6.6185,6.6185,6.6185,6.6185,6.6185,6.6185,6.6185,6.6185,6.6185,6.6185,6.6185,0.0,0.0,0.0,0.0,6.6185,6.6185,6.6185,6.6185,6.6185,6.6185,6.6185,6.6185,6.6185,6.6185,6.6185,6.6185,6.6185,6.5644,6.4991,6.4991,6.3748,6.2404,6.2455,6.1914,6.1327,6.1453,6.1476,6.1496,6.1561,6.1631,6.1446,6.0588,6.0393,6.0119,5.9259,5.9103,5.9103,5.9103,5.9103,5.9103,5.9103,5.9103,5.9064,5.9064,5.9064,5.9064,5.9064,5.9064,5.8713,5.7855,5.7778,5.8037,5.8636,5.8697,5.8555,5.8297,5.8313,5.8665,5.9473,5.9473,5.9896,6.0781,6.0781,6.0787,6.0825,6.1672,6.2518,5.1617,5.3477,5.4548,5.3799,5.1628,4.8702,4.4878,4.1915,3.913,3.6047,3.5391,3.5405,3.5493,3.5462,3.6504,3.9963,4.12,4.3162,4.7425,5.047,5.3697,5.7434,6.1935,6.4705,6.4711,6.5673,6.6288,6.6288,6.6288,6.6185,6.6001,6.6007,6.6063,6.618,6.6185,6.6185,6.6185,6.6185,6.6185,6.6185,6.6185,6.6185,6.6185,6.6185,6.6185,0.0,0.0,0.0,0.0,6.6185,6.6185,6.6185,6.6185,6.6185,6.6185,6.6185,6.6185,6.6185,6.6185,6.6185,6.6185,6.6185,6.6031,6.5837,6.5837,6.4643,6.3298,6.3421,6.2876,6.2282,6.2373,6.1967,6.156,6.1601,6.1669,6.1602,6.1368,6.1289,6.1211,6.0938,6.0899,6.0899,6.0899,6.0899,6.0665,6.008,6.0002,5.9768,5.9181,5.9103,5.9103,5.9103,5.9103,5.8986,5.8713,5.8674,5.8932,5.9565,5.9587,5.9714,5.9996,6.0012,6.0127,6.0396,6.0396,6.0825,6.1672,6.1672,6.1973,6.2512,6.2775,6.3397,4.7264,4.9439,5.0659,5.0187,4.8447,4.6158,4.3273,4.0893,3.8588,3.6042,3.55,3.55,3.55,3.55,3.6462,3.9388,4.0696,4.2547,4.6163,4.9433,5.3159,5.7736,6.2397,6.5134,6.4936,6.5513,6.5904,6.5904,6.5904,6.5915,6.6001,6.6007,6.6063,6.618,6.6185,6.6185,6.6185,6.6185,6.6185,6.6185,6.6185,6.6185,6.6185,6.6185,6.6185,0.0,0.0,0.0,0.0,6.6185,6.6185,6.6185,6.6185,6.6185,6.6185,6.6185,6.6185,6.6185,6.6185,6.6185,6.6185,6.6185,6.6185,6.6185,6.6185,6.53,6.4225,6.3985,6.3575,6.3224,6.3297,6.2966,6.25,6.2183,6.2169,6.2109,6.1758,6.1719,6.1719,6.1719,6.1719,6.1719,6.1719,6.1719,6.1524,6.0978,6.09,6.0704,6.0157,6.0079,6.0079,6.0079,6.0079,6.0079,6.0079,5.9767,5.9829,6.0423,6.0445,6.0566,6.0804,6.0787,6.0941,6.1287,6.1287,6.171,6.2557,6.2557,6.2974,6.3775,6.3775,6.4275,0.0,4.7177,4.8488,4.85,4.7357,4.5427,4.2196,4.0239,0.0,3.6,3.55,3.5538,3.5654,3.5615,3.5962,3.7042,3.9281,4.1743,4.4321,4.8514,5.3169,5.8165,6.1012,6.2826,6.3506,6.5013,6.5981,6.5981,6.5936,6.5915,6.6001,6.6007,6.6063,6.618,6.6185,6.6185,6.6185,6.6185,6.6185,6.6185,6.6185,6.6185,6.6185,6.6185,6.6185,0.0,0.0,0.0,0.0,6.6185,6.6185,6.6185,6.6185,6.6185,6.6185,6.6185,6.6185,6.6185,6.6185,6.6185,6.6185,6.6185,6.6185,6.6185,6.619,6.5769,6.5135,6.4301,6.4146,6.4196,6.4297,6.4257,6.4021,6.3253,6.3086,6.2852,6.207,6.1875,6.1875,6.1875,6.1875,6.1875,6.1797,6.1797,6.1758,6.1719,6.1719,6.1719,6.1719,6.1719,6.1719,6.1719,6.1719,6.1719,6.1719,6.0978,6.0689,6.1168,6.119,6.1117,6.0881,6.0902,6.1287,6.2172,6.2249,6.2666,6.3391,6.3468,6.3891,6.4705,6.4743,6.5205,3.8562,0.0,4.134,4.0735,4.0337,3.97,0.0,3.7581,3.6965,3.5731,3.55,3.5885,3.7196,3.6888,3.7773,4.1854,4.359,4.5282,4.786,5.351,5.8858,6.2666,6.5359,6.6744,6.6244,6.6596,6.6827,6.6827,6.625,6.5915,6.6001,6.6007,6.6063,6.618,6.6185,6.6185,6.6185,6.6185,6.6185,6.6185,6.6185,6.6185,6.6185,6.6185,6.6185,0.0,0.0,0.0,6.6185,6.6185,6.6185,6.6185,6.6185,6.6185,6.6185,6.6185,6.6185,6.6185,6.6185,6.6185,6.6185,6.6185,6.6185,6.6195,6.6274,6.6191,6.6107,6.5935,6.5519,6.5104,6.5224,6.4781,6.4233,6.4027,6.3985,6.3946,6.3712,6.3673,6.3673,6.3673,6.3673,6.3477,6.2813,6.2696,6.2461,6.1797,6.1719,6.1719,6.1719,6.1719,6.1719,6.1719,6.1719,6.1719,6.1719,6.1524,6.1352,6.1207,6.119,6.1389,6.1772,6.1787,6.2172,6.3006,6.3666,6.4128,6.432,6.4974,6.5397,6.559,6.6244,6.6635,3.601,3.7824,3.9643,3.9217,3.9115,3.8934,3.8084,3.7273,3.6462,3.5654,3.55,3.5885,3.7157,3.735,3.8469,4.1974,4.3936,4.686,5.2125,5.7049,6.1512,6.5282,6.7314,6.8199,6.7744,6.7327,6.7096,6.7096,6.6365,6.5941,6.6005,6.5996,6.6052,6.6144,6.617,6.6185,6.6185,6.6185,6.6185,6.6185,6.6185,6.6185,6.6185,6.6185,6.6185,0.0,0.0,0.0,6.6185,6.6185,6.6185,6.6185,6.6185,6.6185,6.6185,6.6185,6.6456,6.6804,6.6804,6.7075,6.7346,6.692,6.6804,6.6737,6.6405,6.6355,6.6445,6.6529,6.6308,6.6053,6.6144,6.5781,6.5352,6.4961,6.4883,6.4805,6.4376,6.4298,6.4298,6.4298,6.4298,6.4142,6.3673,6.3595,6.3438,6.2969,6.2891,6.2891,6.2891,6.2891,6.2891,6.2891,6.2891,6.2891,6.2891,6.2891,6.2618,6.1962,6.1846,6.2081,6.275,6.2698,6.3051,6.3891,6.4743,6.5205,6.5205,6.5673,6.6096,6.6442,6.6904,6.7321,3.5837,3.8239,4.0567,4.0064,4.0134,4.0092,3.9281,3.7969,3.6696,3.6,3.5885,3.6192,3.7273,3.8081,3.9277,4.132,4.4013,4.8702,5.6813,5.9819,6.2743,6.6981,6.8167,6.866,6.8776,6.7898,6.7282,6.7282,6.6442,6.5935,6.6002,6.6017,6.6036,6.6096,6.6155,6.6185,6.6185,6.6185,6.6185,6.6185,6.6185,6.6185,6.6185,6.6185,6.6185,6.6185,0.0,0.0,6.6185,6.6185,6.6185,6.6185,6.6185,6.6263,6.6417,6.6417,6.6959,6.7694,6.7694,6.8192,6.8694,6.7926,6.7694,6.7593,6.6917,6.681,6.6912,6.7006,6.6913,6.6803,6.6798,6.6796,6.664,6.5936,6.578,6.5585,6.4844,6.4688,6.4688,6.4688,6.4688,6.4649,6.4532,6.4493,6.4454,6.4337,6.4298,6.4298,6.4298,6.4298,6.4298,6.4298,6.4298,6.4298,6.4298,6.4298,6.3961,6.3217,6.2896,6.3036,6.3724,6.3708,6.4045,6.4782,6.5513,6.5904,6.5904,6.6019,6.6442,6.7096,6.7366,6.7898,3.8108,4.0108,4.0911,3.7993,3.8404,3.9242,3.8392,3.8007,3.7777,3.7623,3.7623,3.8311,4.0619,4.1119,4.2466,4.6317,5.0317,5.5126,6.1467,6.266,6.4506,6.8783,6.9436,6.9783,7.0437,6.9122,6.8199,6.8199,6.6782,6.5935,6.6002,6.6017,6.6036,6.6096,6.6155,6.6185,6.6185,6.6185,6.6185,6.6185,6.6185,6.6185,6.6185,6.6185,6.6185,6.6185,0.0,6.6185,6.6185,6.6185,6.6185,6.6185,6.6185,6.665,6.7307,6.7307,6.7849,6.8617,6.8617,6.8694,6.8772,6.8656,6.8617,6.8596,6.8583,6.863,6.8745,6.886,6.789,6.6788,6.6805,6.6796,6.6757,6.664,6.6601,6.6562,6.6445,6.6406,6.6406,6.6406,6.6406,6.6211,6.5507,6.539,6.5155,6.4415,6.4298,6.4298,6.4298,6.4298,6.4298,6.4298,6.4298,6.4298,6.4298,6.4298,6.4467,6.4885,6.4105,6.3839,6.4437,6.5114,6.5551,6.5705,6.582,6.5904,6.5904,6.6596,6.6981,6.7135,6.859,6.936,3.6927,3.8815,4.0196,3.9027,4.0731,4.2474,4.1585,4.1085,4.0777,4.0777,4.0777,4.1239,4.2854,4.4274,4.6889,5.2049,5.5318,5.8781,6.3352,6.4006,6.5436,6.9244,6.9706,7.0014,7.0821,6.9391,6.8391,6.8391,6.6859,6.5935,6.6002,6.6017,6.6036,6.6096,6.6155,6.6185,6.6185,6.6185,6.6185,6.6185,6.6185,6.6185,6.6185,6.6185,6.6185,6.6185,0.0,6.6185,6.6185,6.6185,6.6185,6.6263,6.6727,6.7152,6.7617,6.8506,6.9087,6.9512,6.9976,7.0131,7.0054,6.9589,6.9435,6.9381,6.9083,6.9047,6.911,6.9255,6.8784,6.8182,6.8205,6.7849,6.7498,6.7498,6.7148,6.6796,6.6796,6.6796,6.6796,6.6796,6.6796,6.6679,6.6327,6.6249,6.6094,6.5703,6.5664,6.5664,6.5664,6.5664,6.5664,6.5664,6.5664,6.5664,6.5664,6.5664,6.5503,6.5219,6.5103,6.5107,6.5301,6.5705,6.5904,6.5904,6.6327,6.6558,6.6558,6.7398,6.8052,6.8513,6.9321,6.9706,3.6542,3.8084,3.9819,4.0858,4.2935,4.4782,4.5124,4.4393,4.3893,4.4701,4.4701,4.4816,4.5667,4.8202,5.1895,5.7055,5.9473,6.182,6.5051,6.532,6.6397,6.959,6.9821,7.009,7.1091,6.9507,6.8391,6.8391,6.6872,6.5947,6.6002,6.599,6.6052,6.6096,6.6155,6.6185,6.6185,6.6185,6.6185,6.6185,6.6185,6.6185,6.6185,6.6185,6.6185,6.6185,6.6185,6.6185,6.6185,6.6185,6.6301,6.6572,6.723,6.7733,6.8274,6.9749,7.0291,7.0407,7.1065,7.1297,7.1181,7.0523,7.0333,7.0249,6.9762,6.9674,6.9763,6.9883,6.9983,6.9919,6.9529,6.8903,6.8396,6.8396,6.7888,6.7421,6.7421,6.7421,6.7421,6.7421,6.7421,6.7421,6.7421,6.7421,6.7421,6.7421,6.7421,6.7421,6.7421,6.7226,6.7109,6.7109,6.6913,6.6796,6.6796,6.6783,6.6371,6.5524,6.5855,6.6068,6.5964,6.5935,6.5981,6.6173,6.6789,6.7212,6.7398,6.8276,6.9045,6.9706,6.9898,6.9975,3.9704,4.0285,4.0823,4.247,4.2508,4.3081,4.6966,4.6586,4.6321,4.9514,4.9514,4.9207,5.0091,5.3587,5.7275,6.005,6.2627,6.5128,6.7776,6.7436,6.7904,7.0514,7.0167,7.0321,7.1944,6.986,6.8391,6.8391,6.6878,6.5996,6.6002,6.6074,6.6096,6.6096,6.6155,6.6185,6.6185,6.6185,6.6185,6.6185,6.6185,6.6185,6.6185,6.6185,6.6185,6.6185,6.6185,6.6185,6.6185,6.6185,6.6688,6.7423,6.7501,6.8468,6.9943,7.0871,7.1219,7.1219,7.1297,7.1297,7.1297,7.1219,7.131,7.1403,7.1414,7.1519,7.1639,7.1776,7.1796,7.1441,6.9802,6.9334,6.9295,6.9295,6.9256,6.9217,6.9217,6.9217,6.9217,6.9217,6.9217,6.9217,6.9217,6.9217,6.9217,6.9217,6.9217,6.9217,6.9217,6.8513,6.8005,6.8005,6.7264,6.6796,6.6796,6.6695,6.6598,6.6504,6.6238,6.6098,6.6082,6.5949,6.625,6.7019,6.7058,6.7513,6.8314,6.9161,6.9629,6.9706,7.0475,7.0821,3.8123,3.9281,4.0939,4.2662,4.4043,4.5658,4.8317,5.0048,5.1784,5.4126,5.478,5.5049,5.5357,5.7126,5.9588,6.2666,6.4436,6.6128,6.8122,6.7667,6.7673,6.9161,6.9552,7.0167,7.1283,6.9584,6.8391,6.8391,6.6922,6.602,6.6011,6.6052,6.6118,6.6155,6.6175,6.6185,6.6185,6.6185,6.6185,6.6185,6.6185,6.6185,6.6185,6.6185,6.6185,6.6185,6.6185,6.6185,6.6224,6.6766,6.7191,6.7617,6.8661,6.9788,7.0833,7.1181,7.1297,7.1297,7.1297,7.1297,7.1318,7.1417,7.1478,7.1527,7.1686,7.1779,7.1834,7.1968,7.1987,7.1831,7.1206,7.0621,7.0191,7.0191,6.9801,6.9412,6.9412,6.9412,6.9412,6.9412,6.9412,6.9412,6.9412,6.9412,6.9412,6.9412,6.9412,6.9412,6.9412,6.9098,6.8903,6.8903,6.8592,6.8436,6.8436,6.8375,6.8297,6.8154,6.7372,6.6915,6.6915,6.7266,6.759,6.7898,6.8436,6.8898,6.9206,7.0052,7.0437,7.0475,7.1321,7.1398,3.7892,3.8973,4.0977,4.297,4.5393,4.8005,5.0741,5.3203,5.5742,5.8775,5.9429,5.9435,5.9127,5.9973,6.155,6.4166,6.5782,6.7205,6.8622,6.8282,6.8129,6.8737,6.9552,7.0283,7.086,6.9622,6.8699,6.843,6.7153,6.6257,6.6001,6.6063,6.6128,6.6185,6.6185,6.6185,6.6185,6.6185,6.6185,6.6185,6.6185,6.6185,6.6185,6.6185,6.6185,6.6185,6.6185,6.6379,6.665,6.7268,6.781,6.8429,6.9865,7.0755,7.1297,7.1297,7.1297,7.1297,7.1297,7.1297,7.1334,7.146,7.1497,7.1569,7.1761,7.1833,7.1874,7.1964,7.1987,7.1987,7.1987,7.1558,7.1128,7.1128,7.066,7.0232,7.0232,7.0232,7.0232,7.0232,7.0232,7.0232,7.0232,7.0232,7.0232,7.0232,7.0232,7.0232,7.0232,6.9996,6.9723,6.9412,6.9412,6.9412,6.9412,6.9412,6.9305,6.9092,6.8586,6.8147,6.781,6.8185,6.8545,6.8814,6.9398,6.9821,7.009,7.0629,7.1052,7.1321,7.1905,7.2021,3.9973,3.99,4.1131,4.3705,4.6278,4.951,5.4593,5.5747,5.744,6.3397,6.3288,6.1864,6.1018,6.2204,6.3622,6.4474,6.6737,6.8699,6.959,6.9706,6.9706,6.9706,7.0398,7.0898,7.0898,7.0167,6.936,6.8468,6.7648,6.6862,6.604,6.6069,6.6128,6.6185,6.6185,6.6185,6.6185,6.6185,6.6185,6.6185,6.6185,6.6185,6.6185,6.6185,6.6185,6.6185,6.6185,6.6688,6.7501,6.7539,6.8506,7.0098,7.0949,7.1297,7.1297,7.1297,7.1297,7.1297,7.1297,7.1297,7.1334,7.1465,7.1563,7.1634,7.1774,7.1873,7.1989,7.1989,7.1989,7.1987,7.1987,7.1987,7.1987,7.1987,7.1987,7.1987,7.1987,7.1987,7.1987,7.1987,7.1987,7.1987,7.1987,7.1987,7.1987,7.1987,7.1987,7.1987,7.1987,7.1245,7.0387,6.9529,6.9412,6.9412,6.9412,6.9412,6.9343,6.9128,6.9812,6.9718,6.8661,6.8499,6.8814,6.9706,6.9706,7.009,7.0898,7.0898,7.1321,7.2175,7.2213,7.2668,3.8896,3.9854,4.2162,4.5351,4.9394,5.378,5.828,5.9748,6.1556,6.6314,6.5936,6.4519,6.3628,6.4397,6.5205,6.5474,6.7122,6.8699,6.959,6.9706,6.9706,6.9706,7.0398,7.0898,7.0898,7.0167,6.936,6.8468,6.7691,6.691,6.6046,6.6107,6.617,6.6185,6.6185,6.6185,6.6185,6.6185,6.6185,6.6185,6.6185,6.6185,6.6185,6.6185,6.6185,6.6185,6.6185,6.6688,6.7578,6.8777,6.9904,7.0949,7.1219,7.1297,7.1297,7.1297,7.1297,7.1297,7.1297,7.1358,7.1469,7.1598,7.1697,7.1753,7.1912,7.1951,7.198,7.2006,7.2001,7.1999,7.199,7.1987,7.1987,7.1987,7.1987,7.1987,7.1987,7.1987,7.1987,7.1987,7.1987,7.1987,7.1987,7.1987,7.1987,7.1987,7.1987,7.1987,7.1987,7.1753,7.1519,7.1245,7.1245,7.1245,7.1245,7.1245,7.1115,7.0792,7.1,7.0614,6.954,6.9919,7.0283,7.0552,7.0552,7.0667,7.0898,7.0898,7.1014,7.1283,7.1898,7.2329,4.07,4.2119,4.4812,4.8889,5.2472,5.6439,6.2018,6.398,6.5436,6.8314,6.7859,6.6744,6.6205,6.6551,6.6898,6.6898,6.8321,6.9584,7.009,7.0167,7.0167,7.0167,7.0591,7.0898,7.0898,7.0475,6.9667,6.8507,6.7993,6.7251,6.604,6.6102,6.6165,6.6185,6.6185,6.6185,6.6185,6.6185,6.6185,6.6185,6.6185,6.6185,6.6185,6.6185,6.6185,6.6224,6.692,6.7539,6.8158,6.9821,7.0833,7.1297,7.1297,7.1297,7.1308,7.1358,7.1388,7.1397,7.1438,7.1497,7.1605,7.1692,7.1764,7.181,7.1953,7.1988,7.1985,7.2015,7.2009,7.2004,7.1997,7.1991,7.1987,7.1987,7.1987,7.1909,7.1558,7.1753,7.1909,7.1558,7.1753,7.1987,7.1987,7.1987,7.1987,7.1987,7.1987,7.1987,7.1987,7.1987,7.1987,7.1987,7.1987,7.1987,7.1987,7.1987,7.1846,7.1505,7.1481,7.113,7.0332,7.0677,7.0898,7.0898,7.0898,7.0898,7.0898,7.0898,7.1091,7.1437,7.2322,7.2899,4.3855,4.547,4.8159,5.3318,5.5631,5.8478,6.5596,6.7898,6.8776,6.9629,6.9161,6.8622,6.8545,6.8584,6.8584,6.8545,6.986,7.0898,7.0898,7.0898,7.0898,7.0898,7.0898,7.0898,7.0898,7.0821,7.0129,6.8507,6.8386,6.7677,6.6079,6.6069,6.6134,6.6185,6.6185,6.6185,6.6185,6.6185,6.6185,6.6185,6.6185,6.6185,6.6185,6.6185,6.6224,6.6417,6.8076,6.8849,6.9043,7.0634,7.1297,7.1297,7.1297,7.1308,7.1312,7.146,7.1493,7.1529,7.1662,7.1708,7.1733,7.1774,7.1803,7.1821,7.1953,7.1987,7.1982,7.1982,7.2015,7.2007,7.2006,7.1997,7.1987,7.1987,7.1987,7.1792,7.0971,7.1441,7.1753,7.0971,7.1441,7.2026,7.2104,7.2104,7.2143,7.2221,7.2221,7.2221,7.2221,7.2221,7.2221,7.2221,7.2221,7.2221,7.2221,7.2221,7.208,7.1738,7.1714,7.1543,7.115,7.0975,7.0898,7.0898,7.0975,7.1014,7.1014,7.1091,7.1552,7.2329,7.3129,7.3892,4.2085,4.4581,4.8274,5.401,5.9594,6.4474,6.7436,6.8776,6.9667,7.0475,7.0475,7.0167,6.9552,6.9937,7.0167,6.9513,7.0244,7.0898,7.0898,7.0898,7.0898,7.0898,7.0898,7.0898,7.0898,7.0321,6.9507,6.8468,6.789,6.7108,6.6046,6.6112,6.6175,6.6185,6.6185,6.6185,6.6185,6.6185,6.6185,0.0,6.6185,6.6185,6.6185,6.6185,6.6572,6.7268,6.8346,6.9164,6.9827,7.0871,7.1297,7.1297,7.1297,7.1363,7.1469,7.1508,7.1566,7.1665,7.1691,7.1716,7.1774,7.1788,7.1858,7.1952,7.1992,7.1992,7.1991,7.1989,7.1984,7.2016,7.2008,7.1997,7.1987,7.1987,7.1987,7.1948,7.1753,7.187,7.1948,7.1753,7.187,7.2221,7.2884,7.3001,7.3235,7.3861,7.3978,7.3978,7.3978,7.3978,7.3978,7.3978,7.3978,7.3978,7.3978,7.3978,7.3833,7.3483,7.3462,7.332,7.2958,7.1629,7.0898,7.0898,7.1552,7.1905,7.1905,7.2629,7.3046,7.3199,7.3392,7.3584,4.3466,4.6428,5.0356,5.7093,6.2974,6.7321,6.8199,6.936,7.0398,7.0821,7.0898,7.0783,7.036,7.0629,7.0744,7.036,7.0629,7.0898,7.0898,7.0898,7.0898,7.0898,7.0898,7.0898,7.0898,7.0167,6.936,6.8468,6.7679,6.6898,6.604,6.6096,6.616,6.6185,6.6185,6.6185,6.6185,6.6185,6.6185,6.6185,6.6185,6.6417,6.6804,6.6804,6.7075,6.7578,6.8816,6.9589,7.0059,7.0949,7.1297,7.1308,7.1373,7.1438,7.1501,7.1608,7.1692,7.1741,7.1816,7.1885,7.1902,7.1902,7.1949,7.1992,7.1992,7.1992,7.1992,7.1992,7.1988,7.2019,7.2014,7.2002,7.1987,7.1987,7.1987,7.187,7.148,7.1714,7.187,7.1441,7.1714,7.226,7.3157,7.3625,7.4017,7.4447,7.4486,7.4486,7.4486,7.4486,7.4486,7.4486,7.4486,7.4486,7.4486,7.4453,7.4285,7.4023,7.3912,7.374,7.3528,7.2622,7.2129,7.2129,7.2591,7.2822,7.2822,7.3276,7.3507,7.3507,7.3892,7.4084,4.4586,4.8625,5.3246,6.0325,6.5166,6.8237,6.8353,6.959,7.0744,7.086,7.0898,7.0898,7.0898,7.0898,7.086,7.0706,7.0821,7.086,7.0706,7.0821,7.0898,7.0898,7.0898,7.086,7.0706,6.9937,6.9122,6.8237,6.7455,6.6714,6.604,6.6063,6.6128,6.6185,6.6185,6.6185,6.6185,6.6185,6.6185,6.6185,6.634,6.6804,6.7501,6.781,6.7926,6.8003,6.9401,7.0098,7.0291,7.0987,7.1318,7.1332,7.1465,7.1517,7.1559,7.1749,7.1799,7.185,7.1951,7.1992,7.1992,7.1992,7.1992,7.1992,7.1992,7.1992,7.1992,7.1992,7.199,7.1982,7.198,7.2007,7.203,7.2184,7.2221,7.2026,7.1283,7.1597,7.1831,7.1244,7.1831,7.2651,7.3391,7.433,7.4954,7.4954,7.4954,7.4954,7.4954,7.4954,7.4954,7.4954,7.4954,7.4954,7.4954,7.4838,7.4639,7.4442,7.4274,7.4062,7.3944,7.393,7.393,7.393,7.3776,7.3699,7.3699,7.3853,7.393,7.393,7.4623,7.4938,4.0781,4.8052,5.617,6.0902,6.4711,6.7475,6.8237,6.9161,7.0052,7.0744,7.0898,7.0898,7.0898,7.0898,7.0667,6.9975,7.0437,7.0667,6.9975,7.0475,7.0898,7.0898,7.0898,7.0629,6.9937,6.9084,6.8199,6.7327,6.6582,6.6103,6.6001,6.6063,6.6128,6.6185,6.6185,6.6185,6.6185,6.6185,6.6185,6.6224,6.6959,6.7384,6.7539,6.9009,6.9672,6.9672,6.9904,7.0446,7.1142,7.1258,7.1368,7.1486,7.1473,7.1608,7.1769,7.1786,7.1858,7.1991,7.1992,7.1992,7.1992,7.1992,7.1992,7.1992,7.1992,7.1992,7.1992,7.1992,7.1991,7.1988,7.1982,7.2012,7.2196,7.2965,7.3118,7.3079,7.2962,7.2456,7.2182,7.2845,7.3627,7.4212,7.433,7.5696,7.675,7.675,7.675,7.675,7.675,7.675,7.675,7.675,7.675,7.675,7.675,7.6595,7.6394,7.6277,7.6066,7.5857,7.5683,7.5668,7.5668,7.5668,7.4938,7.4546,7.4546,7.5284,7.5668,7.5668,7.5784,7.5822,4.3995,5.0476,5.6824,6.1589,6.4589,6.6635,6.7475,6.8706,6.9821,7.0167,7.0591,7.0898,7.0898,7.0514,7.0244,7.036,6.9898,6.9699,7.0283,7.0283,7.0244,7.0244,7.0244,7.009,6.9744,6.8475,6.7705,6.7821,6.666,6.5952,6.6001,6.603,6.6091,6.6185,6.6185,6.6185,6.6185,6.6185,6.6456,6.692,6.7307,6.8003,6.8932,6.9672,6.9982,7.002,7.0523,7.0949,7.1302,7.1388,7.1447,7.1501,7.1629,7.1735,7.1796,7.1899,7.195,7.1992,7.1992,7.1992,7.1992,7.1992,7.1992,7.1992,7.1992,7.1992,7.1992,7.1992,7.1991,7.1989,7.1987,7.1982,7.2089,7.247,7.2583,7.2699,7.3197,7.3354,7.351,7.39,7.4642,7.5229,7.5229,7.6281,7.7101,7.7101,7.7101,7.7101,7.7101,7.7101,7.7101,7.7101,7.7101,7.7046,7.6921,7.6771,7.6613,7.6457,7.6248,7.6079,7.5984,7.6015,7.6015,7.6015,7.563,7.5438,7.5438,7.5822,7.6015,7.6015,7.6015,7.5998,4.4893,4.9938,5.4362,5.9467,6.2666,6.4942,6.6173,6.7782,6.9167,6.9629,7.0167,7.0667,7.086,7.0398,7.0129,7.0514,6.9706,6.9391,7.0437,7.009,6.9706,6.9706,6.9706,6.9629,6.9398,6.8205,6.7628,6.8045,6.6705,6.5915,6.6001,6.6007,6.6063,6.618,6.6185,6.6185,6.6185,6.6185,6.665,6.7501,6.7733,6.8584,7.002,7.0214,7.0362,7.0413,7.1071,7.1343,7.1358,7.1516,7.157,7.1586,7.1751,7.1801,7.1854,7.1951,7.1992,7.1992,7.1992,7.1992,7.1992,7.1992,7.1992,7.1992,7.1992,7.1992,7.1992,7.1992,7.1992,7.199,7.199,7.1987,7.206,7.2286,7.2516,7.2705,7.2927,7.3627,7.4212,7.4212,7.472,7.5307,7.5736,7.6322,7.6828,7.7062,7.7101,7.7101,7.7101,7.7101,7.7101,7.7101,7.7101,7.7032,7.6813,7.6864,7.6837,7.6608,7.6608,7.663,7.663,7.663,7.663,7.663,7.663,7.6438,7.6015,7.6015,7.6022,7.6044,7.6044,7.6164,3.8852,4.2897,4.736,5.2433,5.7434,6.1704,6.4166,6.6013,6.7705,6.936,6.9744,7.0014,7.0744,7.086,7.0591,6.9898,7.0321,7.0514,6.986,6.9744,6.9706,6.9706,6.9706,6.9398,6.8545,6.8391,6.8013,6.725,6.6365,6.5915,6.6001,6.6007,6.6063,6.618,6.6185,6.6185,6.6185,6.6185,6.665,6.7501,6.8346,6.9164,7.002,7.0871,7.1295,7.143,7.1469,7.1508,7.1481,7.1638,7.1713,7.1783,7.1789,7.1898,7.1992,7.1992,7.1992,7.1992,7.1992,7.1992,7.1992,7.1992,7.1992,7.1992,7.1992,7.1992,7.1992,7.1992,7.1992,7.1992,7.199,7.1989,7.2223,7.3036,7.3849,7.4033,7.2419,7.2768,7.3352,7.3352,7.3391,7.3939,7.5541,7.5853,7.6166,7.6984,7.7101,7.7101,7.7101,7.7101,7.7101,7.7101,7.7101,7.7032,7.6813,7.7365,7.7642,7.7454,7.8034,7.8369,7.8369,7.8369,7.8369,7.8369,7.8369,7.7599,7.6015,7.6015,7.602,7.609,7.609,7.6556,3.9387,4.2447,4.6097,5.1106,5.4972,5.8325,6.1435,6.4326,6.6635,6.7782,6.8475,6.9122,6.9975,7.0129,7.0206,7.0437,6.9321,6.8744,6.959,6.8744,6.8244,6.8814,6.8853,6.8968,6.9206,6.8737,6.8507,6.8744,6.7475,6.6724,6.685,6.6316,6.6063,6.618,6.6185,6.6185,6.6185,6.6766,6.7462,6.8346,6.9164,7.0054,7.0959,7.1308,7.1485,7.1638,7.1677,7.1669,7.1644,7.172,7.1771,7.1796,7.1902,7.1951,7.1992,7.1992,7.1992,7.1992,7.1992,7.1992,7.1992,7.1992,7.1992,7.2109,7.2656,7.2812,7.2969,7.3515,7.3672,7.3672,7.3672,7.3671,7.3749,7.4058,7.4365,7.4434,7.3801,7.4766,7.5735,7.5735,7.5735,7.593,7.6516,7.6633,7.6555,7.6283,7.675,7.7101,7.7101,7.7609,7.8155,7.8702,7.8657,7.8495,7.8272,7.8384,7.8344,7.8164,7.8351,7.8484,7.8484,7.8536,7.8558,7.8558,7.8654,7.8318,7.7599,7.7651,7.7687,7.7715,7.7803,7.8018,3.8122,4.0653,4.403,4.9003,5.1544,5.4187,5.9567,6.232,6.432,6.6288,6.7359,6.8237,6.909,6.9244,6.9629,7.0706,6.9475,6.8783,6.9937,6.8859,6.8205,6.8776,6.8853,6.9045,6.9629,6.9161,6.909,6.9667,6.8359,0.0,6.7313,6.674,6.6372,6.6219,6.6185,6.6185,6.6185,6.7075,6.7926,6.881,6.9667,7.0553,7.1485,7.154,7.1644,7.1757,7.1774,7.1767,7.1722,7.1836,7.1856,7.1897,7.1952,7.1992,7.1992,7.1992,7.1992,7.2031,7.2344,7.2422,7.2461,7.2773,7.2851,7.2969,7.3555,7.375,7.3867,7.4453,7.4609,7.4609,7.4609,7.4609,7.4687,7.4959,7.5034,7.5107,7.5373,7.587,7.6327,7.6595,7.6438,7.6399,7.6984,7.6867,7.6555,7.6283,7.6711,7.7218,7.7492,7.804,7.8694,7.9526,7.9461,7.93,7.9039,7.9183,7.9179,7.9004,7.929,7.9444,7.9444,7.9495,7.9524,7.9524,7.9573,7.9552,7.9444,7.8924,7.869,7.8717,7.8804,7.9018,0.0,0.0,0.0,4.5561,4.6835,4.9225,5.8369,5.9836,6.0485,6.4871,6.6372,6.7173,6.816,6.8353,6.8891,7.0552,7.0821,7.0821,7.0821,7.0167,6.9667,6.9706,6.9706,6.9706,6.9744,6.9744,6.9744,6.9744,6.893,6.8103,6.739,6.728,6.6957,6.6219,6.6185,6.6224,6.6224,6.708,6.797,6.8865,6.9778,7.0681,7.1505,7.165,7.1725,7.1795,7.1795,7.1795,7.1838,7.195,7.1992,7.1992,7.1992,7.1992,7.1992,7.2031,7.2031,7.2148,7.3047,7.3359,7.3476,7.4336,7.4609,7.4609,7.4648,7.4648,7.4648,7.4687,7.4687,7.4687,7.4687,7.4687,7.4883,7.574,7.5934,7.6168,7.6944,7.5804,7.4895,7.5701,7.5151,7.511,7.6828,7.64,7.6127,7.6945,7.7064,7.7415,7.8236,7.8392,7.8716,7.9355,7.9451,7.9345,7.8962,7.9724,8.0143,8.0025,8.0783,8.1284,8.1284,8.1291,8.1291,8.1291,8.1291,8.1291,8.1291,7.9684,7.8908,7.8967,7.8967,7.943,3.5688,0.0,0.0,0.0,0.0,0.0,5.0564,5.2589,5.5019,6.1106,6.2039,6.2921,6.6769,6.7475,6.7821,6.8898,6.9084,6.9084,6.9084,6.8891,6.9007,6.9629,6.9706,6.9937,7.0514,7.0552,7.0552,0.0,6.9821,6.9034,6.8277,6.7134,6.6425,6.6224,6.6185,6.6495,6.7114,6.8039,6.8963,6.9822,7.0806,7.1424,7.1731,7.1755,7.1839,7.1949,7.1949,7.1949,7.195,7.1992,7.1992,7.1992,7.1992,7.1992,7.207,7.2695,7.293,7.3047,7.3945,7.4258,7.4297,7.4531,7.4609,7.4726,7.5351,7.5547,7.5664,7.6289,7.6484,7.6484,7.6484,7.6484,7.6523,7.6797,7.6835,7.6913,7.7105,7.6791,7.6514,7.6702,7.6538,7.6532,7.7039,7.6883,7.661,7.6218,7.6694,7.7208,7.7442,7.8575,7.9663,8.0469,8.0895,8.0824,8.012,8.0051,8.0034,8.0018,8.0243,8.0628,8.1284,8.134,8.1367,8.1367,8.1414,8.144,8.144,8.093,8.0685,8.0705,8.0751,8.0898,3.7764,3.8771,4.0395,4.1867,0.0,0.0,4.9099,5.0161,5.1798,5.8635,5.9891,6.0904,6.45,6.5412,6.5919,6.6869,6.7541,6.8095,6.8366,6.8391,6.8584,6.9084,6.9475,6.9898,7.036,7.0706,7.0898,7.0898,7.0167,6.9226,6.8123,6.683,6.616,6.6185,6.6627,6.7056,6.7599,6.8867,6.9762,7.031,7.1251,7.1753,7.1793,7.1853,7.1947,7.1992,7.1992,7.1992,7.1992,7.1992,7.1992,7.2031,7.2383,7.2539,7.2656,7.3515,7.3828,7.3984,7.4844,7.5156,7.5195,7.5586,7.5664,7.5781,7.6289,7.6445,7.6562,7.707,7.7187,7.7187,7.7187,7.7187,7.7187,7.7187,7.7187,7.7187,7.7187,7.7186,7.7185,7.71,7.7094,7.709,7.709,7.709,7.6934,7.6426,7.7095,7.7762,7.8153,7.9402,8.0528,8.1328,8.131,8.1193,8.098,8.0388,8.0343,8.111,8.1155,8.158,8.2423,8.2502,8.2374,8.1987,8.2026,8.1845,8.1497,8.1459,8.144,8.144,8.1478,8.1497,4.06,4.1575,0.0,4.5121,4.3013,0.0,5.0201,4.9831,4.972,5.6236,5.8136,5.9294,6.1391,6.2345,6.3104,6.3946,6.5665,6.7177,6.8167,6.836,6.8424,6.8391,6.911,6.9585,6.9552,7.031,7.0792,7.0792,7.0054,6.8974,6.7432,6.6569,6.6239,6.6371,6.7242,6.7789,6.7984,6.9604,7.0479,7.0559,7.1423,7.1801,7.1842,7.195,7.1992,7.1992,7.1992,7.2031,7.2148,7.2148,7.2148,7.2226,7.3008,7.3359,7.3555,7.4414,7.4726,7.4883,7.5742,7.6055,7.6172,7.6953,7.7187,7.7187,7.7187,7.7187,7.7187,7.7187,7.7187,7.7187,7.7187,7.7187,7.7187,7.7187,7.7187,7.7226,7.7305,7.7344,7.7343,7.7376,7.7256,7.71,7.71,7.7178,7.7256,7.7256,7.7999,7.8819,7.96,8.0459,8.1227,8.1834,8.125,8.1026,8.1597,8.0886,8.1092,8.2703,8.2786,8.3173,8.4063,8.4095,8.3753,8.298,8.2864,8.2471,8.1807,8.1691,8.1652,8.1652,8.1729,8.1807,4.423,4.4738,4.5165,4.3514,0.0,0.0,4.287,4.3572,4.5741,4.9746,5.0697,5.2147,5.6555,5.8025,5.844,5.7931,6.1004,6.4433,6.7188,6.816,6.8511,6.8417,6.8657,6.8776,6.8648,6.9544,7.0087,7.0104,6.9489,6.8691,6.7689,6.6843,6.6766,6.7463,6.7684,6.8438,6.9843,7.0337,7.0881,7.1541,7.1824,7.1951,7.1951,7.1992,7.1992,7.1992,7.1992,7.2383,7.3047,7.3047,7.3047,7.3047,7.3242,7.3711,7.4453,7.5312,7.5664,7.5781,7.664,7.6953,7.6953,7.7148,7.7187,7.7187,7.7187,7.7187,7.7187,7.7187,7.7187,7.7187,7.7187,7.7187,7.7187,7.7187,7.7187,7.7383,7.8086,7.8242,7.8437,7.9062,7.8084,7.7183,7.7183,7.773,7.816,7.816,7.8904,7.9492,7.9687,8.0468,8.1054,8.1168,8.2091,8.2464,8.1899,8.2094,8.2419,8.2786,8.2786,8.3173,8.4063,8.4095,8.4018,8.387,8.3173,8.3057,8.3592,8.2896,8.2548,8.2554,8.3283,8.3592,4.6767,4.6924,4.7237,4.5909,0.0,0.0,0.0,4.3372,4.4262,4.8479,4.8353,4.8886,5.3559,5.4352,5.4758,5.6115,5.916,6.1943,6.358,6.5911,6.73,6.6799,6.7542,6.791,6.7408,6.8583,6.9227,6.8771,6.8454,6.7956,6.712,6.6714,6.6902,6.7767,6.8286,6.9169,7.0497,7.1027,7.1514,7.1903,7.1952,7.1992,7.1992,7.1992,7.1992,7.2031,7.2461,7.289,7.332,7.3789,7.4219,7.4609,7.4609,7.4844,7.5351,7.6211,7.6562,7.6601,7.7031,7.7187,7.7187,7.7187,7.7187,7.7187,7.7187,7.7187,7.7305,7.7734,7.7851,7.793,7.8359,7.8437,7.8437,7.8437,7.8437,7.8555,7.8984,7.9101,7.9219,7.9609,7.9023,7.8437,7.8437,7.8788,7.9062,7.9062,7.9804,8.0351,8.0351,8.1094,8.1797,8.2265,8.2466,8.2727,8.3156,8.295,8.3173,8.3979,8.4057,8.4443,8.5294,8.5333,8.514,8.4714,8.3863,8.3676,8.4095,8.4057,8.3824,8.3444,8.3902,8.4095,0.0,0.0,0.0,0.0,0.0,4.6222,0.0,0.0,0.0,4.7859,4.712,4.6964,5.0751,5.0784,5.1225,5.4139,5.695,5.8698,5.8542,6.2054,6.4503,6.4131,6.5746,6.6605,6.5907,6.6943,6.7704,6.7669,6.7076,6.6659,6.6574,6.6577,6.7031,6.8095,6.8899,6.9819,7.0874,7.1638,7.1992,7.1992,7.1992,7.1992,7.1992,7.2187,7.2265,7.2305,7.3164,7.3633,7.3867,7.457,7.5351,7.6133,7.5976,7.6015,7.625,7.6953,7.7187,7.7187,7.7187,7.7187,7.7187,7.7187,7.7187,7.7226,7.7383,7.7461,7.7617,7.8476,7.8711,7.8867,7.9531,7.9687,7.9687,7.9687,7.9687,7.9765,7.9922,7.9961,8.0,8.0156,8.0195,8.0078,7.9765,7.9844,7.9961,7.9961,8.0703,8.125,8.125,8.1875,8.2578,8.324,8.2769,8.2948,8.4324,8.3894,8.4095,8.5449,8.5565,8.5875,8.6564,8.6603,8.6255,8.5565,8.4753,8.4405,8.4598,8.5062,8.4985,8.4327,8.4482,8.4598,0.0,0.0,0.0,0.0,5.1999,0.0,0.0,0.0,4.5363,4.3644,0.0,4.4622,4.6652,0.0,0.0,4.7392,5.0902,5.3279,5.2497,5.6083,5.9188,6.0367,6.2795,6.4304,6.4093,6.3654,6.4657,6.7657,6.517,6.4484,6.6735,6.6853,6.7603,6.9255,6.9374,7.0195,7.1835,7.1953,7.1992,7.1992,7.1992,7.1992,7.2031,7.2812,7.3164,7.3203,7.4062,7.4883,7.5625,7.5703,7.6289,7.6992,7.6211,7.6367,7.707,7.7148,7.7187,7.7187,7.7187,7.7187,7.7187,7.7187,7.7187,7.7344,7.8125,7.8359,7.8515,7.9336,7.957,7.957,7.9687,7.9687,7.9687,7.9687,7.9687,7.9922,8.0703,8.0859,8.1094,8.1836,8.1992,8.1523,7.9961,8.0351,8.0859,8.0859,8.1601,8.2148,8.2148,8.2226,8.2302,8.227,8.3425,8.4224,8.4309,8.5462,8.6261,8.6448,8.6448,8.6494,8.6603,8.6603,8.6564,8.6448,8.5604,8.5526,8.63,8.5643,8.5256,8.5178,8.5952,8.6339,0.0,0.0,0.0,0.0,0.0,0.0,4.6183,0.0,4.4778,0.0,0.0,0.0,0.0,0.0,0.0,0.0,4.8643,5.0165,4.9305,5.2038,5.4869,5.6985,0.0,0.0,6.1703,6.1541,6.2615,6.5579,6.3617,6.3409,6.6005,6.663,6.769,6.9375,6.9414,7.0234,7.1992,7.1992,7.1992,7.1992,7.1992,7.2265,7.2773,7.3125,7.3594,7.4101,7.4961,7.5547,7.5937,7.6445,7.6875,7.7148,7.6797,7.6875,7.7187,7.7187,7.7187,7.7187,7.7187,7.7539,7.8047,7.8515,7.8633,7.8711,7.9101,7.9219,7.9375,8.0234,8.0469,8.0586,8.1094,8.1211,8.1211,8.1211,8.1211,8.1328,8.1679,8.1758,8.1875,8.2226,8.2304,8.207,8.1328,8.1523,8.1758,8.1758,8.207,8.2304,8.2304,8.2304,8.2457,8.2807,8.3381,8.3909,8.4281,8.483,8.514,8.514,8.5604,8.5836,8.5836,8.6332,8.6603,8.6603,8.6261,8.6223,8.6603,8.6223,8.6061,8.6061,8.6416,8.6603,5.6294,0.0,0.0,0.0,0.0,0.0,0.0,0.0,0.0,0.0,0.0,0.0,0.0,0.0,0.0,0.0,0.0,4.8095,4.7041,4.8251,5.0321,5.3172,0.0,0.0,0.0,5.8831,5.9769,6.3322,0.0,6.1617,6.5381,6.6203,6.7418,6.9375,6.9414,7.0234,7.1992,7.1992,7.1992,7.1992,7.2226,7.2695,7.332,7.3789,7.4375,7.5,7.5898,7.625,7.6328,7.6953,7.7187,7.7187,7.7187,7.7344,7.7539,7.7305,7.7344,7.7578,7.7578,7.8125,7.8945,7.9492,7.9687,7.9726,7.9961,8.0078,8.0234,8.1094,8.1367,8.1484,8.2148,8.2304,8.2304,8.2304,8.2304,8.2304,8.2304,8.2304,8.2304,8.2304,8.2304,8.2304,8.2304,8.2304,8.2304,8.2304,8.2304,8.2304,8.2304,8.2264,8.2447,8.2936,8.3061,8.3337,8.3848,8.402,8.4173,8.4405,8.5217,8.5643,8.5643,8.6255,8.6603,8.6603,8.6603,8.6603,8.6603,8.6835,8.6951,8.6951,8.6951,8.6951,0.0,0.0,0.0,5.4382,0.0,0.0,0.0,0.0,4.946,0.0,0.0,0.0,0.0,0.0,0.0,0.0,0.0,0.0,0.0,4.4426,4.5208,4.8603,0.0,0.0,0.0,5.4889,5.5397,0.0,5.7865,5.8461,6.5225,6.562,6.6834,6.9414,6.9414,7.0234,7.1992,7.1992,7.1992,7.1992,7.2851,7.3281,7.3359,7.5039,7.582,7.5898,7.6797,7.7148,7.7148,7.7187,7.7187,7.7187,7.7187,7.7734,7.8359,7.75,7.7734,7.8476,7.8476,7.8984,7.9687,7.9687,7.9687,7.9844,8.0703,8.0976,8.1133,8.1992,8.2265,8.2265,8.2304,8.2304,8.2304,8.2304,8.2304,8.2304,8.2304,8.2304,8.2304,8.2304,8.2304,8.2304,8.2304,8.2304,8.2304,8.2304,8.2304,8.2304,8.2304,8.2171,8.2072,8.1969,8.2594,8.2979,8.2856,8.3599,8.4443,8.5217,8.6068,8.6564,8.6564,8.6603,8.6603,8.6603,8.6603,8.6603,8.6603,8.7454,8.7841,8.7841,8.7841,8.7841,0.0,0.0,6.3985,5.7661,0.0,0.0,0.0,0.0,0.0,0.0,0.0,0.0,0.0,0.0,0.0,0.0,0.0,0.0,0.0,0.0,4.1967,4.4309,4.8369,5.1453,0.0,0.0,0.0,5.8049,5.646,0.0,6.2725,6.4644,6.6522,6.8594,6.9687,7.082,7.1992,7.1992,7.2305,7.2851,7.3164,7.3906,7.5039,7.5625,7.6211,7.6797,7.707,7.7187,7.7187,7.7187,7.7187,7.7265,7.7851,7.8242,7.8476,7.8164,7.8594,7.9375,7.9961,8.0312,8.0664,8.1211,8.1406,8.1484,8.1758,8.1875,8.1914,8.2226,8.2304,8.2304,8.2304,8.2304,8.2304,8.2304,8.2304,8.2304,8.2304,8.2304,8.2461,8.3047,8.3164,8.3359,8.3906,8.4023,8.3633,8.2461,8.2304,8.2304,8.2304,8.217,8.2263,8.2701,8.2391,8.2541,8.3579,8.3947,8.4211,8.4482,8.5294,8.5759,8.5759,8.63,8.6603,8.6603,8.6603,8.6874,8.7454,8.7763,8.8196,8.8776,8.9317,8.9279,6.6756,6.7342,0.0,6.1837,6.0119,0.0,5.3171,0.0,0.0,0.0,0.0,0.0,0.0,0.0,0.0,0.0,0.0,0.0,0.0,4.1029,0.0,4.1849,4.5207,4.8134,4.9928,5.0008,5.1533,5.5401,5.4279,5.5732,0.0,0.0,6.6093,6.8125,6.9844,7.1133,7.1992,7.2305,7.2734,7.332,7.3945,7.4805,7.5898,7.6211,7.668,7.7187,7.7187,7.7187,7.7226,7.7539,7.7656,7.7734,7.8594,7.9101,7.9336,7.9023,7.9453,8.0273,8.1172,8.1445,8.1562,8.2109,8.2304,8.2304,8.2304,8.2304,8.2304,8.2304,8.2539,8.2773,8.2773,8.3008,8.3203,8.3203,8.3203,8.3203,8.3203,8.3203,8.3398,8.3945,8.4062,8.4258,8.4804,8.4883,8.4531,8.3398,8.3203,8.3203,8.3203,8.3054,8.3123,8.3591,8.2992,8.2959,8.3998,8.4366,8.4521,8.4521,8.5294,8.5759,8.5759,8.63,8.6758,8.7067,8.7067,8.7493,8.835,8.866,8.9085,8.9634,9.0478,9.0594]}]]